[[{"header":{"parameterUnit":"m.s-1","parameterCategory":1,"la1":30.6,"la2":29.2853,"lo1":-89.7004,"lo2":-87.6739,"dy":0.0162,"dx":0.0183,"nx":112,"ny":82,"refTime":"2023-05-05T18:00:00:Z","depth":0,"parameterNumber":2,"parameterNumberName":"U-component_of_WINDS"},"data":[0.0,0.0,0.0,0.0,0.0,0.0,0.0,0.0,0.0,0.0,0.0,0.0,0.0,0.0,0.0,0.0,0.0,0.0,0.0,0.0,0.0,0.0,0.0,0.0,0.0,0.0,0.0,0.0,0.0,0.0,0.0,0.0,0.0,0.0,0.0,0.0,0.0,0.0,0.0,0.0,0.0,0.0,0.0,0.0,0.0,0.0,0.0,0.0,0.0,0.0,0.0,0.0,0.0,0.0,0.0,0.0,0.0,0.0,0.0,0.0,0.0,0.0,0.0,0.0,0.0,0.0,0.0,0.0,0.0,0.0,0.0,0.0,0.0,0.0,0.0,0.0,0.0,0.0,0.0,0.0,0.0,0.0,0.0,0.0,0.0,0.0,0.0,0.0,0.0,0.0,-1.98,-1.9707,-1.9636,-1.9594,-1.959,-2.0344,-2.079,-2.079,0.0,0.0,0.0,0.0,0.0,0.0,0.0,0.0,0.0,0.0,0.0,0.0,0.0,0.0,0.0,0.0,0.0,0.0,0.0,0.0,0.0,0.0,0.0,0.0,0.0,0.0,0.0,0.0,0.0,0.0,0.0,0.0,0.0,0.0,0.0,0.0,0.0,0.0,0.0,0.0,0.0,0.0,0.0,0.0,0.0,0.0,0.0,0.0,0.0,0.0,0.0,0.0,0.0,0.0,0.0,0.0,0.0,0.0,0.0,0.0,0.0,0.0,0.0,0.0,0.0,0.0,0.0,0.0,0.0,0.0,0.0,0.0,0.0,0.0,0.0,0.0,0.0,0.0,0.0,0.0,0.0,0.0,0.0,0.0,0.0,0.0,0.0,0.0,0.0,0.0,0.0,0.0,0.0,0.0,0.0,0.0,0.0,0.0,0.0,0.0,0.0,0.0,0.0,0.0,-1.9837,-1.9712,-1.9641,-1.9594,-1.959,-2.0344,-2.079,-2.079,0.0,0.0,0.0,0.0,0.0,0.0,0.0,0.0,0.0,0.0,0.0,0.0,0.0,0.0,0.0,0.0,0.0,0.0,0.0,0.0,0.0,0.0,0.0,0.0,0.0,0.0,0.0,0.0,0.0,0.0,0.0,0.0,0.0,0.0,0.0,0.0,0.0,0.0,0.0,0.0,0.0,0.0,0.0,0.0,0.0,0.0,0.0,0.0,0.0,0.0,0.0,0.0,0.0,0.0,0.0,0.0,0.0,0.0,0.0,0.0,0.0,0.0,0.0,0.0,0.0,0.0,0.0,0.0,0.0,0.0,0.0,0.0,0.0,0.0,0.0,0.0,0.0,0.0,0.0,0.0,0.0,0.0,0.0,0.0,0.0,0.0,0.0,0.0,0.0,0.0,0.0,0.0,0.0,0.0,0.0,0.0,0.0,0.0,0.0,0.0,0.0,0.0,0.0,-1.9806,-1.9763,-1.9718,-1.9633,-1.9604,-1.9609,-2.0344,-2.079,-2.079,-2.0748,0.0,0.0,0.0,0.0,0.0,0.0,0.0,0.0,0.0,0.0,0.0,0.0,0.0,0.0,0.0,0.0,0.0,0.0,0.0,0.0,0.0,0.0,0.0,0.0,0.0,0.0,0.0,0.0,0.0,0.0,0.0,0.0,0.0,0.0,0.0,0.0,0.0,0.0,0.0,0.0,0.0,0.0,0.0,0.0,0.0,0.0,0.0,0.0,0.0,0.0,0.0,0.0,0.0,0.0,0.0,0.0,0.0,0.0,0.0,0.0,0.0,0.0,0.0,0.0,0.0,0.0,0.0,0.0,0.0,0.0,0.0,0.0,0.0,0.0,0.0,0.0,0.0,0.0,0.0,0.0,0.0,0.0,0.0,0.0,0.0,0.0,0.0,0.0,0.0,0.0,0.0,0.0,0.0,0.0,0.0,0.0,0.0,0.0,0.0,0.0,0.0,0.0,-1.9763,-1.9712,-1.9706,-1.9633,-1.9597,-1.9609,-2.0344,-2.079,-2.079,-2.0748,0.0,0.0,0.0,0.0,0.0,0.0,0.0,0.0,0.0,0.0,0.0,0.0,0.0,0.0,0.0,0.0,0.0,0.0,0.0,0.0,0.0,0.0,0.0,0.0,0.0,0.0,0.0,0.0,0.0,0.0,0.0,0.0,0.0,0.0,0.0,0.0,0.0,0.0,0.0,0.0,0.0,0.0,0.0,0.0,0.0,0.0,0.0,0.0,0.0,0.0,0.0,0.0,0.0,0.0,0.0,0.0,0.0,0.0,0.0,0.0,0.0,0.0,0.0,0.0,0.0,0.0,0.0,0.0,0.0,0.0,0.0,0.0,0.0,0.0,0.0,0.0,0.0,0.0,0.0,0.0,0.0,0.0,0.0,0.0,0.0,0.0,0.0,0.0,0.0,0.0,0.0,0.0,0.0,0.0,0.0,0.0,0.0,0.0,0.0,0.0,0.0,0.0,-1.9874,-1.977,-1.9707,-1.9636,-1.9606,-1.959,-2.0344,-2.079,-2.079,-2.0748,0.0,0.0,0.0,0.0,0.0,0.0,0.0,0.0,0.0,0.0,0.0,0.0,0.0,0.0,0.0,0.0,0.0,0.0,0.0,0.0,0.0,0.0,0.0,0.0,0.0,0.0,0.0,0.0,0.0,0.0,0.0,0.0,0.0,0.0,0.0,0.0,0.0,0.0,0.0,0.0,0.0,0.0,0.0,0.0,0.0,0.0,0.0,0.0,0.0,0.0,0.0,0.0,0.0,0.0,0.0,0.0,0.0,0.0,0.0,0.0,0.0,0.0,0.0,0.0,0.0,0.0,0.0,0.0,0.0,0.0,0.0,0.0,0.0,0.0,0.0,0.0,0.0,0.0,0.0,0.0,0.0,0.0,0.0,0.0,0.0,0.0,0.0,0.0,0.0,0.0,0.0,0.0,0.0,0.0,0.0,0.0,0.0,0.0,0.0,0.0,0.0,0.0,-1.9884,-1.9782,-1.9713,-1.9636,-1.9594,-1.959,-1.9887,-2.0047,-2.0047,0.0,0.0,0.0,0.0,0.0,0.0,0.0,0.0,0.0,0.0,0.0,0.0,0.0,0.0,0.0,0.0,0.0,0.0,0.0,0.0,0.0,0.0,0.0,0.0,0.0,0.0,0.0,0.0,0.0,0.0,0.0,0.0,0.0,0.0,0.0,0.0,0.0,0.0,0.0,0.0,0.0,0.0,0.0,0.0,0.0,0.0,0.0,0.0,0.0,0.0,0.0,0.0,0.0,0.0,0.0,0.0,0.0,0.0,0.0,0.0,0.0,0.0,0.0,0.0,0.0,0.0,0.0,0.0,0.0,0.0,0.0,0.0,0.0,0.0,0.0,0.0,0.0,0.0,0.0,0.0,0.0,0.0,0.0,0.0,0.0,0.0,0.0,0.0,0.0,0.0,0.0,0.0,0.0,0.0,0.0,0.0,0.0,0.0,0.0,0.0,0.0,0.0,-2.0033,-1.9934,-1.9835,-1.9763,-1.9682,-1.9628,-1.9592,-1.9597,-1.9609,-1.9609,0.0,0.0,0.0,0.0,0.0,0.0,0.0,0.0,0.0,0.0,0.0,0.0,0.0,0.0,0.0,0.0,0.0,0.0,0.0,0.0,0.0,0.0,0.0,0.0,0.0,0.0,0.0,0.0,0.0,0.0,0.0,0.0,0.0,0.0,0.0,0.0,0.0,0.0,0.0,0.0,0.0,0.0,0.0,0.0,0.0,0.0,0.0,0.0,0.0,0.0,0.0,0.0,0.0,0.0,0.0,0.0,0.0,0.0,0.0,0.0,0.0,0.0,0.0,0.0,0.0,0.0,0.0,0.0,0.0,0.0,0.0,0.0,0.0,0.0,0.0,0.0,0.0,0.0,0.0,0.0,0.0,0.0,0.0,0.0,0.0,0.0,0.0,0.0,0.0,0.0,0.0,0.0,0.0,0.0,0.0,0.0,0.0,0.0,0.0,0.0,0.0,0.0,-2.0117,-2.0049,-1.9966,-1.9902,-1.9788,-1.9682,-1.9614,-1.9592,-1.9609,0.0,0.0,0.0,0.0,0.0,0.0,0.0,0.0,0.0,0.0,0.0,0.0,0.0,0.0,0.0,0.0,0.0,0.0,0.0,0.0,0.0,0.0,0.0,0.0,0.0,0.0,0.0,0.0,0.0,0.0,0.0,0.0,0.0,0.0,0.0,0.0,0.0,0.0,0.0,0.0,0.0,0.0,0.0,0.0,0.0,0.0,0.0,0.0,0.0,0.0,0.0,0.0,0.0,0.0,0.0,0.0,0.0,0.0,0.0,0.0,0.0,0.0,0.0,0.0,0.0,0.0,0.0,0.0,0.0,0.0,0.0,0.0,0.0,0.0,0.0,0.0,0.0,0.0,0.0,0.0,0.0,0.0,0.0,0.0,0.0,0.0,0.0,0.0,0.0,0.0,0.0,0.0,0.0,0.0,0.0,0.0,0.0,0.0,0.0,0.0,0.0,0.0,0.0,-2.0164,-2.0079,-1.996,-1.9917,-1.9818,-1.9745,-1.968,-1.9667,-1.9647,-1.9594,0.0,0.0,0.0,0.0,0.0,0.0,0.0,0.0,0.0,0.0,0.0,0.0,0.0,0.0,0.0,0.0,0.0,0.0,0.0,0.0,0.0,0.0,0.0,0.0,0.0,0.0,0.0,0.0,0.0,0.0,0.0,0.0,0.0,0.0,0.0,0.0,0.0,0.0,0.0,0.0,0.0,0.0,0.0,0.0,0.0,0.0,0.0,0.0,0.0,0.0,0.0,0.0,0.0,0.0,0.0,0.0,0.0,0.0,0.0,0.0,0.0,0.0,0.0,0.0,0.0,0.0,0.0,0.0,0.0,0.0,0.0,0.0,0.0,0.0,0.0,0.0,0.0,0.0,0.0,0.0,0.0,0.0,0.0,0.0,0.0,0.0,0.0,0.0,0.0,0.0,0.0,0.0,0.0,0.0,0.0,0.0,0.0,0.0,0.0,0.0,0.0,0.0,-2.0208,-2.0131,-2.004,-1.9944,-1.9877,-1.9801,-1.9757,-1.9725,-1.968,-1.9635,0.0,0.0,0.0,0.0,0.0,0.0,0.0,0.0,0.0,0.0,0.0,0.0,0.0,0.0,0.0,0.0,0.0,0.0,0.0,0.0,0.0,0.0,0.0,0.0,0.0,0.0,0.0,0.0,0.0,0.0,0.0,0.0,0.0,0.0,0.0,0.0,0.0,0.0,0.0,0.0,0.0,0.0,0.0,0.0,0.0,0.0,0.0,0.0,0.0,0.0,0.0,0.0,0.0,0.0,0.0,0.0,0.0,0.0,0.0,0.0,0.0,0.0,0.0,0.0,0.0,0.0,0.0,0.0,0.0,0.0,0.0,0.0,0.0,0.0,0.0,0.0,0.0,0.0,0.0,0.0,0.0,0.0,0.0,0.0,0.0,0.0,0.0,0.0,0.0,0.0,0.0,0.0,0.0,0.0,0.0,0.0,0.0,0.0,0.0,0.0,0.0,0.0,-2.0215,-2.0208,-2.015,-2.0021,-1.9955,-1.9879,-1.9826,-1.977,-1.9712,-1.9712,0.0,0.0,0.0,0.0,0.0,0.0,0.0,0.0,0.0,0.0,0.0,0.0,0.0,0.0,0.0,0.0,0.0,0.0,0.0,0.0,0.0,0.0,0.0,0.0,0.0,0.0,0.0,0.0,0.0,0.0,0.0,0.0,0.0,0.0,0.0,0.0,0.0,0.0,0.0,0.0,0.0,0.0,0.0,0.0,0.0,0.0,0.0,0.0,0.0,0.0,0.0,0.0,0.0,0.0,0.0,0.0,0.0,0.0,0.0,0.0,-2.5374,0.0,0.0,0.0,0.0,0.0,0.0,0.0,0.0,0.0,0.0,0.0,0.0,0.0,0.0,0.0,0.0,0.0,0.0,0.0,0.0,0.0,0.0,0.0,0.0,0.0,0.0,0.0,0.0,0.0,0.0,0.0,0.0,0.0,0.0,0.0,0.0,0.0,0.0,0.0,0.0,0.0,-2.0285,-2.0229,-2.0162,-2.0084,-2.0025,-1.9963,-1.996,-1.9896,-1.9867,-1.9855,-1.9788,0.0,0.0,0.0,0.0,0.0,0.0,0.0,0.0,0.0,0.0,0.0,0.0,0.0,0.0,0.0,0.0,0.0,0.0,0.0,0.0,0.0,0.0,0.0,0.0,0.0,0.0,0.0,0.0,0.0,0.0,0.0,0.0,0.0,0.0,0.0,0.0,0.0,0.0,0.0,0.0,0.0,0.0,0.0,0.0,0.0,0.0,0.0,0.0,0.0,0.0,0.0,0.0,0.0,0.0,0.0,0.0,0.0,0.0,0.0,0.0,-2.537,0.0,0.0,0.0,0.0,0.0,0.0,0.0,0.0,0.0,0.0,0.0,0.0,0.0,0.0,0.0,0.0,0.0,0.0,0.0,0.0,0.0,0.0,0.0,0.0,0.0,0.0,0.0,0.0,0.0,0.0,0.0,0.0,0.0,0.0,0.0,0.0,0.0,0.0,0.0,0.0,-2.0308,-2.0245,-2.0197,-2.0158,-2.0088,-2.0045,-2.0043,-1.9996,-1.9934,-1.9892,-1.9836,0.0,0.0,0.0,0.0,0.0,0.0,0.0,0.0,0.0,0.0,0.0,0.0,0.0,0.0,0.0,0.0,0.0,0.0,0.0,0.0,0.0,0.0,0.0,0.0,0.0,0.0,0.0,0.0,0.0,0.0,0.0,0.0,0.0,0.0,0.0,0.0,0.0,0.0,0.0,0.0,0.0,0.0,0.0,0.0,0.0,0.0,0.0,0.0,0.0,0.0,0.0,0.0,0.0,-2.5303,-2.5308,-2.5308,-2.5308,-2.5308,-2.5308,-2.5308,-2.5322,-2.5389,-2.5389,0.0,0.0,0.0,0.0,0.0,0.0,0.0,0.0,0.0,0.0,0.0,0.0,0.0,0.0,0.0,0.0,0.0,0.0,0.0,0.0,0.0,0.0,0.0,0.0,-2.056,-2.0513,0.0,0.0,0.0,0.0,0.0,0.0,0.0,0.0,0.0,0.0,0.0,0.0,-2.0296,-2.0246,-2.0211,-2.0201,-2.0143,-2.0126,-2.0112,-2.0078,-2.0014,-1.9939,-1.9881,-1.9823,0.0,0.0,0.0,0.0,0.0,0.0,0.0,0.0,0.0,0.0,0.0,0.0,0.0,0.0,0.0,0.0,0.0,0.0,0.0,0.0,0.0,0.0,0.0,0.0,0.0,0.0,0.0,0.0,0.0,0.0,0.0,0.0,-2.5927,-2.6395,0.0,0.0,0.0,0.0,0.0,0.0,0.0,0.0,0.0,0.0,0.0,0.0,0.0,-2.5075,-2.5198,-2.5266,-2.5292,-2.5297,-2.5298,-2.5308,-2.5308,-2.5308,-2.5308,-2.5308,-2.5308,0.0,-2.5313,-2.5313,0.0,0.0,0.0,0.0,0.0,0.0,0.0,0.0,0.0,0.0,0.0,0.0,0.0,0.0,0.0,0.0,0.0,0.0,0.0,0.0,0.0,0.0,-2.0605,-2.0604,-2.0584,-2.0583,0.0,-2.0522,-2.0495,-2.0499,-2.0433,0.0,0.0,0.0,0.0,0.0,0.0,0.0,-2.03,-2.0296,-2.0265,-2.0211,-2.0179,-2.0186,-2.0184,-2.0173,-2.0141,-2.0074,-2.0,-1.995,-1.9889,-1.9806,0.0,0.0,0.0,0.0,0.0,0.0,0.0,0.0,0.0,0.0,0.0,0.0,0.0,0.0,0.0,0.0,0.0,0.0,0.0,0.0,0.0,0.0,0.0,0.0,0.0,0.0,0.0,0.0,0.0,-2.5466,-2.486,-2.5217,-2.463,-2.4337,0.0,0.0,0.0,0.0,0.0,0.0,0.0,0.0,0.0,-2.5506,-2.5649,-2.6015,-2.6593,-2.6677,-2.671,-2.6708,-2.674,-2.6755,-2.6755,-2.6755,-2.6755,-2.6755,-2.6755,-2.6755,-2.6697,-2.5692,-2.5317,-2.5351,0.0,0.0,0.0,0.0,-2.5395,-2.5408,-2.5437,-2.5472,0.0,0.0,0.0,0.0,0.0,0.0,0.0,0.0,0.0,0.0,0.0,0.0,0.0,-2.1328,-2.0957,-2.0605,-2.0605,-2.0581,-2.0551,0.0,-2.0474,-2.0443,-2.042,0.0,0.0,0.0,0.0,-2.0294,-2.0303,-2.0292,-2.0296,-2.0262,-2.0269,-2.0257,-2.0264,-2.0229,-2.018,-2.0159,-2.0093,-2.0028,-1.9952,-1.986,-1.9763,0.0,0.0,0.0,0.0,0.0,0.0,0.0,0.0,0.0,0.0,0.0,0.0,0.0,0.0,0.0,0.0,0.0,0.0,0.0,0.0,0.0,0.0,0.0,0.0,0.0,0.0,0.0,0.0,-2.4585,-2.419,-2.419,-2.419,-2.419,0.0,0.0,0.0,0.0,0.0,0.0,-2.5032,-2.5171,-2.5609,-2.6385,-2.6541,-2.6974,-2.7669,-2.7733,-2.7781,-2.781,-2.7844,-2.7885,-2.7895,-2.7895,-2.7895,-2.7895,-2.7895,-2.7895,-2.7799,-2.6505,-2.5962,-2.5947,-2.5779,-2.5712,-2.5673,-2.5461,-2.5369,-2.5373,-2.5395,-2.5425,-2.5499,-2.5544,0.0,-2.4647,-2.4715,0.0,0.0,0.0,0.0,-2.3379,-2.3164,-2.2676,-2.2227,-2.2227,-2.1719,-2.123,-2.123,-2.123,-2.1092,0.0,-2.0519,-2.0474,-2.0435,0.0,0.0,0.0,0.0,-2.0327,-2.0304,-2.029,-2.0295,-2.0304,-2.0308,-2.0296,-2.0308,-2.0242,-2.0218,-2.0195,-2.015,-2.0107,-2.0026,-1.99,-1.98,-1.972,0.0,0.0,0.0,0.0,0.0,0.0,0.0,0.0,0.0,0.0,0.0,0.0,0.0,0.0,0.0,0.0,0.0,0.0,0.0,0.0,0.0,0.0,0.0,0.0,0.0,0.0,0.0,0.0,0.0,-2.419,-2.419,0.0,0.0,0.0,0.0,-2.5425,-2.6194,-2.6698,-2.6767,-2.6896,-2.7054,-2.7223,-2.7433,-2.7551,-2.7598,-2.7676,-2.7745,-2.7806,-2.781,-2.7838,-2.7895,-2.7895,-2.7895,-2.7895,-2.7895,-2.7895,-2.7895,-2.7818,-2.778,-2.7684,-2.6851,-2.6544,-2.6447,-2.562,-2.5313,-2.5317,-2.5389,-2.5403,-2.5416,-2.548,-2.5526,-2.5549,-2.5615,-2.5609,0.0,0.0,-2.4335,-2.414,-2.3301,-2.3125,-2.3125,-2.3125,-2.3047,-2.2969,-2.2969,-2.2969,-2.25,0.0,-2.0549,-2.0509,-2.0494,0.0,-2.0404,-2.039,-2.0392,-2.0376,-2.0305,-2.0305,-2.0308,-2.0307,-2.0304,-2.0292,-2.0292,-2.0308,-2.0261,-2.0207,-2.0201,-2.0153,-2.0107,-1.9969,-1.987,-1.9801,-1.9719,0.0,0.0,0.0,0.0,0.0,0.0,0.0,0.0,0.0,0.0,0.0,0.0,0.0,0.0,0.0,0.0,0.0,0.0,0.0,0.0,0.0,0.0,0.0,0.0,0.0,0.0,0.0,0.0,-2.419,-2.419,0.0,-2.4915,-2.5295,-2.5712,-2.6227,-2.6591,-2.6837,-2.6907,-2.699,-2.7602,-2.8868,-2.9071,-2.9684,-3.0815,-3.093,-3.0986,-3.1019,-3.106,-3.1098,-3.1129,-3.1115,-3.1121,-3.1121,-3.1121,-3.1121,-3.1083,-3.0564,-2.9371,-2.7876,-2.7563,-2.7448,-2.739,-2.7082,-2.6967,-2.6986,-2.7001,-2.7017,-2.6925,-2.6474,-2.5997,-2.5603,-2.5627,-2.5672,-2.5648,-2.5325,-2.523,-2.5174,-2.4843,-2.4375,-2.3965,-2.3965,-2.3555,-2.3164,-2.3164,-2.3125,-2.293,-2.2323,-2.218,-2.2168,-2.2167,-2.2115,-2.2076,-2.2075,-2.1603,-2.1233,-2.1198,-2.0663,-2.0302,-2.0308,-2.0299,-2.03,-2.0292,-2.0296,-2.0265,-2.0192,-2.0203,-2.0165,-2.0098,-2.0005,-1.9904,-1.98,-1.9738,-1.9665,0.0,0.0,0.0,0.0,0.0,0.0,0.0,0.0,0.0,0.0,0.0,0.0,0.0,0.0,0.0,0.0,0.0,0.0,0.0,0.0,0.0,0.0,0.0,0.0,0.0,-2.419,-2.419,-2.419,-2.4438,-2.4805,-2.5338,-2.5978,-2.6682,-2.7474,-2.788,-2.824,-2.8562,-2.8659,-2.927,-3.0537,-3.071,-3.1333,-3.252,-3.2648,-3.2718,-3.2775,-3.2814,-3.2856,-3.2897,-3.2904,-3.2897,-3.2891,-3.2891,-3.2891,-3.2852,-3.2314,-3.1102,-2.9506,-2.8646,-2.8299,-2.828,-2.8011,-2.7895,-2.7895,-2.7895,-2.7906,-2.7821,-2.7333,-2.6835,-2.6408,-2.6446,-2.647,-2.6518,-2.6537,-2.6569,-2.6576,-2.6578,-2.5935,-2.5272,-2.5273,-2.4648,-2.4043,-2.4043,-2.4004,-2.3984,-2.3984,-2.3493,-2.3096,-2.3102,-2.3054,-2.3035,-2.2998,-2.2516,-2.2136,-2.2143,-2.1333,-2.0759,-2.0733,-2.0478,-2.0299,-2.0304,-2.0308,-2.0273,-2.0238,-2.0238,-2.021,-2.0144,-2.004,-1.9942,-1.9799,-1.9707,-1.9638,-1.9576,0.0,0.0,0.0,0.0,0.0,0.0,0.0,0.0,0.0,0.0,0.0,0.0,0.0,0.0,0.0,0.0,0.0,0.0,0.0,0.0,0.0,0.0,0.0,-2.419,-2.4226,-2.4245,-2.4245,-2.497,-2.5485,-2.5503,-2.7058,-2.8413,-2.9207,-3.0112,-3.1005,-3.1849,-3.1971,-3.2027,-3.2131,-3.2259,-3.2373,-3.2473,-3.2546,-3.2659,-3.2768,-3.2776,-3.2855,-3.2967,-3.2974,-3.2974,-3.2987,-3.2987,-3.2987,-3.2987,-3.2949,-3.2949,-3.2699,-3.0185,-2.9223,-2.9127,-2.8338,-2.8049,-2.803,-2.803,-2.7983,-2.7951,-2.7933,-2.7976,-2.8006,-2.809,-2.8104,-2.811,-2.8173,-2.8244,-2.8303,-2.8307,-2.7668,-2.7047,-2.7048,-2.6405,-2.5781,-2.5781,-2.5781,-2.5762,-2.5742,-2.4374,-2.3218,-2.3188,-2.3184,-2.3153,-2.3084,-2.3051,0.0,-2.3047,-2.2278,-2.172,-2.1642,-2.0865,-2.035,-2.0346,-2.0323,-2.0292,-2.0292,-2.0308,-2.0273,-2.0197,-2.006,-1.9936,-1.9809,-1.9668,-1.9576,-1.9492,0.0,0.0,0.0,0.0,0.0,0.0,0.0,0.0,0.0,0.0,0.0,0.0,0.0,0.0,0.0,0.0,0.0,0.0,0.0,0.0,0.0,-2.419,-2.419,-2.419,-2.4695,-2.5062,-2.5062,-2.6292,-2.7365,-2.7952,-2.9012,-3.0008,-3.0807,-3.1154,-3.1446,-3.1733,-3.1774,-3.2143,-3.2876,-3.2975,-3.3381,-3.4131,-3.4253,-3.439,-3.4511,-3.4506,-3.4553,-3.4634,-3.4644,-3.4674,-3.4709,-3.4709,-3.4749,-3.4731,-3.4103,-3.384,-3.3705,-3.2372,-3.1852,-3.1833,-3.1602,-3.116,-3.066,-3.066,-2.9838,-2.8772,-2.8837,-2.8439,-2.7933,-2.801,-2.8067,-2.81,-2.8118,-2.8177,-2.8228,-2.8225,-2.8083,-2.7937,-2.794,-2.7768,-2.7595,-2.7597,-2.7597,-2.7402,-2.6777,-2.6269,-2.5722,-2.5093,-2.4998,-2.4952,-2.4901,-2.4347,0.0,-2.3879,-2.3107,-2.2552,-2.2548,-2.1765,-2.1248,-2.1238,-2.0669,-2.03,-2.0296,-2.0296,-2.0273,-2.0197,-2.0122,-1.9969,-1.9732,-1.9636,-1.9592,0.0,0.0,0.0,0.0,0.0,0.0,0.0,0.0,0.0,0.0,0.0,0.0,0.0,0.0,0.0,0.0,0.0,0.0,0.0,0.0,0.0,0.0,-2.4493,-2.4695,-2.4695,-2.5099,-2.565,-2.6329,-2.753,-2.8631,-2.9427,-3.0287,-3.1151,-3.1931,-3.2047,-3.2274,-3.2631,-3.265,-3.2944,-3.3569,-3.3642,-3.4003,-3.4711,-3.4821,-3.4964,-3.5155,-3.5162,-3.5185,-3.5261,-3.5289,-3.532,0.0,-3.5391,-3.542,-3.5422,-3.4942,-3.4737,0.0,0.0,0.0,0.0,0.0,-3.2602,-3.2199,-3.2199,-3.1545,-3.0646,-3.0331,-2.9899,-2.944,-2.9095,-2.9056,-2.9113,-2.9136,-2.9191,-2.9257,-2.9247,-2.9039,-2.8803,-2.8831,-2.8564,-2.8295,-2.8297,-2.8298,-2.8142,-2.7636,0.0,0.0,-2.6386,-2.5947,-2.5692,-2.565,-2.5194,-2.4813,-2.4755,-2.3973,-2.3433,-2.3445,-2.2661,-2.1996,-2.1638,-2.1134,0.0,0.0,0.0,-2.0253,-2.0153,-2.0079,0.0,0.0,0.0,-1.9606,-1.9609,0.0,0.0,0.0,-1.9248,-1.9102,0.0,0.0,0.0,0.0,0.0,0.0,0.0,0.0,0.0,0.0,0.0,0.0,0.0,0.0,0.0,0.0,-2.4934,-2.5503,-2.576,-2.5815,-2.6347,-2.778,-2.8803,-2.9684,-3.0411,-3.1238,-3.2065,-3.2777,-3.2883,-3.3216,-3.3935,0.0,0.0,0.0,0.0,-3.4305,-3.4561,-3.4655,-3.482,-3.5075,-3.5084,-3.5108,-3.5193,-3.5253,-3.5269,-3.5277,-3.5327,-3.5364,-3.5391,-3.5446,-3.5486,-3.5339,-3.3788,-3.3199,-3.3199,-3.3199,-3.3122,0.0,-3.3045,0.0,0.0,-3.2064,-3.1833,-3.1685,-3.092,-3.0733,-3.0766,-3.0728,-3.0762,-3.0808,-3.0709,-3.0161,-2.9643,-2.9719,-2.9142,-2.8582,-2.8588,-2.8589,-2.855,-2.8474,-2.8455,-2.8143,-2.7168,-2.6363,-2.5804,-2.5714,-2.563,-2.5577,-2.5528,-2.483,-2.4353,-2.4354,0.0,0.0,-2.1951,-2.1715,-2.1264,-2.0494,-2.0353,-2.023,-2.0127,-1.9976,-1.9857,-1.9732,-1.9649,-1.9601,-1.9597,-1.9609,-1.9576,-1.9511,-1.9365,-1.9243,0.0,0.0,0.0,0.0,0.0,0.0,0.0,0.0,0.0,0.0,0.0,0.0,0.0,0.0,0.0,-2.5052,-2.5301,-2.6072,-2.8033,-2.829,-2.8418,-2.873,-3.062,-3.1959,-3.2124,-3.2871,-3.3416,-3.3582,-3.3595,-3.3663,-3.3829,-3.3829,-3.3868,-3.3934,-3.4061,-3.4221,-3.4439,-3.4623,-3.479,-3.4936,0.0,0.0,-3.5119,-3.5127,-3.5134,-3.5149,-3.5147,-3.519,-3.5242,-3.5308,-3.5361,-3.5381,-3.5102,-3.5,-3.5,-3.5,-3.4545,-3.3955,-3.3955,-3.3487,-3.2872,-3.2718,-3.2679,-3.2641,-3.2474,-3.2466,0.0,-3.1672,-3.155,-3.1443,-3.0789,-3.0538,-3.047,-3.055,-3.0434,-3.0331,-3.04,-3.0401,-3.0187,-2.9488,-2.9353,-2.8846,-2.7265,-2.6855,-2.6516,-2.5804,-2.5632,-2.5608,-2.5577,-2.5386,-2.5243,-2.524,-2.4474,-2.3886,-2.3709,-2.2399,-2.1522,-2.1364,-2.0696,-2.0253,-2.0176,-2.0041,-1.9934,-1.9867,-1.9738,-1.9649,-1.9594,-1.9604,-1.9583,-1.9576,-1.9442,-1.9342,0.0,0.0,0.0,0.0,0.0,0.0,0.0,0.0,0.0,0.0,0.0,-2.3912,-2.4402,0.0,-2.4962,-2.585,-2.6347,-2.7163,-2.8767,-2.9684,-3.0356,-3.0748,-3.1867,-3.2748,-3.3151,-3.3568,-3.3807,-3.3807,-3.3807,-3.3807,-3.3807,-3.3807,-3.382,-3.3842,-3.3947,-3.4099,-3.4293,-3.442,-3.4615,-3.4849,-3.4879,-3.4927,-3.5001,-3.5029,-3.5038,-3.5,-3.5063,-3.5108,-3.5108,-3.5176,-3.5242,-3.5304,-3.5364,-3.5446,-3.55,-3.55,-3.5212,-3.4853,-3.4853,-3.4564,-3.4141,-3.368,-3.3545,-3.3468,-3.3026,-3.2923,-3.2864,-3.2457,-3.2064,-3.1676,-3.1291,-3.0959,-3.0709,-3.0738,-3.0773,-3.0815,-3.0841,-3.0843,-3.0729,-3.0324,-3.0248,-2.9839,-2.8532,-2.83,-2.7714,-2.595,-2.5676,-2.5646,-2.561,-2.5565,-2.5541,-2.5503,-2.5104,-2.4667,-2.4234,-2.2626,-2.1629,-2.16,-2.078,-2.0273,-2.0195,-2.0102,-2.0001,-1.99,-1.98,-1.9701,-1.9608,-1.9606,-1.9604,-1.9609,-1.9529,-1.9449,0.0,0.0,0.0,0.0,0.0,0.0,0.0,-2.318,-2.3413,-2.343,-2.3759,-2.4245,-2.4965,-2.5295,-2.5753,-2.6661,-2.7372,-2.8191,-2.9299,-3.0577,-3.1764,-3.2711,-3.2821,-3.3091,-3.3733,-3.3807,-3.3807,-3.3807,-3.3807,-3.3807,-3.3807,-3.3807,-3.3807,-3.3807,-3.3855,-3.3985,-3.4161,-3.4245,-3.4409,-3.4697,-3.4737,-3.478,-3.4831,-3.4898,-3.4908,-3.487,-3.4946,-3.4955,-3.4936,-3.4991,-3.5081,-3.5176,-3.5219,-3.535,-3.546,-3.5493,-3.55,-3.55,-3.55,-3.55,-3.5385,-3.468,-3.4449,-3.4314,-3.3622,-3.341,-3.3378,-3.3275,-3.2727,-3.2163,-3.2063,-3.1486,-3.0918,-3.0939,-3.0852,-3.0785,-3.0791,-3.0796,-3.0821,-3.0865,-3.0887,-3.0616,-2.974,-2.9606,-2.8769,-2.6327,-2.5947,-2.587,-2.5642,-2.561,-2.5587,-2.5527,-2.5506,-2.5143,-2.4273,-2.2961,-2.2088,-2.1877,-2.1023,-2.0529,-2.0462,-2.0255,-2.0069,-1.9947,-1.9864,-1.9763,-1.9629,-1.9641,-1.9608,-1.9597,-1.9764,-1.9713,-2.211,-2.2394,-2.2515,-2.2646,-2.279,-2.2932,0.0,-2.3241,-2.343,-2.3551,-2.4251,-2.4911,-2.5067,-2.5783,-2.6607,-2.7442,-2.7699,-2.8587,-3.0815,-3.1286,-3.1966,-3.3495,-3.3678,-3.3697,-3.3788,-3.3807,-3.3807,-3.3807,-3.3807,-3.3807,-3.3807,-3.3807,-3.3807,-3.3807,-3.3855,-3.3934,-3.4023,-3.4148,-3.4257,-3.4351,-3.4484,-3.4561,-3.4645,-3.4708,-3.4728,-3.4718,-3.4604,-3.4594,-3.4636,-3.4718,-3.484,-3.5038,-3.5107,-3.5195,-3.535,-3.546,-3.55,-3.55,-3.55,-3.55,-3.5481,-3.5385,-3.5346,-3.5346,-3.5231,-3.5212,-3.5038,-3.4282,-3.3994,-3.3756,-3.3059,-3.227,-3.1715,-3.1824,-3.1273,-3.073,-3.0786,-3.0794,-3.0795,-3.08,-3.0865,-3.0614,-2.9755,-2.9603,-2.8982,-2.7129,-2.6852,-2.6569,-2.5794,-2.564,-2.5598,-2.5593,-2.5538,-2.5143,-2.4273,-2.4022,-2.3596,-2.2803,-2.1939,-2.1454,-2.1448,-2.0639,-2.0146,-2.0074,-1.995,-1.9851,-1.9775,-1.9726,-1.9662,-1.962,-2.0327,-2.0287,-2.2306,-2.2538,-2.2712,-2.2893,-2.3052,-2.3229,-2.336,-2.3867,-2.4345,-2.439,-2.5093,-2.5853,-2.6393,-2.6813,-2.7362,-2.8253,-2.8416,-2.9129,-3.1109,-3.1397,-3.2003,-3.3605,-3.3807,-3.3807,-3.3807,-3.3807,-3.3807,-3.3807,-3.3807,-3.4009,-3.4472,-3.4491,-3.4743,-3.5238,-3.5285,-3.5322,-3.539,-3.5444,-3.5277,-3.4866,-3.4946,-3.477,-3.4439,-3.4495,-3.4528,-3.4517,-3.4409,-3.4393,-3.4393,-3.4484,-3.4604,-3.473,-3.4908,-3.5053,-3.5144,-3.5357,-3.546,-3.55,-3.55,-3.55,-3.55,-3.55,-3.55,-3.55,-3.55,-3.55,-3.5423,-3.5064,-3.459,-3.4129,-3.3788,-3.3101,-3.2406,-3.2038,-3.1699,-3.1346,-3.0905,-3.0804,-3.0795,-3.08,-3.0822,-3.0727,-3.0356,-3.0322,-2.9935,-2.8706,-2.7656,-2.6871,-2.6491,-2.5981,-2.5628,-2.5546,-2.5511,-2.5356,-2.4989,-2.4486,-2.4041,-2.3674,-2.2838,-2.236,-2.2361,-2.1498,-2.0957,-2.0856,-2.0298,-2.0196,-2.0564,-2.0534,-2.0701,-2.1054,-2.1399,-2.1362,-2.2528,-2.2712,-2.2932,-2.3132,-2.3313,-2.3547,-2.3876,-2.4491,-2.5068,-2.5256,-2.597,-2.6723,-2.7362,-2.7676,-2.8057,-2.8724,-2.9052,-2.9698,-3.1138,-3.1548,-3.2221,-3.3615,-3.3793,-3.3807,-3.3807,-3.3807,-3.3899,-3.4119,-3.4137,-3.4491,-3.5316,-3.5353,-3.5646,-3.6266,-3.6303,-3.6313,-3.637,-3.637,-3.6099,-3.5586,-3.5581,-3.5234,-3.4544,-3.4393,-3.4305,-3.4281,-3.4221,-3.4161,-3.4124,-3.4245,-3.434,-3.4431,-3.4691,-3.4832,-3.4944,-3.5195,-3.5376,-3.5486,-3.5493,-3.55,-3.55,-3.55,-3.55,-3.55,-3.55,-3.55,-3.55,-3.55,-3.5045,-3.4552,-3.4565,-3.396,-3.3189,-3.2672,-3.2268,-3.1813,-3.1247,-3.0966,-3.0807,-3.0796,-3.08,-3.08,-3.08,-3.0844,-3.0652,-3.0047,-2.8687,-2.7539,-2.7067,-2.6232,-2.5668,-2.5543,-2.5518,-2.5506,-2.5499,-2.4911,-2.4563,-2.4563,-2.3732,-2.3264,-2.3269,-2.2419,-2.1918,-2.1814,-2.1181,-2.1071,-2.1508,-2.1494,-2.1713,-2.2121,-2.235,-2.2419,-2.2659,-2.2893,-2.3144,-2.3336,-2.3494,-2.3833,-2.4667,-2.4933,-2.5201,-2.5912,-2.6754,-2.7369,-2.7387,-2.8082,-2.8658,-2.8706,-2.9411,-3.025,-3.1089,-3.1926,-3.277,-3.3607,-3.3766,-3.3807,-3.3807,-3.3807,-3.4119,-3.4912,-3.4968,-3.5334,-3.6211,-3.6266,-3.6266,-3.6303,-3.6303,-3.6303,-3.6285,-3.6285,-3.6299,-3.6262,-3.6333,-3.5961,-3.5148,-3.4426,-3.4074,-3.4011,-3.3934,-3.3908,-3.3908,-3.3985,-3.4086,-3.4233,-3.442,-3.4596,-3.4724,-3.4935,-3.5179,-3.5412,-3.5486,-3.55,-3.55,-3.55,-3.55,-3.55,-3.55,-3.55,-3.55,-3.55,-3.5481,-3.5462,-3.5462,-3.4815,-3.4166,-3.4226,-3.3045,-3.1914,-3.1948,-3.1347,-3.081,-3.0809,-3.0798,-3.08,-3.08,-3.08,-3.0823,-3.0848,-3.0107,-2.8901,-2.7226,-2.6239,-2.5673,-2.5607,-2.5537,-2.5502,-2.5499,-2.548,-2.5449,-2.5449,-2.4641,-2.4157,-2.4157,-2.3327,-2.2863,-2.284,-2.2767,-2.2662,-2.2559,-2.2485,-2.2376,-2.2224,-2.3004,-2.3284,-2.2803,-2.307,-2.346,-2.4171,-2.4423,-2.4759,-2.5574,-2.6193,-2.6657,-2.691,-2.7628,-2.8201,-2.8201,-2.8444,-2.865,-2.8682,-2.8955,-2.9617,-3.1003,-3.1448,-3.2137,-3.3483,-3.3684,-3.3941,-3.4472,-3.4568,0.0,-3.4986,-3.5536,-3.6211,-3.7052,-3.7107,-3.7331,-3.7881,-3.79,-3.79,-3.79,-3.79,-3.7624,-3.7088,-3.657,-3.5933,-3.5192,-3.4892,-3.4463,-3.3934,-3.3908,-3.3868,-3.3829,-3.3908,-3.3959,-3.4023,-3.4269,-3.442,-3.4524,-3.4783,-3.4982,-3.5168,-3.5369,-3.5427,-3.5446,-3.5493,-3.55,-3.55,-3.55,-3.55,-3.55,-3.55,-3.55,-3.55,-3.55,-3.5276,-3.4937,-3.4421,-3.3478,-3.2565,-3.2107,-3.1337,-3.0752,-3.0788,-3.0794,-3.0796,-3.08,-3.08,-3.0822,-3.0887,-3.0169,-2.8963,-2.7226,-2.6749,-2.6314,-2.5678,-2.5587,-2.5544,-2.5503,-2.5491,-2.5503,-2.5511,-2.5221,-2.5066,-2.5066,-2.4227,-2.3752,-2.3752,-2.316,-2.3081,-2.3538,-2.3421,-2.3556,-2.3936,-2.4155,-2.4201,-2.2982,-2.3441,-2.4017,-2.4634,-2.5092,-2.5592,-2.641,-2.7013,-2.7477,-2.7767,-2.8238,-2.86,-2.86,-2.86,-2.8703,-2.9038,-2.9328,-2.9995,-3.136,-3.1824,-3.2415,-3.3435,-3.3615,-3.3967,-3.4804,-3.5176,-3.5526,-3.5866,-3.6413,-3.7088,-3.7896,-3.7933,-3.8175,-3.8689,-3.8707,-3.8707,-3.8707,-3.8707,-3.8432,-3.7918,-3.7125,-3.6479,-3.6007,-3.5349,-3.4779,-3.4278,-3.3984,-3.3829,-3.3788,-3.386,-3.3855,-3.3881,-3.4086,-3.4197,-3.4293,-3.4534,-3.4711,-3.487,-3.5207,-3.5335,-3.5369,-3.5412,-3.542,-3.5427,-3.546,-3.546,-3.5467,-3.5493,-3.55,-3.55,-3.55,-3.55,-3.536,-3.4841,-3.4104,-3.332,-3.257,-3.1741,-3.1092,-3.0825,-3.0785,-3.0794,-3.0798,-3.0799,-3.0803,-3.0864,-3.0403,-2.9549,-2.8105,-2.7399,-2.6762,-2.6162,-2.5797,-2.5579,-2.5544,-2.5513,-2.5491,-2.5499,-2.5492,-2.5507,-2.5507,-2.4969,-2.4652,-2.466,-2.408,-2.4034,-2.4509,-2.4378,-2.4499,-2.4879,-2.4772,-2.47,-2.3216,-2.3963,-2.4736,-2.4873,-2.5548,-2.6381,-2.7175,-2.7423,-2.7676,-2.8437,-2.86,-2.86,-2.86,-2.86,-2.8853,-2.9676,-3.0418,-3.1166,-3.2017,-3.2849,-3.34,-3.3422,-3.3567,-3.3974,-3.4776,-3.5634,-3.6545,-3.7477,0.0,-3.7896,-3.867,-3.8707,-3.8707,-3.8707,-3.8707,-3.8707,-3.8707,-3.8707,-3.8707,-3.8689,-3.7933,-3.7547,-3.7456,-3.5862,-3.5078,-3.4968,-3.4192,-3.3844,-3.3807,-3.3807,-3.3807,-3.382,-3.3868,-3.3934,-3.4023,-3.4221,-3.4363,-3.4561,-3.5019,-3.5209,-3.5285,-3.5293,-3.5308,-3.5315,-3.5372,-3.5386,-3.5412,-3.5486,-3.55,-3.55,-3.55,-3.55,-3.5494,-3.5496,-3.4886,-3.4098,-3.3335,-3.2531,-3.1744,-3.0931,-3.0784,-3.0792,-3.0792,-3.0796,-3.08,-3.08,-3.0845,-3.0579,-2.9707,-2.8164,-2.7106,-2.7013,-2.6201,-2.5656,-2.5607,-2.5544,-2.5503,-2.5499,-2.5503,-2.5492,-2.5492,-2.5511,-2.5507,-2.5507,-2.5433,-2.5404,-2.5398,-2.5276,-2.5134,-2.5006,-2.4879,-2.4791,-2.4014,-2.4468,-2.5046,-2.6222,-2.672,-2.7137,-2.7992,-2.8216,-2.8296,-2.8551,-2.86,-2.86,-2.86,-2.86,-2.8853,-2.9676,-2.9463,-2.9686,-3.1111,-3.1501,-3.1859,-3.2462,-3.3659,-3.4739,-3.5539,-3.6416,-3.728,0.0,-3.8315,-3.8487,-3.8689,-3.8707,-3.8707,-3.8707,-3.8707,-3.8707,-3.8707,-3.8707,-3.8707,-3.8707,-3.8487,-3.8065,-3.7492,-3.707,-3.6193,-3.5004,-3.4784,-3.4344,-3.3807,-3.3807,-3.3807,-3.382,-3.3868,-3.3908,-3.3947,-3.4099,-3.4209,-3.4316,-3.4586,-3.4841,-3.51,-3.5242,-3.53,-3.5289,-3.5315,-3.5323,-3.533,-3.5412,-3.5439,-3.5446,-3.5493,-3.55,-3.55,-3.5494,-3.4847,-3.4172,-3.4036,-3.2866,-3.1809,-3.1683,-3.1203,-3.0796,-3.0791,-3.0794,-3.0796,-3.08,-3.0803,-3.0533,-2.97,-2.9218,-2.8437,-2.7143,-2.6797,-2.636,-2.5658,-2.5582,-2.5547,-2.5506,-2.549,-2.5511,-2.5511,-2.5496,-2.5507,-2.5507,-2.5484,-2.5444,-2.5402,-2.5322,-2.5224,-2.5153,-2.5063,-2.4954,-2.436,-2.489,-2.5486,-2.6723,-2.7334,-2.7762,-2.8264,-2.8419,-2.8471,-2.8497,-2.851,-2.851,-2.851,-2.8536,-2.8941,-3.0093,-2.9926,-3.0097,-3.1347,-3.1818,-3.2089,-3.218,-3.364,-3.4975,-3.5789,-3.6633,-3.748,-3.8298,-3.8515,-3.8609,-3.8609,-3.8658,-3.8707,-3.8707,-3.8707,-3.8707,-3.8707,-3.8707,-3.8707,-3.8707,-3.8707,-3.8469,-3.8025,-3.7658,-3.678,-3.5555,0.0,-3.4546,-3.3807,-3.3807,-3.3807,-3.3788,-3.3829,-3.3873,-3.3855,-3.3934,-3.4011,-3.4099,-3.4257,-3.4487,-3.4742,-3.5028,-3.5143,-3.5176,-3.5231,-3.5254,-3.527,-3.5342,-3.5364,-3.5372,-3.5446,-3.546,-3.546,-3.5493,-3.5129,-3.4674,-3.432,-3.3244,-3.2159,-3.1545,-3.1065,-3.0774,-3.0798,-3.0807,-3.0794,-3.0796,-3.0799,-3.0645,-3.018,-2.9818,-2.9238,-2.8242,-2.7455,-2.6797,-2.6263,-2.5838,-2.5571,-2.554,-2.5518,-2.551,-2.5499,-2.5499,-2.5507,-2.5507,-2.5507,-2.5476,-2.5404,-2.5363,-2.5317,-2.5287,-2.5193,-2.5093,-2.4593,-2.5262,-2.5909,-2.681,-2.7583,-2.814,-2.8168,-2.825,-2.8327,-2.834,-2.8353,-2.8353,-2.8367,-2.8445,-2.902,-3.064,-3.0781,-3.1003,-3.1908,-3.2632,-3.2814,-3.2125,-3.3647,-3.5025,-3.5731,-3.6681,-3.7546,-3.8236,-3.8401,-3.8478,-3.8494,-3.8609,-3.8673,-3.8707,-3.8707,-3.8707,-3.8707,-3.8707,-3.8707,-3.8707,-3.8707,-3.8707,-3.8689,-3.7988,-3.7162,-3.6266,0.0,0.0,-3.3807,-3.3807,-3.3807,-3.3807,-3.3807,-3.3807,-3.3807,-3.3807,-3.3847,-3.3895,-3.4036,-3.4161,-3.4328,-3.4742,-3.4917,-3.5011,-3.5124,-3.5185,-3.5218,-3.527,-3.5293,-3.5308,-3.5372,-3.5398,-3.5405,-3.5467,-3.5493,-3.5269,-3.4533,-3.3645,-3.2575,-3.1138,-3.0766,-3.0703,-3.0789,-3.0794,-3.0788,-3.0792,-3.0796,-3.08,-3.08,-3.0201,-2.974,-2.9609,-2.8242,-2.7242,-2.7015,-2.6245,-2.5743,-2.5615,-2.5553,-2.5515,-2.5506,-2.5503,-2.5492,-2.5507,-2.5507,-2.546,-2.5406,-2.5408,-2.5406,-2.5403,-2.5274,-2.5187,-2.5242,-2.5648,-2.6033,-2.7461,-2.7805,-2.7836,-2.7996,-2.7965,-2.7947,-2.8126,-2.8154,-2.8182,-2.8214,-2.834,-2.8954,-3.0626,-2.9845,-2.9523,-3.1003,-3.1329,-3.1361,-3.1234,-3.381,-3.5641,-3.5786,-3.714,-3.808,0.0,-3.829,-3.837,-3.8415,-3.8494,-3.8593,-3.8692,-3.8707,-3.8707,-3.8707,-3.8707,-3.8707,-3.8707,-3.8707,-3.8707,-3.8707,-3.856,-3.7698,-3.6285,-3.6138,0.0,-3.3807,-3.3807,-3.3807,-3.3807,-3.3807,-3.3807,-3.3807,-3.3807,-3.382,-3.3815,-3.3908,-3.3985,-3.4136,-3.4583,-3.4781,-3.486,-3.4992,-3.511,-3.5206,-3.5218,-3.525,-3.5308,-3.5308,-3.5315,-3.533,-3.5405,-3.5412,-3.5388,-3.5308,-3.4077,-3.272,-3.1792,-3.1067,-3.0637,-3.0703,-3.073,-3.0735,-3.0789,-3.0794,-3.0796,-3.08,-3.0728,-3.0401,-2.968,-2.9333,-2.8574,-2.7127,-2.6843,-2.6454,-2.5724,-2.562,-2.5559,-2.5489,-2.5494,-2.5503,-2.5507,-2.5507,-2.5488,-2.5484,-2.548,-2.5448,-2.5408,-2.5378,-2.5327,-2.4823,-2.5055,-2.5323,-2.6806,-2.7046,-2.7046,-2.7572,-2.7677,-2.7674,-2.7766,-2.781,-2.7868,-2.7936,-2.8109,-2.8796,-3.0474,-3.0178,-3.017,-3.1386,-3.1924,-3.2047,-3.1673,-3.4099,-3.5804,-3.5804,-3.725,-3.8209,-3.8209,-3.8242,-3.829,-3.8336,-3.843,-3.8525,-3.859,-3.8658,-3.8707,-3.8707,-3.8707,-3.8707,-3.8707,-3.8707,-3.8707,-3.8707,-3.8707,-3.8046,-3.6905,-3.6468,0.0,-3.438,-3.3972,-3.3807,-3.3807,-3.3807,-3.3807,-3.3807,-3.3807,-3.3807,-3.3788,-3.3847,-3.3895,-3.3985,-3.4245,-3.4454,-3.4609,-3.4802,-3.4917,-3.502,-3.5162,-3.5223,-3.5256,-3.5281,-3.5297,-3.5304,-3.535,-3.5372,-3.5285,-3.4904,-3.3853,-3.2758,-3.1915,-3.1096,-3.0574,-3.0637,-3.0685,-3.0706,-3.0739,-3.0781,-3.0794,-3.0796,-3.0822,-3.0709,-3.0321,-2.9876,-2.9255,-2.8418,-2.7518,-2.6826,-2.6398,-2.589,-2.5593,-2.5543,-2.5527,-2.5491,-2.5503,-2.5496,-2.5507,-2.5507,-2.5507,-2.5484,-2.5456,-2.5417,-2.5382,-2.4311,-2.4393,-2.4616,-2.603,-2.6268,-2.6372,-2.7168,-2.7373,-2.7404,-2.7419,-2.7465,-2.7524,-2.7612,-2.7821,-2.8486,-3.0024,-3.0402,-3.0787,-3.1683,-3.2519,-3.282,-3.2242,-3.432,-3.5804,-3.5804,-3.725,-3.8209,-3.8209,-3.8209,0.0,-3.8307,-3.8401,-3.8478,-3.851,-3.8609,-3.8673,-3.8707,-3.8707,-3.8707,-3.8707,-3.8707,-3.8707,-3.8707,-3.8707,-3.8267,-3.7456,-3.6652,0.0,0.0,-3.4137,-3.3807,-3.3807,-3.3807,-3.3807,-3.3807,-3.3807,-3.3807,-3.3807,-3.3807,-3.3829,-3.3881,-3.3934,-3.4136,-3.4397,-3.4599,-3.4713,-3.4841,-3.5084,-3.5183,-3.5217,-3.5253,-3.5277,-3.5285,-3.5304,-3.5342,-3.5213,-3.4583,-3.3808,-3.2986,-3.2124,-3.1306,-3.0724,-3.0595,-3.063,-3.0688,-3.0698,-3.0739,-3.0785,-3.0792,-3.0796,-3.0821,-3.0866,-3.0261,-2.9795,-2.9606,-2.8339,-2.7479,-2.7295,-2.6409,-2.5883,-2.5873,-2.5657,-2.5517,-2.549,-2.5507,-2.5496,-2.5496,-2.5492,-2.5507,-2.5507,-2.5452,-2.5417,-2.4268,-2.435,-2.4546,-2.5955,-2.615,-2.6207,-2.6963,-2.7087,-2.7072,-2.7119,-2.7151,-2.7198,-2.7404,-2.7557,-2.7999,-2.9063,-2.9336,-2.9769,-3.0711,-3.1618,-3.2191,-3.2134,-3.4289,-3.5804,-3.5804,-3.725,-3.8209,-3.8209,-3.8209,0.0,-3.8307,-3.8323,-3.8368,-3.851,-3.851,-3.8575,-3.8707,-3.8707,-3.8707,-3.8707,-3.8707,-3.8707,-3.8707,-3.8707,-3.8267,-3.7456,-3.6652,0.0,0.0,-3.4137,-3.3807,-3.3807,-3.3807,-3.3807,-3.3807,-3.3807,-3.3807,-3.3807,-3.3807,-3.3788,-3.382,-3.382,-3.3998,-3.4257,-3.4461,-3.4618,-3.4753,-3.4955,-3.512,-3.5189,-3.522,-3.5209,-3.5226,-3.5285,-3.5304,-3.5304,-3.529,-3.4613,-3.3762,-3.2949,-3.2139,-3.135,-3.0631,-3.0558,-3.063,-3.0694,-3.0703,-3.0733,-3.0789,-3.0794,-3.0795,-3.0801,-3.0743,-3.0394,-2.9658,-2.9447,-2.9022,-2.8222,-2.7354,-2.6845,-2.6773,-2.6009,-2.5562,-2.5496,-2.5498,-2.5495,-2.5495,-2.5499,-2.5507,-2.5507,-2.5488,-2.5456,-2.35,-2.3487,-2.3589,-2.4552,-2.494,-2.5275,-2.6041,-2.6519,-2.6825,-2.6841,-2.6908,-2.7024,-2.7137,-2.7279,-2.766,-2.858,-2.9261,-2.9998,-3.0931,-3.1869,-3.2511,-3.2639,-3.4405,-3.564,-3.5738,-3.7166,-3.8105,-3.8192,-3.8209,0.0,-3.8241,-3.8274,-3.8322,-3.8387,-3.8415,-3.8481,-3.853,-3.8559,-3.8575,-3.8575,-3.8658,-3.8707,-3.8707,-3.8707,-3.8524,-3.8138,-3.6853,0.0,0.0,-3.4357,-3.3807,-3.3807,-3.3807,-3.3807,-3.3807,-3.3807,-3.3807,-3.3807,-3.3807,-3.3807,-3.3807,-3.3807,-3.3868,-3.3998,-3.4245,-3.442,-3.4567,-3.4812,-3.4945,-3.5038,-3.5162,-3.5204,-3.5218,-3.5277,-3.53,-3.5304,-3.5323,-3.4688,-3.3864,-3.307,-3.225,-3.142,-3.0593,-3.0496,-3.0558,-3.0634,-3.0678,-3.0706,-3.0735,-3.078,-3.0794,-3.0796,-3.0799,-3.0665,-3.0355,-2.9872,-2.9447,-2.91,-2.826,-2.7763,-2.7734,-2.6878,-2.6376,-2.634,-2.5828,-2.5541,-2.5501,-2.5499,-2.5499,-2.5507,-2.5507,-2.5484,-2.3022,-2.2893,-2.3002,-2.3877,-2.4311,-2.4777,-2.571,-2.6336,-2.6691,-2.6691,-2.6792,-2.6876,-2.6942,-2.7039,-2.7322,-2.7985,-2.9049,-3.0031,-3.0753,-3.1884,-3.2703,-3.2882,-3.4424,-3.5526,-3.569,-3.7131,-3.8105,-3.8192,-3.8209,0.0,-3.8209,-3.8241,-3.8274,-3.8307,-3.8354,-3.8385,-3.8399,-3.8446,-3.8478,-3.851,-3.8609,-3.8658,-3.8707,-3.8707,-3.8707,-3.8615,0.0,0.0,0.0,-3.4486,-3.3807,-3.3807,-3.3807,-3.3807,-3.3807,-3.3807,-3.3807,-3.3807,-3.3807,-3.3807,-3.3807,-3.3807,-3.3807,-3.3829,-3.4049,-3.4221,-3.4397,-3.467,-3.4821,-3.4964,-3.5147,-3.5206,-3.522,-3.5261,-3.5269,-3.5285,-3.5304,-3.4855,-3.4213,-3.3414,-3.2589,-3.1751,-3.0904,-3.059,-3.0451,-3.054,-3.0607,-3.0652,-3.0689,-3.0735,-3.078,-3.0804,-3.0794,-3.0799,-3.08,-3.0278,-2.9969,-2.9973,-2.9179,-2.8671,-2.8689,-2.7792,-2.73,-2.7289,-2.6683,-2.6212,-2.591,-2.5883,-2.5758,-2.5519,-2.5751,-2.5998,-2.3072,-2.2855,-2.3127,-2.4462,-2.469,-2.4976,-2.6369,-2.6691,-2.6691,-2.6691,-2.6691,-2.6742,-2.6893,-2.6893,-2.6942,-2.7086,-2.8456,-2.9574,-2.9792,-3.1371,-3.2539,-3.2685,-3.4309,-3.5476,-3.569,-3.7217,-3.8209,-3.8209,0.0,0.0,-3.8209,-3.8209,-3.8242,-3.8307,-3.8307,-3.8338,-3.8399,-3.8399,-3.843,-3.851,-3.851,-3.8575,-3.8707,-3.8707,-3.8707,0.0,0.0,0.0,0.0,-3.4486,-3.3807,-3.3807,-3.3807,-3.3807,-3.3807,-3.3807,-3.3807,-3.3807,-3.3807,-3.3807,-3.3807,-3.3807,-3.3807,-3.3802,-3.3881,-3.4049,-3.4257,-3.4528,-3.4791,-3.502,-3.5174,-3.52,-3.5189,-3.5193,-3.5209,-3.5218,-3.5277,-3.5293,-3.5051,-3.4242,-3.3379,-3.2529,-3.1724,-3.0874,-3.0321,-3.0392,-3.0448,-3.0546,-3.0685,-3.0706,-3.0738,-3.08,-3.0801,-3.0795,-3.08,-3.0781,-3.0823,-3.0888,-3.0071,-2.9586,-2.959,-2.8747,-2.8251,-2.8181,-2.8188,-2.7741,-2.6896,-2.6822,-2.6336,-2.5515,-2.6374,-2.7218,-2.3498,-2.3402,-2.3453,-2.3876,-2.4647,-2.5405,-2.5845,-2.6336,-2.6691,-2.6691,-2.6691,-2.6708,-2.6758,-2.6758,-2.6775,-2.6808,-2.8186,-2.9299,-2.9506,-3.1081,-3.2318,-3.254,-3.4274,-3.5939,-3.7105,0.0,-3.8209,-3.8209,0.0,0.0,-3.8209,-3.8209,-3.8209,-3.8242,-3.8242,-3.8241,-3.8256,-3.8305,-3.8338,-3.837,-3.8417,-3.8446,-3.8496,-3.8496,0.0,0.0,0.0,0.0,0.0,-3.444,-3.3807,-3.3807,-3.3807,-3.3807,-3.3807,-3.3807,-3.3807,-3.3807,-3.3807,-3.3807,-3.3807,-3.3807,-3.3807,-3.3788,-3.3834,-3.3934,-3.4124,-3.4393,-3.4628,-3.4821,-3.4889,-3.5066,-3.52,-3.5198,-3.5204,-3.5209,-3.5226,-3.5269,-3.5044,-3.419,-3.3856,-3.3245,-3.1839,-3.1366,-3.0996,-3.0423,-3.0381,-3.0458,-3.0546,-3.0648,-3.0706,-3.0735,-3.0761,-3.0799,-3.0794,-3.0799,-3.0801,-3.0823,-3.0614,-3.048,-3.0482,-2.9648,-2.9179,-2.9156,-2.8561,-2.8112,-2.7788,-2.7763,-2.7598,-2.7288,-2.7563,-2.8128,-2.4118,-2.402,-2.4045,-2.4317,-2.4993,-2.566,-2.5947,-2.637,-2.6691,-2.6691,-2.6691,-2.6691,-2.6691,-2.6691,-2.6793,-2.708,-2.8216,-2.9223,-2.971,-3.1042,-3.2353,-3.3335,-3.4633,-3.6085,0.0,-3.7986,-3.8089,0.0,0.0,0.0,-3.8209,-3.8157,-3.8122,-3.8122,-3.8174,-3.8209,-3.8209,-3.8241,-3.8274,-3.8307,-3.8354,-3.8385,-3.8399,-3.8399,0.0,0.0,0.0,0.0,0.0,-3.4284,-3.378,-3.3807,-3.3807,-3.3807,-3.3807,-3.3807,-3.3807,-3.3807,-3.3807,-3.3807,-3.3807,-3.3807,-3.3807,-3.3807,-3.3807,-3.3895,-3.4049,-3.4257,-3.4446,-3.462,-3.4733,-3.4889,-3.5075,-3.5183,-3.5198,-3.5204,-3.5201,-3.5226,-3.5089,-3.4572,-3.4232,-3.3719,-3.2697,-3.1969,-3.1351,-3.0836,-3.0521,-3.0398,-3.0451,-3.0552,-3.0626,-3.0669,-3.0712,-3.0765,-3.0751,-3.0789,-3.0799,-3.08,-3.0844,-3.0865,-3.0865,-3.0365,-3.0076,-3.0058,-2.9511,-2.9055,-2.8684,-2.8359,-2.8329,-2.8592,-2.8555,-2.9007,0.0,-2.4766,-2.484,-2.5518,-2.5691,-2.5862,-2.6539,-2.6691,0.0,-2.6691,-2.6691,-2.6691,-2.6691,-2.6742,-2.6996,-2.7689,-2.8518,-2.9388,-3.0252,-3.1207,-3.2592,-3.4712,-3.5188,-3.5967,-3.7524,-3.7793,-3.7898,0.0,0.0,0.0,-3.8175,-3.8036,-3.7984,-3.7984,-3.8088,-3.8175,-3.8192,-3.8192,-3.8224,-3.829,-3.829,-3.8322,-3.8366,-3.8366,0.0,0.0,0.0,0.0,0.0,-3.4014,-3.3739,-3.3775,-3.3775,-3.3775,-3.3775,-3.3793,-3.3793,-3.3775,-3.3775,-3.3807,-3.3807,-3.3807,-3.3807,-3.3807,-3.3807,-3.3881,-3.4011,-3.4148,-3.4281,-3.442,-3.463,-3.4733,-3.4851,-3.512,-3.5183,-3.5181,-3.5193,-3.5201,-3.5201,-3.5201,-3.4598,-3.4071,-3.4014,-3.2611,-3.1491,-3.1496,-3.0803,-3.0331,-3.0386,-3.0453,-3.053,-3.0586,-3.0645,-3.0685,-3.07,-3.0751,-3.0794,-3.08,-3.08,-3.08,-3.08,-3.0865,-3.087,-3.0816,-3.082,-3.0409,-2.9582,-2.8785,-2.8778,-2.9499,-2.9423,-2.983,-2.6284,0.0,-2.5405,-2.5574,-2.6048,-2.6488,0.0,-2.6691,-2.6691,-2.6691,-2.6691,-2.6691,-2.6691,-2.7165,-2.7604,-2.7773,-2.8939,-2.9942,-3.0209,-3.1191,-3.2557,-3.4403,-3.4799,-3.558,-3.7231,-3.7467,0.0,0.0,0.0,-3.7828,-3.7951,-3.7845,-3.7774,-3.7774,-3.7757,-3.7828,-3.8053,-3.8053,-3.8105,-3.8207,-3.8207,-3.8172,-3.8103,-3.8103,0.0,0.0,0.0,0.0,-3.4624,-3.3905,-3.3657,-3.3726,-3.3726,-3.3726,-3.3712,-3.3657,-3.3671,-3.3726,-3.3726,-3.3766,-3.3807,-3.3807,-3.3807,-3.3807,-3.3807,-3.3815,-3.3855,-3.3947,-3.4074,-3.4209,-3.4363,-3.4553,-3.474,-3.487,-3.4964,-3.5075,-3.5181,-3.5198,-3.5206,-3.5201,-3.5057,-3.4713,-3.4109,-3.3108,-3.2164,-3.151,-3.0736,-3.0241,-3.0305,-3.0373,-3.0447,-3.0525,-3.0572,-3.0638,-3.0701,-3.0752,-3.0806,-3.0794,-3.0799,-3.08,-3.08,-3.0822,-3.0845,-3.0889,-3.0876,-3.0742,-3.0486,-3.0295,-3.0285,-3.0475,-3.0409,-3.0455,-2.6691,-2.6404,-2.6099,-2.6099,-2.6404,-2.6691,-2.6691,-2.6691,-2.6691,-2.6691,-2.6691,-2.6793,-2.7148,-2.7536,-2.8027,-2.8737,-2.9548,-3.0247,-3.0721,-3.1414,-3.2483,-3.4161,-3.4486,-3.5194,0.0,0.0,0.0,0.0,0.0,-3.7577,-3.7739,-3.7613,-3.7522,-3.7522,-3.7392,-3.7503,-3.7862,-3.7862,-3.7933,-3.8055,-3.8055,-3.8021,-3.795,-3.7537,-3.6892,0.0,0.0,0.0,-3.3885,-3.3615,-3.3549,-3.3619,-3.3629,-3.3643,-3.3643,-3.3601,-3.3615,-3.3657,-3.3684,-3.3739,-3.3775,-3.3766,-3.378,-3.3775,-3.3766,-3.378,-3.382,-3.3842,-3.3934,-3.4036,-3.4173,-3.4351,-3.4561,-3.472,-3.4821,-3.4945,-3.5075,-3.5155,-3.5208,-3.5196,-3.5193,-3.5057,-3.4636,-3.3853,-3.3005,-3.2126,-3.13,-3.0679,-3.0297,-3.0286,-3.0323,-3.0394,-3.0465,-3.054,-3.0606,-3.0678,-3.0721,-3.0798,-3.0791,-3.0798,-3.0798,-3.0799,-3.0822,-3.0845,-3.0871,-3.0877,-3.0801,-3.0798,-3.0805,-3.0792,-3.0738,-3.0671,-2.6691,-2.6691,-2.6691,-2.6691,-2.6691,-2.6691,-2.6691,-2.6691,-2.6691,-2.6691,-2.6793,-2.7063,-2.7689,-2.7993,-2.8584,-2.9886,-3.0192,-3.0554,-3.1357,-3.1614,-3.2333,-3.393,-3.4164,0.0,-3.6394,0.0,0.0,0.0,0.0,-3.7259,-3.7448,-3.7278,-3.7182,-3.7182,-3.6989,-3.7089,-3.7522,-3.7577,-3.7685,-3.781,-3.781,-3.7756,-3.7595,-3.6844,-3.5987,0.0,0.0,0.0,-3.3024,-3.3244,-3.3378,-3.3448,-3.352,-3.3549,-3.3549,-3.3549,-3.3563,-3.3577,-3.3675,-3.3726,-3.3766,-3.3698,-3.3726,-3.3766,-3.3698,-3.3726,-3.3793,-3.3793,-3.3829,-3.3908,-3.4036,-3.4161,-3.4316,-3.4561,-3.467,-3.4782,-3.4917,-3.5057,-3.5147,-3.5174,-3.5179,-3.5185,-3.5185,-3.4525,-3.3692,-3.2825,-3.1992,-3.1178,-3.03,-3.0206,-3.0221,-3.0279,-3.0342,-3.0417,-3.0471,-3.0548,-3.0648,-3.0755,-3.0792,-3.0807,-3.0792,-3.0798,-3.08,-3.08,-3.0864,-3.085,-3.0816,-3.08,-3.08,-3.0806,-3.0746,-3.0728,-2.6691,-2.6691,-2.6691,-2.6691,-2.6691,-2.6691,-2.6691,-2.6691,-2.6691,-2.6691,-2.7199,-2.7672,-2.779,-2.8872,-2.9818,-3.0055,-3.0632,-3.1094,-3.1295,-3.137,-3.1974,-3.3593,0.0,-3.4446,0.0,0.0,0.0,0.0,0.0,-3.667,-3.6736,-3.667,-3.6609,-3.6609,-3.6468,-3.6489,-3.669,-3.7031,-3.7281,-3.7468,-3.7468,-3.7093,-3.6362,-3.6182,-3.5223,0.0,0.0,-3.3178,-3.2607,-3.2868,-3.3057,-3.3162,-3.3289,-3.3352,-3.3352,-3.3352,-3.3364,-3.3452,-3.3577,-3.3615,-3.3633,-3.3633,-3.3615,-3.3633,-3.3633,-3.3657,-3.3712,-3.3712,-3.3766,-3.3829,-3.3908,-3.3985,-3.4086,-3.4245,-3.4374,-3.4509,-3.4708,-3.4811,-3.4889,-3.5011,-3.5084,-3.511,-3.511,-3.444,-3.3625,-3.2759,-3.1932,-3.1121,-3.03,-3.0192,-3.0206,-3.0214,-3.0286,-3.0336,-3.0421,-3.0471,-3.0549,-3.0637,-3.0745,-3.0806,-3.0792,-3.0798,-3.08,-3.08,-3.0801,-3.0845,-3.0889,-3.0835,-3.08,-3.08,-3.0793,-3.0774,-2.6691,-2.6691,-2.6691,-2.6691,-2.6691,-2.6691,-2.6691,-2.6691,-2.681,-2.7198,-2.7553,-2.8043,-2.8889,-2.9616,-3.0243,-3.0632,-3.097,-3.121,-3.1232,-3.1252,-3.1831,0.0,0.0,-3.4151,0.0,0.0,0.0,0.0,0.0,0.0,-3.643,-3.6381,-3.6335,-3.6335,-3.6212,-3.617,-3.6233,-3.6406,-3.6655,-3.6974,-3.6974,-3.6552,-3.5759,-3.5259,-3.436,-3.3205,0.0,-3.2458,-3.2301,-3.2574,-3.2737,-3.285,-3.3011,-3.3091,-3.3091,-3.3122,-3.3244,-3.3408,-3.3466,-3.3534,-3.3591,-3.3549,-3.3577,-3.3591,-3.3549,-3.3591,-3.3661,-3.3661,-3.3726,-3.382,-3.3847,-3.3895,-3.3972,-3.4074,-3.4197,-3.4328,-3.4506,-3.4626,-3.473,-3.483,-3.4889,-3.4945,-3.4992,-3.4715,-3.4226,-3.3419,-3.2595,-3.176,-3.0942,-3.0472,-3.0192,-3.0206,-3.024,-3.0254,-3.028,-3.034,-3.0467,-3.0638,-3.0719,-3.0767,-3.0796,-3.0791,-3.0796,-3.0796,-3.0799,-3.0822,-3.0844,-3.0827,-3.0794,-3.08,-3.0801,-3.0797,-2.6691,-2.6691,-2.6691,-2.6691,-2.6691,-2.6691,-2.6691,-2.6691,-2.6911,-2.7655,-2.7942,-2.8483,-2.9835,-3.0243,-3.0548,-3.1106,-3.119,-3.119,-3.119,-3.119,-3.1749,-3.3237,-3.3406,0.0,0.0,0.0,0.0,0.0,0.0,0.0,-3.6131,-3.6084,-3.6058,-3.6058,-3.5954,-3.5825,-3.5637,-3.5637,-3.5852,-3.6232,-3.6232,-3.5749,-3.4831,-3.4142,-3.341,-3.265,-3.2025,-3.1839,-3.1965,-3.2232,-3.2387,-3.2454,-3.2655,-3.277,-3.2836,-3.2884,-3.3091,-3.3304,-3.3304,-3.3408,-3.352,-3.3466,-3.3509,-3.3534,-3.3477,-3.352,-3.3577,-3.3577,-3.3657,-3.3753,-3.3753,-3.3788,-3.3855,-3.3908,-3.4036,-3.4161,-3.4281,-3.4397,-3.4528,-3.4583,-3.4649,-3.4732,-3.4792,-3.487,-3.468,-3.3942,-3.3111,-3.2297,-3.1493,-3.0686,-3.0178,-3.0204,-3.0206,-3.02,-3.0207,-3.0254,-3.0384,-3.0622,-3.0656,-3.0717,-3.0762,-3.079,-3.0804,-3.0809,-3.0796,-3.0799,-3.08,-3.08,-3.0806,-3.0794,-3.0817,-3.082,-2.6691,-2.6691,-2.6691,-2.6691,-2.6691,-2.6691,-2.6691,-2.6691,-2.6911,-2.7655,-2.8399,-2.9162,-2.9956,-3.0666,-3.114,-3.119,-3.119,-3.119,-3.119,0.0,-3.1749,-3.3237,-3.3406,0.0,0.0,0.0,0.0,0.0,0.0,0.0,-3.5644,-3.5644,-3.5644,-3.5644,-3.5644,-3.5306,-3.4617,-3.4617,-3.4789,-3.5125,-3.5125,-3.4372,-3.2999,-3.2796,-3.2234,-3.1438,-3.137,-3.1408,-3.1574,-3.1763,-3.1893,-3.1966,-3.2161,-3.2387,-3.2622,-3.2639,-3.2786,-3.3044,-3.3044,-3.3152,-3.3307,-3.3325,-3.3367,-3.3408,-3.3408,-3.3452,-3.3509,-3.3509,-3.3563,-3.3601,-3.3601,-3.3657,-3.3712,-3.3726,-3.3815,-3.3934,-3.4011,-3.4136,-3.4245,-3.4316,-3.4374,-3.4443,-3.4517,-3.4645,-3.4466,-3.3734,-3.3002,-3.2243,-3.1504,-3.0643,-3.0123,-3.0185,-3.0192,-3.0199,-3.0207,-3.0247,-3.033,-3.0427,-3.0548,-3.0648,-3.0701,-3.0764,-3.0798,-3.0799,-3.0809,-3.0796,-3.08,-3.08,-3.0801,-3.0803,-3.0867,-3.0853,-2.6691,-2.6691,-2.6691,-2.6691,-2.6691,-2.6691,-2.6691,-2.7063,-2.7621,-2.8383,-2.9144,-2.9905,-3.0649,-3.1004,-3.119,-3.119,-3.119,-3.119,-3.119,-3.119,-3.1579,-3.2594,0.0,0.0,0.0,0.0,0.0,0.0,0.0,0.0,0.0,-3.56,-3.538,-3.4928,-3.4912,-3.4556,-3.3829,-3.3829,-3.3639,-3.3325,-3.3781,-3.3478,-3.2494,-3.2434,-3.1987,-3.1232,-3.1232,-3.1291,-3.1387,-3.1557,-3.1653,-3.1728,-3.1893,-3.2037,-3.2179,-3.2266,-3.2473,-3.2706,-3.2768,-3.2963,-3.3122,-3.3168,-3.318,-3.3211,-3.3211,-3.3289,-3.3382,-3.3382,-3.3422,-3.3477,-3.3577,-3.3633,-3.3647,-3.3647,-3.3712,-3.3775,-3.3855,-3.3947,-3.4036,-3.4099,-3.4173,-3.4233,-3.4305,-3.4409,-3.4449,-3.4314,-3.3668,-3.2908,-3.2186,-3.1405,-3.0719,-3.018,-3.0171,-3.0192,-3.0206,-3.0214,-3.0247,-3.0267,-3.0441,-3.0576,-3.0645,-3.0691,-3.0737,-3.0747,-3.0786,-3.0803,-3.0796,-3.0268,-3.027,-3.0781,-3.0316,-3.0358,-2.6708,-2.6691,-2.6691,-2.6691,-2.6691,-2.6759,-2.6996,-2.7435,-2.8094,-2.9127,-2.9922,-3.0598,-3.1106,-3.119,-3.119,-3.119,-3.119,-3.119,-3.119,-3.119,-3.1461,0.0,0.0,0.0,0.0,0.0,0.0,0.0,0.0,0.0,0.0,-3.5245,-3.4912,-3.4167,-3.415,-3.3795,-3.3051,-3.3051,-3.2679,-3.1955,-3.2459,-3.2442,-3.1955,-3.1955,-3.1684,-3.119,-3.119,-3.123,-3.1274,-3.1366,-3.1426,-3.1506,-3.1615,-3.171,-3.182,-3.1912,-3.2108,-3.2318,-3.2471,-3.2655,-3.2852,-3.2914,-3.2993,-3.3024,-3.3024,-3.3122,-3.3216,-3.3216,-3.3292,-3.3396,-3.3481,-3.3534,-3.3577,-3.3577,-3.3633,-3.3684,-3.3753,-3.3788,-3.3873,-3.3921,-3.3972,-3.4023,-3.4099,-3.4197,-3.4328,-3.4517,-3.393,-3.3307,-3.2844,-3.1927,-3.0993,-3.0189,-3.013,-3.0171,-3.0204,-3.0206,-3.02,-3.02,-3.0342,-3.0449,-3.0535,-3.0602,-3.0644,-3.0668,-3.0723,-3.0774,-3.0799,-2.9925,-2.9815,-3.0368,-2.9551,-2.963,-2.6742,-2.6691,-2.6691,-2.6691,-2.6691,-2.6894,-2.7638,-2.7824,-2.8246,-2.9785,-3.0683,-3.119,-3.119,-3.119,-3.119,-3.119,-3.119,-3.119,-3.119,-3.119,0.0,0.0,0.0,0.0,0.0,0.0,0.0,0.0,0.0,0.0,0.0,-3.4472,-3.415,-3.3423,-3.3389,-3.3034,-3.2293,-3.2293,-3.1921,-3.119,-3.119,-3.119,-3.119,-3.119,-3.119,-3.119,-3.119,-3.119,-3.119,-3.119,-3.1232,-3.1295,-3.1295,-3.1411,-3.1598,-3.1598,-3.1711,-3.193,-3.2055,-3.2266,-3.2524,-3.2573,-3.2721,-3.29,-3.29,-3.2932,-3.3013,-3.3013,-3.3137,-3.331,-3.331,-3.3393,-3.3509,-3.3509,-3.3549,-3.3619,-3.3684,-3.3698,-3.3726,-3.3793,-3.3807,-3.3815,-3.3881,-3.3947,-3.4049,-3.4173,-3.3622,-3.3253,-3.3377,-3.2053,-3.0844,-3.0182,-3.0101,-3.0123,-3.0185,-3.0211,-3.0211,-3.0211,-3.0194,-3.026,-3.0398,-3.0469,-3.053,-3.0602,-3.0664,-3.0736,-3.0799,-2.9926,-2.9492,-2.9484,-2.867,-2.8752,-2.6842,-2.6758,-2.6691,-2.6691,-2.6691,-2.7029,-2.8349,-2.8636,-2.9059,-3.0565,-3.1055,-3.119,-3.119,-3.119,-3.119,-3.119,-3.119,-3.119,-3.119,-3.119,0.0,0.0,0.0,0.0,0.0,0.0,0.0,0.0,0.0,0.0,0.0,-3.3728,-3.3389,0.0,-3.2632,-3.2276,-3.1532,-3.1532,-3.141,-3.119,-3.119,-3.119,-3.119,-3.119,-3.119,-3.119,-3.119,-3.119,-3.119,-3.119,-3.121,-3.1232,-3.1232,-3.1269,-3.131,-3.137,-3.1502,-3.1634,-3.1837,-3.1983,-3.2091,-3.2162,-3.2214,-3.2283,-3.2387,-3.2523,-3.2673,-3.2752,-3.293,-3.3122,-3.3262,-3.3322,-3.3367,-3.3408,-3.3481,-3.3534,-3.3549,-3.3605,-3.3643,-3.3712,-3.3726,-3.3753,-3.382,-3.3881,-3.3959,-3.4049,-3.3969,-3.3575,-3.2661,-3.1713,-3.0837,-3.0106,-3.0072,-3.0109,-3.0123,-3.0171,-3.0211,-3.0211,-3.0199,-3.024,-3.0337,-3.039,-3.0463,-3.053,-3.0608,-3.0653,-3.0736,-2.9284,-2.8903,-2.9473,-2.8058,-2.8183,-2.6909,-2.6842,-2.6758,-2.6708,-2.6691,-2.7097,-2.8654,-2.945,-3.0144,-3.1004,-3.119,-3.119,-3.119,-3.119,-3.119,-3.119,-3.119,-3.119,-3.119,0.0,0.0,0.0,0.0,0.0,0.0,0.0,0.0,0.0,0.0,0.0,0.0,-3.2949,-3.2628,0.0,-3.187,-3.1667,-3.119,-3.119,-3.119,-3.119,-3.119,-3.119,-3.119,-3.119,-3.119,-3.119,-3.119,-3.119,-3.119,-3.119,-3.119,-3.119,-3.119,-3.119,-3.121,-3.1252,-3.131,-3.1404,-3.1559,-3.1654,-3.1747,-3.1804,-3.1877,-3.193,-3.2019,-3.2144,-3.2284,-3.242,-3.2622,-3.2836,-3.3011,-3.3122,-3.3232,-3.3367,-3.3422,-3.3466,-3.3477,-3.3534,-3.3577,-3.3661,-3.3657,-3.3671,-3.3753,-3.3775,-3.3842,-3.3908,-3.4036,-3.3621,-3.2224,-3.1692,-3.1016,-2.9988,-2.9964,-3.0026,-3.0057,-3.0109,-3.0164,-3.0164,-3.0197,-3.0225,-3.0266,-3.0299,-3.0342,-3.0411,-3.049,-3.0549,-3.0618,-2.9282,-2.8763,-2.8944,-2.7594,-2.7548,-2.6958,-2.6909,-2.6859,-2.6742,-2.6809,-2.7283,-2.8688,-3.0144,-3.119,-3.119,-3.119,-3.119,-3.119,-3.119,-3.119,-3.119,-3.119,-3.119,-3.119,0.0,0.0,0.0,0.0,0.0,0.0,0.0,0.0,0.0,0.0,0.0,0.0,-3.2209,0.0,-3.1207,-3.119,-3.119,-3.119,-3.119,-3.119,0.0,-3.119,-3.119,-3.119,-3.119,-3.119,-3.119,-3.119,-3.119,-3.119,-3.119,-3.119,-3.119,-3.119,-3.119,-3.119,-3.119,-3.119,-3.121,-3.1274,-3.1368,-3.1479,-3.154,-3.1653,-3.1744,-3.1746,-3.1819,-3.1893,-3.2037,-3.2249,-3.2489,-3.2636,-3.2834,-3.3042,-3.3304,-3.3364,-3.3408,-3.3481,-3.3495,-3.3506,-3.3577,-3.3591,-3.3601,-3.3671,-3.3684,-3.3712,-3.378,-3.3908,-3.3451,-3.1978,-3.1849,-3.1316,-2.9841,-2.9798,-2.9901,-2.9983,-3.0049,-3.0094,-3.0094,-3.0157,-3.0185,-3.0185,-3.0194,-3.0227,-3.0286,-3.0362,-3.0417,-3.0487,-2.9678,-2.8951,-2.8276,-2.7329,-2.6965,-2.7054,-2.6991,-2.6893,-2.6859,-2.7691,-2.8587,-2.8925,-3.0144,-3.119,-3.119,-3.119,-3.119,-3.119,-3.119,-3.119,-3.119,-3.119,-3.119,-3.119,0.0,0.0,0.0,0.0,0.0,0.0,0.0,0.0,0.0,0.0,0.0,-3.1464,0.0,0.0,-3.1207,-3.119,-3.119,-3.119,-3.119,-3.119,0.0,-3.119,-3.119,-3.119,-3.119,-3.119,-3.119,-3.119,-3.119,-3.119,-3.119,-3.119,-3.119,-3.119,-3.119,-3.119,-3.119,-3.119,-3.121,-3.123,-3.1249,-3.1286,-3.1288,-3.1308,-3.1346,-3.1389,-3.1502,-3.1632,-3.1818,-3.2019,-3.2232,-3.2489,-3.2638,-3.2816,-3.3026,-3.3216,-3.3337,-3.3411,-3.3408,-3.3437,-3.3506,-3.352,-3.3534,-3.3619,-3.3633,-3.3629,-3.3712,-3.3847,-3.3375,-3.1843,-3.1744,-3.1246,-2.97,-2.9654,-2.978,-2.9842,-2.9948,-3.0011,-3.0011,-3.0079,-3.0116,-3.0116,-3.0178,-3.0213,-3.0221,-3.0286,-3.0349,-3.0425,-2.9612,-2.9165,-2.9024,-2.7517,-2.7211,-2.7119,-2.7038,-2.6991,-2.6926,-2.7962,-2.8993,-2.8993,-3.0144,-3.119,-3.119,-3.119,-3.119,-3.119,-3.119,-3.119,-3.119,-3.119,-3.1171,0.0,0.0,0.0,0.0,0.0,0.0,0.0,0.0,0.0,0.0,0.0,-3.119,-3.119,-3.119,-3.119,-3.119,-3.119,-3.119,-3.119,-3.119,-3.119,-3.119,-3.119,-3.119,-3.119,-3.119,-3.119,-3.119,-3.119,-3.119,-3.119,-3.119,-3.119,-3.119,-3.119,-3.119,-3.119,-3.119,-3.119,-3.119,-3.119,-3.119,-3.119,-3.119,-3.119,-3.121,-3.1232,-3.1291,-3.1385,-3.1521,-3.1671,-3.1873,-3.209,-3.2284,-3.2471,-3.2706,-3.3028,-3.3307,-3.3337,-3.3382,-3.3408,-3.3452,-3.3452,-3.3481,-3.3534,-3.3577,-3.3615,-3.3684,-3.3766,-3.3393,-3.2225,-3.1789,-3.117,-3.0012,-2.9627,-2.9494,-2.9608,-2.9753,-2.9883,-2.9951,-3.0022,-3.0064,-3.0101,-3.0123,-3.0171,-3.0206,-3.0233,-3.0088,-2.9728,-2.9344,-2.8758,-2.7987,-2.7136,-2.6805,-2.7168,-2.7119,-2.707,-2.6925,-2.7962,-2.9011,-2.8993,-3.0144,-3.119,-3.119,-3.119,-3.119,-3.119,-3.119,-3.119,-3.119,-3.119,-3.1151,0.0,0.0,0.0,0.0,0.0,0.0,0.0,0.0,0.0,0.0,0.0,-3.1151,-3.1171,-3.1171,-3.1171,-3.119,-3.119,-3.119,-3.119,-3.119,-3.119,-3.119,-3.119,-3.119,-3.119,-3.119,-3.119,-3.119,-3.119,-3.119,-3.119,-3.119,-3.119,-3.119,-3.119,-3.119,-3.119,-3.119,-3.119,-3.119,-3.119,-3.119,-3.119,-3.119,-3.119,-3.119,-3.119,-3.119,-3.121,-3.1274,-3.1368,-3.15,-3.1688,-3.191,-3.2108,-3.237,-3.2805,-3.3186,-3.3232,-3.3322,-3.3364,-3.3364,-3.3378,-3.3408,-3.3481,-3.3534,-3.3605,-3.3675,-3.3671,-3.3405,-3.2672,-3.186,-3.1091,-3.0343,-2.9617,-2.9228,-2.9351,-2.9532,-2.969,-2.9816,-2.9918,-3.0007,-3.0064,-2.9953,-2.9913,-2.9968,-2.9975,-2.9646,-2.8976,-2.8892,-2.8157,-2.681,-2.6724,-2.632,-2.7282,-2.7184,-2.707,-2.6925,-2.7997,-2.9065,-2.9011,-3.0144,-3.119,-3.119,-3.119,-3.119,-3.119,-3.119,-3.119,-3.119,-3.119,-3.1151,0.0,0.0,0.0,0.0,0.0,0.0,0.0,0.0,0.0,0.0,-3.0932,-3.0972,-3.1015,-3.1015,-3.1092,-3.119,-3.119,-3.119,-3.119,-3.119,-3.119,-3.119,-3.119,-3.119,-3.119,-3.119,-3.119,-3.119,-3.119,-3.119,-3.119,-3.119,-3.119,-3.119,-3.119,-3.119,-3.119,-3.119,-3.119,-3.119,-3.119,-3.119,-3.119,-3.119,-3.119,-3.119,-3.119,-3.119,-3.121,-3.121,-3.1271,-3.1351,-3.15,-3.1688,-3.1893,-3.209,-3.2387,-3.2691,-3.2981,-3.3183,-3.3307,-3.3307,-3.3367,-3.3393,-3.3408,-3.3466,-3.3524,-3.352,-3.3577,-3.3327,-3.2543,-3.1722,-3.094,-3.0216,-2.9475,-2.9082,-2.9222,-2.9301,-2.9405,-2.9541,-2.9737,-2.9859,-2.9918,-2.9368,-2.906,-2.9067,-2.9076,-2.9013,-2.8912,-2.823,-2.7807,-2.7618,-2.6928,-2.6593,-2.7169,-2.7135,-2.7086,-2.6975,-2.7726,-2.8575,-2.8926,-2.982,-3.07,-3.1106,-3.119,-3.119,-3.119,-3.119,-3.119,-3.119,-3.119,-3.1151,0.0,0.0,0.0,0.0,0.0,0.0,0.0,0.0,0.0,0.0,-3.0871,-3.0912,-3.0952,-3.0975,-3.1015,-3.1092,-3.1151,-3.119,-3.119,-3.119,-3.119,-3.119,-3.119,-3.119,-3.119,-3.119,-3.119,-3.119,-3.119,-3.119,-3.119,-3.119,-3.119,-3.119,-3.119,-3.119,-3.119,-3.119,-3.119,-3.119,-3.119,-3.119,-3.119,-3.119,-3.119,-3.119,-3.119,-3.119,-3.119,-3.119,-3.123,-3.1252,-3.1308,-3.1443,-3.156,-3.1709,-3.1929,-3.2179,-3.2456,-3.2836,-3.317,-3.3277,-3.3352,-3.3393,-3.3393,-3.3422,-3.3452,-3.3477,-3.352,-3.3257,-3.2498,-3.1664,-3.0836,-3.0079,-2.9296,-2.8863,-2.8964,-2.9082,-2.9195,-2.9322,-2.9054,-2.8969,-2.9101,-2.8438,-2.8072,-2.8115,-2.8196,-2.7981,-2.7504,-2.7147,-2.6764,-2.6322,-2.597,-2.585,-2.6973,-2.7022,-2.7039,-2.6941,-2.747,-2.8185,-2.8842,-2.9567,-3.0311,-3.1055,-3.119,-3.119,-3.119,-3.119,-3.119,-3.119,-3.119,0.0,0.0,0.0,0.0,0.0,0.0,0.0,0.0,0.0,0.0,0.0,-3.0733,-3.0794,-3.0851,-3.0915,-3.0975,-3.0995,-3.1131,-3.119,-3.119,-3.119,-3.119,-3.119,-3.119,-3.119,-3.119,-3.119,-3.119,-3.119,-3.119,-3.119,-3.119,-3.119,-3.119,-3.119,-3.119,-3.119,-3.119,-3.119,-3.119,-3.119,-3.119,-3.119,-3.119,-3.119,-3.119,-3.119,-3.119,-3.119,-3.119,-3.119,-3.119,-3.119,-3.119,-3.1232,-3.1293,-3.1423,-3.1595,-3.1818,-3.2126,-3.2573,-3.2979,-3.3168,-3.3274,-3.3334,-3.3367,-3.3382,-3.3411,-3.3466,-3.3481,-3.3186,-3.2438,-3.1597,-3.077,-2.9958,-2.8978,-2.8403,-2.8464,-2.837,-2.8378,-2.8513,-2.8083,-2.7895,-2.8097,-2.7415,-2.7089,-2.7151,-2.7063,-2.6817,-2.6396,-2.6192,-2.5797,-2.5191,-2.5193,-2.5225,-2.6691,-2.6809,-2.6876,-2.6758,-2.7352,-2.8185,-2.8842,-2.9567,-3.0311,-3.1055,-3.119,-3.119,-3.119,-3.119,-3.119,-3.119,-3.119,0.0,0.0,0.0,0.0,0.0,0.0,0.0,0.0,0.0,0.0,0.0,-3.0526,-3.0589,-3.0692,-3.0831,-3.0915,-3.0995,-3.1131,-3.119,-3.119,-3.119,-3.119,-3.119,-3.119,-3.119,-3.119,-3.119,-3.119,-3.119,-3.119,-3.119,-3.119,-3.119,-3.119,-3.119,-3.119,-3.119,-3.119,-3.119,-3.119,-3.119,-3.119,-3.119,-3.119,-3.119,-3.119,-3.119,-3.119,-3.119,-3.119,-3.119,-3.119,-3.119,-3.119,-3.121,-3.1213,-3.1293,-3.1406,-3.1688,-3.2336,-3.2588,-3.2784,-3.2979,-3.3073,-3.3165,-3.3277,-3.331,-3.3322,-3.3411,-3.3411,-3.3136,-3.2303,-3.1505,-3.069,-2.9893,-2.8395,-2.7496,-2.7561,-2.6863,-2.6494,-2.6625,-2.6727,-2.6839,-2.6991,-2.641,-2.6102,-2.6166,-2.5498,-2.5552,-2.6403,-2.5632,-2.5249,-2.5191,-2.5191,-2.5189,-2.6226,-2.6383,-2.6487,-2.6349,-2.6637,-2.7161,-2.7936,-2.8341,-2.8783,-2.9617,-2.9788,-2.9922,-3.0412,-3.0886,-3.119,-3.119,-3.119,0.0,0.0,0.0,0.0,0.0,0.0,0.0,0.0,0.0,0.0,0.0,0.0,0.0,-3.0568,-3.0773,-3.0912,-3.0952,-3.1112,-3.119,-3.119,-3.119,-3.119,-3.119,-3.119,-3.119,-3.119,-3.119,-3.119,-3.119,-3.119,-3.119,-3.119,-3.119,-3.119,-3.119,-3.119,-3.119,-3.119,-3.119,-3.119,-3.119,-3.119,-3.119,-3.119,-3.119,-3.119,-3.119,-3.119,-3.119,-3.119,-3.119,-3.119,-3.119,-3.119,-3.119,-3.121,-3.1232,-3.131,-3.1447,-3.18,-3.2179,-3.2505,-3.2705,-3.2884,-3.2849,-3.2406,-3.2439,-3.2368,-3.1873,-3.1826,-3.1564,-3.0763,-3.0418,-2.973,-2.8395,-2.7731,-2.72,-2.671,-2.6401,-2.6266,-2.6373,-2.5978,-2.5807,-2.5927,-2.5309,-2.5001,-2.5081,-2.4933,-2.5099,-2.5551,-2.5278,-2.5162,-2.5191,-2.5191,-2.5197,-2.5719,-2.5885,-2.603,-2.5959,-2.6085,-2.6478,-2.7246,-2.752,-2.7848,-2.8731,-2.892,-2.909,-2.9634,-3.0125,-3.0615,-3.1106,-3.119,0.0,0.0,0.0,0.0,0.0,0.0,0.0,0.0,0.0,0.0,0.0,0.0,0.0,-3.0506,-3.0712,-3.0871,-3.0932,-3.1112,-3.119,-3.119,-3.1151,-3.1131,-3.1131,-3.1131,-3.1131,-3.1131,-3.1171,-3.119,-3.119,-3.119,-3.119,-3.119,-3.119,-3.119,-3.119,-3.119,-3.119,-3.119,-3.119,-3.1171,-3.1131,-3.1131,-3.1112,-3.1092,-3.1092,-3.1092,-3.1092,-3.1131,-3.1131,-3.1151,-3.119,-3.119,-3.119,-3.119,-3.119,-3.119,-3.119,-3.1232,-3.131,-3.1406,-3.1802,-3.2179,-3.2335,-3.2539,-3.244,-3.1749,-3.1798,-3.1667,-3.0934,-3.0906,-3.0686,-2.9872,-2.9789,-2.9186,-2.7568,-2.7152,-2.6663,-2.5878,-2.5552,-2.5411,-2.5466,-2.5019,-2.4809,-2.4939,-2.4523,-2.4348,-2.4462,-2.4615,-2.4801,-2.5005,-2.5076,-2.5119,-2.5168,-2.5185,-2.5191,0.0,0.0,0.0,-2.5567,-2.5772,-2.6173,-2.6902,-2.7197,-2.7596,-2.8461,-2.8686,-2.8779,-2.8941,-2.8959,-2.945,-3.0886,-3.114,0.0,0.0,0.0,0.0,0.0,0.0,0.0,0.0,0.0,0.0,0.0,0.0,-3.0506,-3.0506,-3.063,-3.0794,-3.0995,-3.1131,-3.119,-3.119,-3.1055,-3.0995,-3.0995,-3.0995,-3.0995,-3.0995,-3.1131,-3.119,-3.119,-3.119,-3.119,-3.119,-3.119,-3.119,-3.119,-3.119,-3.119,-3.119,-3.119,-3.1112,-3.0995,-3.0995,-3.0955,-3.0892,-3.0892,-3.0892,-3.0912,-3.0992,-3.0995,-3.1015,-3.1151,-3.119,-3.119,-3.119,-3.119,-3.119,-3.119,-3.119,-3.123,-3.1276,-3.1542,-3.1784,-3.1858,-3.2055,-3.2004,-3.1399,-3.1471,-3.138,-3.0757,-3.0776,-3.0567,-2.9773,-2.9732,-2.9156,-2.7568,-2.6663,-2.5866,-2.5081,-2.4266,-2.3795,-2.3806,-2.3847,-2.3927,-2.3996,-2.4049,-2.4192,-2.4385,-2.4462,-2.4596,-2.4791,-2.498,-2.5101,-2.5107,-2.5168,-2.521,-2.4755,0.0,0.0,0.0,0.0,0.0,-2.5942,-2.6196,-2.6518,-2.6951,-2.7142,-2.7398,-2.8009,-2.8128,-2.8467,-2.945,-3.0057,-3.0598,0.0,0.0,0.0,0.0,0.0,0.0,0.0,0.0,0.0,0.0,-3.0506,-3.0506,-3.0506,-3.063,-3.0773,-3.0932,-3.0972,-3.0992,-3.0992,-3.0952,-3.0932,-3.0932,-3.0932,-3.0932,-3.0932,-3.1032,-3.1032,-3.0992,-3.1015,-3.1032,-3.0992,-3.1052,-3.1032,-3.0992,-3.0992,-3.0992,-3.0992,-3.0992,-3.0952,-3.0932,-3.0932,-3.0912,-3.0892,-3.0892,-3.0892,-3.0912,-3.0932,-3.0932,-3.0952,-3.1015,-3.1032,-3.0992,-3.0992,-3.1032,-3.1072,-3.1072,-3.1131,-3.121,-3.1213,-3.0883,-3.0795,-3.1532,-3.1819,-3.1722,-3.1115,-3.1228,-3.0963,-2.9725,-2.9737,-2.9609,-2.8797,-2.8743,-2.8386,-2.7365,-2.6537,-2.5739,-2.4992,-2.4219,-2.38,-2.3795,-2.3816,-2.3827,-2.3847,-2.3909,-2.4008,-2.4105,-2.4275,-2.442,-2.4517,-2.4805,-2.4973,-2.5019,-2.5101,-2.5143,-2.4467,-2.4564,-2.4661,-2.4661,0.0,0.0,-2.532,-2.5602,-2.5899,0.0,-2.6294,-2.6585,-2.7092,-2.7229,-2.7499,-2.8293,-2.878,-2.934,0.0,0.0,0.0,0.0,0.0,0.0,0.0,-3.0753,-3.0651,-3.051,-3.0485,-3.0464,-3.0464,-3.0609,-3.0749,-3.0794,-3.0871,-3.0892,-3.0892,-3.0834,-3.079,-3.0733,-3.0733,-3.0712,-3.0708,-3.0814,-3.0855,-3.0831,-3.0932,-3.0895,-3.0831,-3.0855,-3.0875,-3.0892,-3.0892,-3.0892,-3.0892,-3.0892,-3.0871,-3.0831,-3.0831,-3.0773,-3.0733,-3.0733,-3.0733,-3.0733,-3.081,-3.0831,-3.0851,-3.0915,-3.0932,-3.0892,-3.0892,-3.0932,-3.0888,-3.0566,-3.0558,-3.0533,-3.0212,-2.9825,-2.9901,-3.1183,-3.1264,-3.1016,-3.0713,-3.0838,-3.0641,-2.9527,-2.9271,-2.9065,-2.8646,-2.8374,-2.7911,-2.7137,-2.6389,-2.5619,-2.4877,-2.4183,-2.3797,-2.381,-2.3803,-2.3806,-2.3806,-2.3837,-2.3896,-2.3966,-2.4105,-2.4257,-2.4403,-2.4676,-2.487,-2.4954,-2.5025,-2.5088,-2.4333,-2.438,-2.4477,-2.4477,-2.4722,0.0,-2.4966,-2.5294,-2.56,0.0,-2.5936,-2.6185,-2.6242,-2.6347,-2.665,-2.7303,-2.7421,-2.7778,0.0,0.0,0.0,0.0,0.0,0.0,-3.076,-3.0647,-3.0514,-3.039,-3.0372,-3.0396,-3.0396,-3.0547,-3.0651,-3.0651,-3.077,-3.0831,-3.0831,-3.0692,-3.0589,-3.0464,-3.0464,-3.0422,-3.0375,-3.0547,-3.063,-3.063,-3.0753,-3.0753,-3.0651,-3.0651,-3.0733,-3.0851,-3.0851,-3.0851,-3.0851,-3.0851,-3.0773,-3.0671,-3.0671,-3.0609,-3.0506,-3.0506,-3.0506,-3.0526,-3.0651,-3.0671,-3.0692,-3.0831,-3.0871,-3.0855,-3.0771,-3.0737,-3.057,-2.9814,-2.9683,-2.9499,-2.8848,-2.863,-2.9072,-3.0726,-3.0569,-3.0189,-3.0265,-3.0515,-3.0489,-2.9884,-2.9283,-2.8903,-2.8943,-2.8309,-2.7621,-2.7022,-2.6232,-2.5495,-2.4843,-2.4141,-2.3772,-2.3783,-2.38,-2.3795,-2.3795,-2.3795,-2.3827,-2.3896,-2.3947,-2.4105,-2.4376,-2.4572,-2.4749,-2.4881,-2.4953,-2.5005,-2.4456,-2.4317,-2.4338,-2.4338,-2.4508,0.0,-2.4822,-2.5119,-2.541,0.0,-2.5701,-2.5828,-2.5954,-2.599,-2.6058,-2.6206,-2.6277,-2.6906,0.0,0.0,0.0,0.0,0.0,0.0,-2.9154,-2.9535,-2.9742,-2.956,-2.9983,-3.0231,-3.0231,-3.0274,-3.0295,-3.0295,-3.0316,-3.0354,-3.0354,-3.0316,-3.0274,-3.0253,-3.0253,-3.0189,-3.0081,-3.0231,-3.0231,-3.0146,-3.0274,-3.0316,-3.0295,-3.0401,-3.0522,-3.0589,-3.0589,-3.0589,-3.0589,-3.0589,-3.0568,-3.0547,-3.0547,-3.0526,-3.0506,-3.0506,-3.0506,-3.0489,-3.0531,-3.0547,-3.0531,-3.0568,-3.0651,-3.0579,-2.9862,-2.9772,-2.9665,-2.8929,-2.8839,-2.8881,-2.873,-2.8228,-2.8263,-2.9774,-3.0022,-3.0002,-3.0189,-3.083,-3.1096,-3.0452,-2.9834,-2.924,-2.8683,-2.7997,-2.7532,-2.7392,-2.6188,-2.5371,-2.5349,-2.4194,-2.351,-2.3629,-2.3732,-2.3797,-2.3797,-2.3803,-2.3806,-2.3816,-2.3886,-2.4006,-2.4152,-2.4409,-2.461,-2.4734,-2.4809,-2.4853,-2.4995,-2.4789,-2.4733,-2.4374,-2.4441,0.0,0.0,-2.4862,-2.508,-2.5182,-2.532,-2.5419,-2.5492,-2.553,-2.5551,-2.5551,-2.5642,-2.6036,-2.7073,0.0,0.0,0.0,0.0,0.0,-2.8607,-2.8746,-2.8704,-2.8379,-2.8945,-2.9286,-2.9243,-2.9626,-2.9864,-2.9864,-2.9864,-2.9886,-2.9913,-2.9913,-2.993,-2.9946,-2.9886,-2.9782,-2.9665,-2.9716,-2.9716,-2.9665,-2.9826,-2.9913,-2.9913,-3.0124,-3.0172,-3.0156,-3.0363,-3.0401,-3.0359,-3.0359,-3.0401,-3.0443,-3.038,-3.0401,-3.0443,-3.038,-3.0359,-3.0359,-3.0422,-3.0443,-3.0443,-3.0443,-3.0179,-2.9815,-2.9452,-2.9128,-2.8727,-2.8068,-2.7942,-2.7896,-2.7529,-2.7163,-2.7247,-2.8386,-2.8925,-2.9489,-3.0384,-3.0937,-3.1152,-3.0893,-3.0307,-2.9643,-2.8956,-2.8215,-2.7677,-2.7345,-2.5969,-2.5181,-2.5337,-2.4091,-2.3348,-2.3494,-2.3629,-2.3729,-2.3804,-2.3807,-2.3792,-2.3795,-2.3827,-2.3896,-2.3996,-2.4163,-2.4338,-2.4505,-2.4561,-2.4591,-2.5718,-2.5404,-2.5158,0.0,0.0,-2.4498,0.0,0.0,0.0,-2.4762,-2.489,-2.4993,-2.4993,0.0,0.0,0.0,0.0,0.0,0.0,-2.6335,0.0,0.0,0.0,0.0,0.0,-2.7833,-2.7624,-2.7321,-2.7801,-2.814,-2.8173,-2.8803,-2.9214,-2.9341,-2.9357,-2.9364,-2.9438,-2.9438,-2.9477,-2.9547,-2.9464,-2.9335,-2.9175,-2.9175,-2.9175,-2.9152,-2.9319,-2.9416,-2.9483,-2.9738,-2.976,-2.9722,-3.0146,-3.0231,-3.0124,-3.0124,-3.021,-3.0295,-3.0167,-3.021,-3.0295,-3.0167,-3.0146,-3.0167,-3.0274,-3.0354,-3.0342,-3.0173,-2.9629,-2.9042,-2.8861,-2.8372,-2.7789,-2.7174,-2.7028,-2.6862,-2.6283,-2.6168,-2.6452,-2.7406,-2.8073,-2.8943,-3.0419,-3.0851,-3.1015,-3.1131,-3.0586,-2.9898,-2.9206,-2.8492,-2.7776,-2.709,-2.5834,-2.5065,-2.5106,-2.3994,-2.3297,-2.3301,-2.3441,-2.3596,-2.3729,-2.3772,-2.3807,-2.3795,-2.3806,-2.3827,-2.3886,-2.3945,-2.4066,-2.4257,-2.4338,-2.4364,-2.6441,0.0,0.0,0.0,-2.4848,0.0,0.0,0.0,-2.4609,-2.4609,0.0,-2.465,-2.465,0.0,0.0,0.0,0.0,0.0,-2.4902,-2.5151,-2.5548,0.0,0.0,0.0,0.0,-2.6322,-2.663,-2.693,-2.7034,-2.7268,-2.7753,-2.7847,-2.8176,-2.8764,-2.8779,-2.8779,-2.8803,-2.8912,-2.8974,-2.899,-2.9098,-2.9006,-2.8756,-2.8756,-2.8693,-2.8583,-2.8606,-2.8748,-2.8997,-2.9159,-2.9182,-2.9236,-2.982,-2.9957,-2.9853,-2.9853,-2.9935,-3.0038,-2.9897,-2.9935,-3.0017,-2.9875,-2.9935,-3.0017,-3.0038,-3.0124,-3.0079,-2.9356,-2.9086,-2.871,-2.7421,-2.7029,-2.6804,-2.6194,-2.6067,-2.6051,-2.6025,-2.6026,-2.6475,-2.7995,-2.8362,-2.8719,-2.9677,-3.0439,-3.0912,-3.0932,-3.0356,-2.9673,-2.8932,-2.8245,-2.7554,-2.6826,-2.6061,-2.5375,-2.4804,-2.4138,-2.3509,-2.2992,-2.3193,-2.336,-2.3441,-2.3667,-2.3807,-2.3795,-2.3806,-2.3806,-2.3806,-2.3816,-2.3927,-2.4123,-2.4181,-2.4228,0.0,0.0,0.0,0.0,0.0,0.0,-2.438,0.0,-2.4426,0.0,0.0,0.0,0.0,0.0,0.0,0.0,-2.4544,0.0,0.0,0.0,-2.497,0.0,0.0,0.0,0.0,0.0,0.0,0.0,0.0,-2.5982,-2.6134,-2.6865,-2.7418,-2.7711,-2.8102,-2.8326,-2.8422,-2.847,-2.8534,-2.8605,-2.8597,-2.851,-2.8414,-2.8332,-2.8244,-2.822,-2.8277,-2.8374,-2.851,-2.8693,-2.8732,-2.8716,-2.9036,-2.9205,-2.928,-2.928,-2.9348,-2.9477,-2.9425,-2.9425,-2.9454,-2.9319,-2.9409,-2.9621,-2.9687,-2.9754,-2.9636,-2.8904,-2.8297,-2.7629,-2.6696,-2.6137,-2.577,-2.5648,-2.5677,-2.5735,-2.5811,-2.5919,-2.6323,-2.7434,-2.7708,-2.7997,-2.8805,-2.9966,-3.0773,-3.0773,-3.0624,-3.0065,-2.8943,-2.856,-2.7956,-2.6826,-2.6081,-2.5368,-2.47,-2.4049,-2.3423,-2.2812,-2.3082,-2.3289,-2.3413,-2.3585,-2.37,-2.3747,-2.3747,-2.3747,-2.3747,-2.3747,-2.38,-2.3922,-2.3986,-2.4006,-2.7748,0.0,0.0,0.0,0.0,0.0,0.0,0.0,0.0,0.0,0.0,0.0,0.0,0.0,-2.4302,-2.4302,0.0,-2.4457,0.0,-2.4503,0.0,0.0,0.0,0.0,0.0,0.0,0.0,0.0,0.0,0.0,-2.488,-2.5803,-2.6522,-2.6886,-2.7361,-2.7758,-2.8024,-2.8063,-2.8137,-2.8226,-2.8162,-2.8137,-2.8088,-2.8005,-2.793,-2.7905,-2.7989,-2.8063,-2.8113,-2.8253,-2.8293,-2.8275,-2.8301,-2.8431,-2.8614,-2.8708,-2.8834,-2.8935,-2.8912,-2.8912,-2.8897,-2.8803,-2.8897,-2.9106,-2.9198,-2.925,-2.913,-2.843,-2.7563,-2.6739,-2.613,-2.5471,-2.497,-2.5146,-2.5282,-2.54,-2.5513,-2.5682,-2.6059,-2.6852,-2.7132,-2.7455,-2.8221,-2.9294,-3.0118,-3.0318,-3.0286,-2.9884,-2.8833,-2.8568,-2.802,-2.6792,-2.6185,-2.5609,-2.4928,-2.4241,-2.3505,-2.2728,-2.2944,-2.3168,-2.3313,-2.3436,-2.3539,-2.3611,-2.3623,-2.3623,-2.3645,-2.3645,-2.3667,-2.375,-2.3831,-2.3845,0.0,0.0,0.0,-2.6518,0.0,0.0,0.0,0.0,-2.4302,0.0,0.0,0.0,0.0,-2.4302,-2.4302,-2.4302,-2.4302,0.0,0.0,0.0,0.0,0.0,0.0,0.0,0.0,0.0,0.0,0.0,0.0,0.0,-2.4597,-2.4649,-2.527,-2.6566,-2.6626,-2.6956,-2.761,-2.7765,-2.7815,-2.7815,-2.7955,-2.793,-2.7815,-2.7815,-2.774,-2.7625,-2.7625,-2.77,-2.7815,-2.7815,-2.7905,-2.7995,-2.7865,-2.784,-2.789,-2.8275,-2.8462,-2.8527,-2.8429,-2.842,-2.842,-2.842,-2.8462,-2.8527,-2.8535,-2.863,-2.8545,-2.7759,-2.7031,-2.6348,-2.5608,-2.4978,-2.4539,-2.4609,-2.4731,-2.4875,-2.5072,-2.5282,-2.5702,-2.6626,-2.6924,-2.7265,-2.8072,-2.8367,-2.8691,-2.935,-2.8948,-2.856,-2.8527,-2.8005,-2.7377,-2.6673,-2.6572,-2.6303,-2.5626,-2.4897,-2.3952,-2.2681,-2.2738,-2.2906,-2.3107,-2.318,-2.3277,-2.3407,-2.3407,-2.343,-2.3517,-2.3517,-2.3539,-2.3607,-2.3739,-2.38,0.0,0.0,-2.7095,-2.6436,0.0,0.0,0.0,0.0,0.0,0.0,0.0,0.0,0.0,-2.4302,-2.4302,-2.4302,-2.4302,-2.4302,0.0,0.0,0.0,0.0,0.0,0.0,0.0,0.0,0.0,0.0,-2.3717,0.0,0.0,-2.435,-2.4814,-2.5247,-2.6138,-2.6692,-2.6941,-2.7425,-2.7675,-2.7675,-2.77,-2.77,-2.7675,-2.7675,-2.765,-2.76,-2.76,-2.7625,-2.7675,-2.7675,-2.7675,-2.774,-2.7675,-2.7675,-2.77,-2.7915,-2.8014,-2.8048,-2.8014,-2.7989,-2.7989,-2.7989,-2.8088,-2.8186,-2.8268,-2.8326,-2.8211,-2.7487,-2.6765,-2.6008,-2.5312,-2.464,-2.4193,-2.4245,-2.4369,-2.4528,-2.4731,-2.4934,-2.5213,-2.5718,-2.5882,-2.6062,-2.6479,-2.6585,-2.7106,-2.8519,-2.8561,-2.8268,-2.7825,-2.7598,-2.7235,-2.6587,-2.6537,-2.6068,-2.4905,-2.369,-2.2791,-2.2366,-2.2457,-2.2623,-2.2764,-2.2881,-2.2982,-2.307,-2.3082,-2.3107,-2.318,-2.318,-2.3253,-2.3395,-2.3441,-2.36,-2.793,-2.771,0.0,-2.6649,-2.6191,0.0,-2.5044,0.0,0.0,0.0,0.0,0.0,0.0,-2.4177,-2.4213,-2.4255,-2.4255,-2.4276,0.0,-2.4302,0.0,0.0,0.0,-2.4276,0.0,0.0,0.0,-2.3818,-2.3674,-2.3595,0.0,0.0,-2.435,-2.459,-2.545,-2.6123,-2.6587,-2.7031,-2.736,-2.76,-2.76,-2.76,-2.76,-2.76,-2.76,-2.76,-2.76,-2.76,-2.76,-2.76,-2.76,-2.76,-2.76,-2.76,-2.7625,-2.77,-2.774,-2.774,-2.774,-2.774,-2.774,-2.774,-2.779,-2.7865,-2.7965,-2.7989,-2.7898,-2.7458,-2.6803,-2.6067,-2.5387,-2.4722,-2.4223,-2.4273,-2.4198,-2.4254,-2.4652,-2.4704,-2.4739,-2.4966,-2.5123,-2.5262,-2.5457,-2.5551,-2.6127,-2.7698,-2.7722,-2.7512,-2.7389,-2.714,-2.6827,-2.6466,-2.6434,-2.5849,-2.4456,-2.3246,-2.2437,-2.2149,-2.2248,-2.2377,-2.2487,-2.2592,-2.2699,-2.279,-2.2803,-2.2829,-2.2889,-2.2889,-2.2982,-2.3114,-2.3156,-2.3307]},{"header":{"parameterUnit":"m.s-1","parameterCategory":1,"la1":30.6,"la2":29.2853,"lo1":-89.7004,"lo2":-87.6739,"dy":0.0162,"dx":0.0183,"nx":112,"ny":82,"refTime":"2023-05-05T18:00:00:Z","depth":0,"parameterNumber":3,"parameterNumberName":"V-component_of_WINDS"},"data":[0.0,0.0,0.0,0.0,0.0,0.0,0.0,0.0,0.0,0.0,0.0,0.0,0.0,0.0,0.0,0.0,0.0,0.0,0.0,0.0,0.0,0.0,0.0,0.0,0.0,0.0,0.0,0.0,0.0,0.0,0.0,0.0,0.0,0.0,0.0,0.0,0.0,0.0,0.0,0.0,0.0,0.0,0.0,0.0,0.0,0.0,0.0,0.0,0.0,0.0,0.0,0.0,0.0,0.0,0.0,0.0,0.0,0.0,0.0,0.0,0.0,0.0,0.0,0.0,0.0,0.0,0.0,0.0,0.0,0.0,0.0,0.0,0.0,0.0,0.0,0.0,0.0,0.0,0.0,0.0,0.0,0.0,0.0,0.0,0.0,0.0,0.0,0.0,0.0,0.0,-0.5561,-0.5814,-0.605,-0.6249,-0.6389,-0.6659,-0.6805,-0.6805,0.0,0.0,0.0,0.0,0.0,0.0,0.0,0.0,0.0,0.0,0.0,0.0,0.0,0.0,0.0,0.0,0.0,0.0,0.0,0.0,0.0,0.0,0.0,0.0,0.0,0.0,0.0,0.0,0.0,0.0,0.0,0.0,0.0,0.0,0.0,0.0,0.0,0.0,0.0,0.0,0.0,0.0,0.0,0.0,0.0,0.0,0.0,0.0,0.0,0.0,0.0,0.0,0.0,0.0,0.0,0.0,0.0,0.0,0.0,0.0,0.0,0.0,0.0,0.0,0.0,0.0,0.0,0.0,0.0,0.0,0.0,0.0,0.0,0.0,0.0,0.0,0.0,0.0,0.0,0.0,0.0,0.0,0.0,0.0,0.0,0.0,0.0,0.0,0.0,0.0,0.0,0.0,0.0,0.0,0.0,0.0,0.0,0.0,0.0,0.0,0.0,0.0,0.0,0.0,-0.5501,-0.5933,-0.6099,-0.6249,-0.6389,-0.6659,-0.6805,-0.6805,0.0,0.0,0.0,0.0,0.0,0.0,0.0,0.0,0.0,0.0,0.0,0.0,0.0,0.0,0.0,0.0,0.0,0.0,0.0,0.0,0.0,0.0,0.0,0.0,0.0,0.0,0.0,0.0,0.0,0.0,0.0,0.0,0.0,0.0,0.0,0.0,0.0,0.0,0.0,0.0,0.0,0.0,0.0,0.0,0.0,0.0,0.0,0.0,0.0,0.0,0.0,0.0,0.0,0.0,0.0,0.0,0.0,0.0,0.0,0.0,0.0,0.0,0.0,0.0,0.0,0.0,0.0,0.0,0.0,0.0,0.0,0.0,0.0,0.0,0.0,0.0,0.0,0.0,0.0,0.0,0.0,0.0,0.0,0.0,0.0,0.0,0.0,0.0,0.0,0.0,0.0,0.0,0.0,0.0,0.0,0.0,0.0,0.0,0.0,0.0,0.0,0.0,0.0,-0.5539,-0.5761,-0.5981,-0.619,-0.6346,-0.6395,-0.6659,-0.6805,-0.6805,-0.6993,0.0,0.0,0.0,0.0,0.0,0.0,0.0,0.0,0.0,0.0,0.0,0.0,0.0,0.0,0.0,0.0,0.0,0.0,0.0,0.0,0.0,0.0,0.0,0.0,0.0,0.0,0.0,0.0,0.0,0.0,0.0,0.0,0.0,0.0,0.0,0.0,0.0,0.0,0.0,0.0,0.0,0.0,0.0,0.0,0.0,0.0,0.0,0.0,0.0,0.0,0.0,0.0,0.0,0.0,0.0,0.0,0.0,0.0,0.0,0.0,0.0,0.0,0.0,0.0,0.0,0.0,0.0,0.0,0.0,0.0,0.0,0.0,0.0,0.0,0.0,0.0,0.0,0.0,0.0,0.0,0.0,0.0,0.0,0.0,0.0,0.0,0.0,0.0,0.0,0.0,0.0,0.0,0.0,0.0,0.0,0.0,0.0,0.0,0.0,0.0,0.0,0.0,-0.569,-0.5933,-0.5954,-0.619,-0.6367,-0.6395,-0.6659,-0.6805,-0.6805,-0.6993,0.0,0.0,0.0,0.0,0.0,0.0,0.0,0.0,0.0,0.0,0.0,0.0,0.0,0.0,0.0,0.0,0.0,0.0,0.0,0.0,0.0,0.0,0.0,0.0,0.0,0.0,0.0,0.0,0.0,0.0,0.0,0.0,0.0,0.0,0.0,0.0,0.0,0.0,0.0,0.0,0.0,0.0,0.0,0.0,0.0,0.0,0.0,0.0,0.0,0.0,0.0,0.0,0.0,0.0,0.0,0.0,0.0,0.0,0.0,0.0,0.0,0.0,0.0,0.0,0.0,0.0,0.0,0.0,0.0,0.0,0.0,0.0,0.0,0.0,0.0,0.0,0.0,0.0,0.0,0.0,0.0,0.0,0.0,0.0,0.0,0.0,0.0,0.0,0.0,0.0,0.0,0.0,0.0,0.0,0.0,0.0,0.0,0.0,0.0,0.0,0.0,0.0,-0.5442,-0.5739,-0.5814,-0.605,-0.6276,-0.6389,-0.6659,-0.6805,-0.6805,-0.6993,0.0,0.0,0.0,0.0,0.0,0.0,0.0,0.0,0.0,0.0,0.0,0.0,0.0,0.0,0.0,0.0,0.0,0.0,0.0,0.0,0.0,0.0,0.0,0.0,0.0,0.0,0.0,0.0,0.0,0.0,0.0,0.0,0.0,0.0,0.0,0.0,0.0,0.0,0.0,0.0,0.0,0.0,0.0,0.0,0.0,0.0,0.0,0.0,0.0,0.0,0.0,0.0,0.0,0.0,0.0,0.0,0.0,0.0,0.0,0.0,0.0,0.0,0.0,0.0,0.0,0.0,0.0,0.0,0.0,0.0,0.0,0.0,0.0,0.0,0.0,0.0,0.0,0.0,0.0,0.0,0.0,0.0,0.0,0.0,0.0,0.0,0.0,0.0,0.0,0.0,0.0,0.0,0.0,0.0,0.0,0.0,0.0,0.0,0.0,0.0,0.0,0.0,-0.5328,-0.5626,-0.5793,-0.605,-0.6249,-0.6389,-0.6486,-0.6562,-0.6562,0.0,0.0,0.0,0.0,0.0,0.0,0.0,0.0,0.0,0.0,0.0,0.0,0.0,0.0,0.0,0.0,0.0,0.0,0.0,0.0,0.0,0.0,0.0,0.0,0.0,0.0,0.0,0.0,0.0,0.0,0.0,0.0,0.0,0.0,0.0,0.0,0.0,0.0,0.0,0.0,0.0,0.0,0.0,0.0,0.0,0.0,0.0,0.0,0.0,0.0,0.0,0.0,0.0,0.0,0.0,0.0,0.0,0.0,0.0,0.0,0.0,0.0,0.0,0.0,0.0,0.0,0.0,0.0,0.0,0.0,0.0,0.0,0.0,0.0,0.0,0.0,0.0,0.0,0.0,0.0,0.0,0.0,0.0,0.0,0.0,0.0,0.0,0.0,0.0,0.0,0.0,0.0,0.0,0.0,0.0,0.0,0.0,0.0,0.0,0.0,0.0,0.0,-0.474,-0.5062,-0.5361,-0.562,-0.59,-0.6142,-0.6319,-0.6367,-0.6395,-0.6395,0.0,0.0,0.0,0.0,0.0,0.0,0.0,0.0,0.0,0.0,0.0,0.0,0.0,0.0,0.0,0.0,0.0,0.0,0.0,0.0,0.0,0.0,0.0,0.0,0.0,0.0,0.0,0.0,0.0,0.0,0.0,0.0,0.0,0.0,0.0,0.0,0.0,0.0,0.0,0.0,0.0,0.0,0.0,0.0,0.0,0.0,0.0,0.0,0.0,0.0,0.0,0.0,0.0,0.0,0.0,0.0,0.0,0.0,0.0,0.0,0.0,0.0,0.0,0.0,0.0,0.0,0.0,0.0,0.0,0.0,0.0,0.0,0.0,0.0,0.0,0.0,0.0,0.0,0.0,0.0,0.0,0.0,0.0,0.0,0.0,0.0,0.0,0.0,0.0,0.0,0.0,0.0,0.0,0.0,0.0,0.0,0.0,0.0,0.0,0.0,0.0,0.0,-0.4276,-0.4583,-0.4932,-0.5263,-0.5604,-0.59,-0.6184,-0.6319,-0.6395,0.0,0.0,0.0,0.0,0.0,0.0,0.0,0.0,0.0,0.0,0.0,0.0,0.0,0.0,0.0,0.0,0.0,0.0,0.0,0.0,0.0,0.0,0.0,0.0,0.0,0.0,0.0,0.0,0.0,0.0,0.0,0.0,0.0,0.0,0.0,0.0,0.0,0.0,0.0,0.0,0.0,0.0,0.0,0.0,0.0,0.0,0.0,0.0,0.0,0.0,0.0,0.0,0.0,0.0,0.0,0.0,0.0,0.0,0.0,0.0,0.0,0.0,0.0,0.0,0.0,0.0,0.0,0.0,0.0,0.0,0.0,0.0,0.0,0.0,0.0,0.0,0.0,0.0,0.0,0.0,0.0,0.0,0.0,0.0,0.0,0.0,0.0,0.0,0.0,0.0,0.0,0.0,0.0,0.0,0.0,0.0,0.0,0.0,0.0,0.0,0.0,0.0,0.0,-0.4148,-0.4451,-0.4792,-0.5128,-0.5496,-0.5825,-0.604,-0.6083,-0.6147,-0.6249,0.0,0.0,0.0,0.0,0.0,0.0,0.0,0.0,0.0,0.0,0.0,0.0,0.0,0.0,0.0,0.0,0.0,0.0,0.0,0.0,0.0,0.0,0.0,0.0,0.0,0.0,0.0,0.0,0.0,0.0,0.0,0.0,0.0,0.0,0.0,0.0,0.0,0.0,0.0,0.0,0.0,0.0,0.0,0.0,0.0,0.0,0.0,0.0,0.0,0.0,0.0,0.0,0.0,0.0,0.0,0.0,0.0,0.0,0.0,0.0,0.0,0.0,0.0,0.0,0.0,0.0,0.0,0.0,0.0,0.0,0.0,0.0,0.0,0.0,0.0,0.0,0.0,0.0,0.0,0.0,0.0,0.0,0.0,0.0,0.0,0.0,0.0,0.0,0.0,0.0,0.0,0.0,0.0,0.0,0.0,0.0,0.0,0.0,0.0,0.0,0.0,0.0,-0.3928,-0.421,-0.4535,-0.4857,-0.528,-0.5631,-0.5852,-0.596,-0.604,-0.612,0.0,0.0,0.0,0.0,0.0,0.0,0.0,0.0,0.0,0.0,0.0,0.0,0.0,0.0,0.0,0.0,0.0,0.0,0.0,0.0,0.0,0.0,0.0,0.0,0.0,0.0,0.0,0.0,0.0,0.0,0.0,0.0,0.0,0.0,0.0,0.0,0.0,0.0,0.0,0.0,0.0,0.0,0.0,0.0,0.0,0.0,0.0,0.0,0.0,0.0,0.0,0.0,0.0,0.0,0.0,0.0,0.0,0.0,0.0,0.0,0.0,0.0,0.0,0.0,0.0,0.0,0.0,0.0,0.0,0.0,0.0,0.0,0.0,0.0,0.0,0.0,0.0,0.0,0.0,0.0,0.0,0.0,0.0,0.0,0.0,0.0,0.0,0.0,0.0,0.0,0.0,0.0,0.0,0.0,0.0,0.0,0.0,0.0,0.0,0.0,0.0,0.0,-0.3678,-0.3928,-0.4214,-0.453,-0.4975,-0.535,-0.5615,-0.5809,-0.5933,-0.5933,0.0,0.0,0.0,0.0,0.0,0.0,0.0,0.0,0.0,0.0,0.0,0.0,0.0,0.0,0.0,0.0,0.0,0.0,0.0,0.0,0.0,0.0,0.0,0.0,0.0,0.0,0.0,0.0,0.0,0.0,0.0,0.0,0.0,0.0,0.0,0.0,0.0,0.0,0.0,0.0,0.0,0.0,0.0,0.0,0.0,0.0,0.0,0.0,0.0,0.0,0.0,0.0,0.0,0.0,0.0,0.0,0.0,0.0,0.0,0.0,0.4218,0.0,0.0,0.0,0.0,0.0,0.0,0.0,0.0,0.0,0.0,0.0,0.0,0.0,0.0,0.0,0.0,0.0,0.0,0.0,0.0,0.0,0.0,0.0,0.0,0.0,0.0,0.0,0.0,0.0,0.0,0.0,0.0,0.0,0.0,0.0,0.0,0.0,0.0,0.0,0.0,0.0,-0.3622,-0.3818,-0.4056,-0.4338,-0.46,-0.4862,-0.5116,-0.5285,-0.5393,-0.5436,-0.5674,0.0,0.0,0.0,0.0,0.0,0.0,0.0,0.0,0.0,0.0,0.0,0.0,0.0,0.0,0.0,0.0,0.0,0.0,0.0,0.0,0.0,0.0,0.0,0.0,0.0,0.0,0.0,0.0,0.0,0.0,0.0,0.0,0.0,0.0,0.0,0.0,0.0,0.0,0.0,0.0,0.0,0.0,0.0,0.0,0.0,0.0,0.0,0.0,0.0,0.0,0.0,0.0,0.0,0.0,0.0,0.0,0.0,0.0,0.0,0.0,0.4245,0.0,0.0,0.0,0.0,0.0,0.0,0.0,0.0,0.0,0.0,0.0,0.0,0.0,0.0,0.0,0.0,0.0,0.0,0.0,0.0,0.0,0.0,0.0,0.0,0.0,0.0,0.0,0.0,0.0,0.0,0.0,0.0,0.0,0.0,0.0,0.0,0.0,0.0,0.0,0.0,-0.3604,-0.3729,-0.388,-0.4078,-0.4316,-0.4513,-0.4696,-0.4893,-0.5062,-0.5145,-0.5431,0.0,0.0,0.0,0.0,0.0,0.0,0.0,0.0,0.0,0.0,0.0,0.0,0.0,0.0,0.0,0.0,0.0,0.0,0.0,0.0,0.0,0.0,0.0,0.0,0.0,0.0,0.0,0.0,0.0,0.0,0.0,0.0,0.0,0.0,0.0,0.0,0.0,0.0,0.0,0.0,0.0,0.0,0.0,0.0,0.0,0.0,0.0,0.0,0.0,0.0,0.0,0.0,0.0,0.4519,0.4491,0.4491,0.4491,0.4491,0.4491,0.4491,0.4408,0.4249,0.4249,0.0,0.0,0.0,0.0,0.0,0.0,0.0,0.0,0.0,0.0,0.0,0.0,0.0,0.0,0.0,0.0,0.0,0.0,0.0,0.0,0.0,0.0,0.0,0.0,-0.0494,-0.0761,0.0,0.0,0.0,0.0,0.0,0.0,0.0,0.0,0.0,0.0,0.0,0.0,-0.3556,-0.3615,-0.37,-0.3858,-0.4052,-0.4232,-0.4298,-0.4543,-0.4736,-0.4879,-0.5188,-0.5404,0.0,0.0,0.0,0.0,0.0,0.0,0.0,0.0,0.0,0.0,0.0,0.0,0.0,0.0,0.0,0.0,0.0,0.0,0.0,0.0,0.0,0.0,0.0,0.0,0.0,0.0,0.0,0.0,0.0,0.0,0.0,0.0,0.9341,0.9542,0.0,0.0,0.0,0.0,0.0,0.0,0.0,0.0,0.0,0.0,0.0,0.0,0.0,0.5559,0.5069,0.4825,0.4688,0.466,0.4546,0.4491,0.4491,0.4491,0.4491,0.4491,0.4491,0.0,0.4463,0.4463,0.0,0.0,0.0,0.0,0.0,0.0,0.0,0.0,0.0,0.0,0.0,0.0,0.0,0.0,0.0,0.0,0.0,0.0,0.0,0.0,0.0,0.0,-0.0067,-0.0202,-0.0247,-0.0314,0.0,-0.1008,-0.1456,-0.1658,-0.1967,0.0,0.0,0.0,0.0,0.0,0.0,0.0,-0.342,-0.3442,-0.3505,-0.37,-0.3763,-0.3832,-0.3946,-0.4104,-0.4258,-0.4381,-0.4709,-0.4997,-0.5236,-0.5469,0.0,0.0,0.0,0.0,0.0,0.0,0.0,0.0,0.0,0.0,0.0,0.0,0.0,0.0,0.0,0.0,0.0,0.0,0.0,0.0,0.0,0.0,0.0,0.0,0.0,0.0,0.0,0.0,0.0,0.9237,0.9018,0.9178,0.8965,0.8858,0.0,0.0,0.0,0.0,0.0,0.0,0.0,0.0,0.0,0.6834,0.6276,0.5827,0.5562,0.5246,0.5071,0.498,0.4805,0.4718,0.4718,0.4718,0.4718,0.4718,0.4718,0.4718,0.4707,0.4559,0.4436,0.4356,0.0,0.0,0.0,0.0,0.3965,0.3882,0.3688,0.3438,0.0,0.0,0.0,0.0,0.0,0.0,0.0,0.0,0.0,0.0,0.0,0.0,0.0,-0.007,-0.0091,-0.0112,-0.0157,-0.0449,-0.0785,0.0,-0.1477,-0.1856,-0.2281,0.0,0.0,0.0,0.0,-0.3214,-0.3284,-0.335,-0.3442,-0.3527,-0.3597,-0.3663,-0.3733,-0.3818,-0.3968,-0.417,-0.4478,-0.4762,-0.5067,-0.5345,-0.562,0.0,0.0,0.0,0.0,0.0,0.0,0.0,0.0,0.0,0.0,0.0,0.0,0.0,0.0,0.0,0.0,0.0,0.0,0.0,0.0,0.0,0.0,0.0,0.0,0.0,0.0,0.0,0.0,0.8918,0.8804,0.8804,0.8804,0.8804,0.0,0.0,0.0,0.0,0.0,0.0,0.8345,0.7786,0.7343,0.7101,0.6495,0.6104,0.5944,0.5642,0.54,0.5248,0.5066,0.4948,0.4887,0.4887,0.4887,0.4887,0.4887,0.4887,0.487,0.4674,0.4607,0.4575,0.4401,0.4332,0.4325,0.4175,0.4132,0.4104,0.3965,0.3771,0.3527,0.3023,0.0,0.1723,0.1241,0.0,0.0,0.0,0.0,0.0051,0.0,0.0,0.0,0.0,0.0,0.0,0.0,-0.0069,-0.0276,0.0,-0.1075,-0.1477,-0.1945,0.0,0.0,0.0,0.0,-0.3129,-0.3148,-0.3236,-0.3328,-0.3398,-0.349,-0.3556,-0.3604,-0.3638,-0.377,-0.3994,-0.4214,-0.4504,-0.4854,-0.5193,-0.5491,-0.5771,0.0,0.0,0.0,0.0,0.0,0.0,0.0,0.0,0.0,0.0,0.0,0.0,0.0,0.0,0.0,0.0,0.0,0.0,0.0,0.0,0.0,0.0,0.0,0.0,0.0,0.0,0.0,0.0,0.0,0.8804,0.8804,0.0,0.0,0.0,0.0,0.9004,0.9115,0.903,0.8697,0.8223,0.7758,0.7294,0.6713,0.6297,0.6087,0.582,0.5582,0.5373,0.5248,0.5097,0.4887,0.4887,0.4887,0.4887,0.4887,0.4887,0.4887,0.4874,0.4867,0.485,0.4735,0.468,0.4663,0.4518,0.4463,0.4436,0.4249,0.4166,0.4082,0.3524,0.2655,0.1703,0.123,0.0894,0.0,0.0,0.0186,0.0158,0.0025,0.0,0.0,0.0,0.0,0.0,0.0,0.0,-0.0123,0.0,-0.0852,-0.1254,-0.1725,0.0,-0.2415,-0.2684,-0.2821,-0.2932,-0.3012,-0.3012,-0.3126,-0.3376,-0.3398,-0.3464,-0.3578,-0.3604,-0.3641,-0.3722,-0.3858,-0.41,-0.4504,-0.484,-0.5231,-0.5701,-0.5911,0.0,0.0,0.0,0.0,0.0,0.0,0.0,0.0,0.0,0.0,0.0,0.0,0.0,0.0,0.0,0.0,0.0,0.0,0.0,0.0,0.0,0.0,0.0,0.0,0.0,0.0,0.0,0.0,0.8804,0.8804,0.0,0.9038,0.902,0.9073,0.9255,0.9221,0.9045,0.871,0.8381,0.8111,0.787,0.7248,0.6956,0.7008,0.6574,0.6304,0.624,0.5932,0.5729,0.5664,0.5521,0.5488,0.5488,0.5488,0.5488,0.5481,0.5389,0.5179,0.4884,0.486,0.484,0.483,0.4775,0.4755,0.4758,0.467,0.4582,0.4415,0.375,0.3019,0.2268,0.1708,0.1261,0.0896,0.0608,0.044,0.0302,0.0163,0.0133,0.0105,0.0026,0.0,0.0,0.0,0.0,-0.005,-0.0268,-0.0557,-0.0919,-0.1332,-0.1789,-0.2223,-0.2588,-0.2748,-0.2866,-0.2979,-0.2996,-0.3034,-0.3126,-0.3306,-0.342,-0.3464,-0.3556,-0.3619,-0.3697,-0.3744,-0.3943,-0.4364,-0.4688,-0.5101,-0.5561,-0.5847,-0.6153,0.0,0.0,0.0,0.0,0.0,0.0,0.0,0.0,0.0,0.0,0.0,0.0,0.0,0.0,0.0,0.0,0.0,0.0,0.0,0.0,0.0,0.0,0.0,0.0,0.0,0.8804,0.8804,0.8804,0.8865,0.8998,0.9191,0.9199,0.9318,0.9594,0.9498,0.9346,0.9177,0.8933,0.874,0.8576,0.8014,0.7703,0.7695,0.7313,0.6992,0.6817,0.6527,0.6312,0.6097,0.595,0.5875,0.58,0.58,0.58,0.5793,0.5698,0.5484,0.5203,0.5019,0.4958,0.4955,0.4908,0.4887,0.4887,0.4887,0.4826,0.4625,0.4085,0.3563,0.3038,0.2488,0.1967,0.1535,0.1159,0.0841,0.058,0.0435,0.034,0.0276,0.0138,0.0081,0.0052,0.0,0.0,-0.0026,-0.0105,-0.0359,-0.0655,-0.1034,-0.1536,-0.2041,-0.2417,-0.269,-0.289,-0.2989,-0.2998,-0.301,-0.3052,-0.3175,-0.3306,-0.3398,-0.349,-0.3575,-0.366,-0.366,-0.3814,-0.4144,-0.4535,-0.4949,-0.5421,-0.5884,-0.6239,-0.6432,0.0,0.0,0.0,0.0,0.0,0.0,0.0,0.0,0.0,0.0,0.0,0.0,0.0,0.0,0.0,0.0,0.0,0.0,0.0,0.0,0.0,0.0,0.0,0.8804,0.8818,0.8824,0.8824,0.9058,0.9244,0.9251,0.9482,0.9749,1.0021,0.9966,1.0,1.0118,0.9927,0.9677,0.9327,0.8946,0.8523,0.8134,0.8002,0.7615,0.704,0.7004,0.6722,0.6147,0.6111,0.6,0.5817,0.5817,0.5817,0.5817,0.581,0.581,0.5766,0.5288,0.512,0.5103,0.4965,0.4914,0.4911,0.4911,0.484,0.4677,0.4549,0.4275,0.3936,0.3449,0.2985,0.2521,0.197,0.1449,0.0988,0.0865,0.0664,0.0472,0.0354,0.0259,0.0169,0.0028,0.0,0.0,0.0,-0.0213,-0.0481,-0.0835,-0.1342,-0.1797,-0.2147,-0.2652,0.0,-0.3009,-0.3007,-0.3053,-0.3186,-0.3095,-0.3109,-0.3382,-0.3401,-0.3464,-0.3578,-0.3604,-0.3689,-0.388,-0.4355,-0.4809,-0.5308,-0.6013,-0.6432,-0.6498,0.0,0.0,0.0,0.0,0.0,0.0,0.0,0.0,0.0,0.0,0.0,0.0,0.0,0.0,0.0,0.0,0.0,0.0,0.0,0.0,0.0,0.8804,0.8804,0.8804,0.8958,0.9091,0.9091,0.9537,0.996,1.0174,1.0345,1.0516,1.0834,1.0727,1.0598,1.0541,1.0478,1.0289,0.9973,0.9572,0.914,0.8748,0.8421,0.8019,0.7572,0.7413,0.7187,0.6889,0.6734,0.6583,0.6394,0.6394,0.6284,0.6163,0.6013,0.5929,0.5905,0.5708,0.5616,0.5613,0.5572,0.5494,0.5406,0.5406,0.5228,0.4976,0.4826,0.46,0.4299,0.3905,0.3477,0.3015,0.2646,0.2187,0.1727,0.1448,0.1134,0.0823,0.0701,0.0545,0.0391,0.0241,0.0211,0.0179,0.0029,-0.0057,-0.0196,-0.0493,-0.1037,-0.1553,-0.1987,-0.2478,0.0,-0.3117,-0.3145,-0.3169,-0.3194,-0.3156,-0.3176,-0.3245,-0.3343,-0.342,-0.3442,-0.3556,-0.3689,-0.388,-0.4254,-0.484,-0.5658,-0.605,-0.6319,0.0,0.0,0.0,0.0,0.0,0.0,0.0,0.0,0.0,0.0,0.0,0.0,0.0,0.0,0.0,0.0,0.0,0.0,0.0,0.0,0.0,0.0,0.8884,0.8958,0.8958,0.9104,0.9304,0.955,1.002,1.0421,1.0747,1.0837,1.1031,1.1346,1.1191,1.1074,1.1116,1.1123,1.0983,1.0705,1.0406,0.9951,0.9382,0.9046,0.8556,0.7915,0.7795,0.7599,0.7334,0.7099,0.6945,0.0,0.6679,0.6525,0.6405,0.6201,0.6125,0.0,0.0,0.0,0.0,0.0,0.5749,0.5677,0.5677,0.5562,0.5369,0.5246,0.5104,0.4894,0.4576,0.4181,0.3768,0.3416,0.2907,0.2399,0.2013,0.1585,0.1195,0.0975,0.0779,0.0587,0.0432,0.037,0.0338,0.0151,0.0,0.0,-0.0201,-0.0736,-0.1262,-0.1653,-0.2232,-0.2717,-0.304,-0.3156,-0.3215,-0.3269,-0.3235,-0.3189,-0.321,-0.3276,0.0,0.0,0.0,-0.3685,-0.41,-0.4451,0.0,0.0,0.0,-0.6276,-0.6395,0.0,0.0,0.0,-0.7245,-0.7621,0.0,0.0,0.0,0.0,0.0,0.0,0.0,0.0,0.0,0.0,0.0,0.0,0.0,0.0,0.0,0.0,0.9044,0.9251,0.9344,0.9364,0.9557,1.0077,1.0519,1.0841,1.1069,1.1254,1.1434,1.1647,1.1524,1.1518,1.1768,0.0,0.0,0.0,0.0,1.0775,0.9992,0.9733,0.9127,0.8178,0.814,0.7944,0.7561,0.7373,0.7296,0.7257,0.6907,0.6714,0.6679,0.649,0.6377,0.6311,0.5996,0.5854,0.5854,0.5854,0.584,0.0,0.5827,0.0,0.0,0.5654,0.5613,0.5551,0.5278,0.4971,0.4632,0.4216,0.3641,0.3034,0.2619,0.2109,0.1618,0.1265,0.1018,0.0811,0.0593,0.053,0.0498,0.0342,0.031,0.0246,0.0059,-0.046,-0.0929,-0.1207,-0.1933,-0.2547,-0.2824,-0.3076,-0.326,-0.3396,0.0,0.0,-0.3232,-0.3221,-0.3202,-0.32,-0.3338,-0.3704,-0.4324,-0.4727,-0.5205,-0.5728,-0.6007,-0.6227,-0.6367,-0.6395,-0.6432,-0.6505,-0.681,-0.7147,0.0,0.0,0.0,0.0,0.0,0.0,0.0,0.0,0.0,0.0,0.0,0.0,0.0,0.0,0.0,0.9118,0.9178,0.9457,1.0238,1.0332,1.0378,1.0492,1.1182,1.1672,1.1732,1.1964,1.2121,1.2181,1.2145,1.2128,1.2187,1.2187,1.2077,1.1892,1.1521,1.1037,1.0406,0.9846,0.9241,0.8589,0.0,0.0,0.7987,0.7949,0.7829,0.7672,0.7591,0.748,0.733,0.7103,0.6834,0.6518,0.6308,0.6211,0.6211,0.6211,0.6091,0.5949,0.5949,0.5905,0.5796,0.5769,0.5762,0.5755,0.569,0.5506,0.0,0.491,0.4399,0.3861,0.3406,0.2772,0.2164,0.1835,0.1462,0.1125,0.0796,0.073,0.0692,0.0483,0.0384,0.0283,0.0238,-0.0176,-0.0608,-0.0929,-0.1624,-0.2212,-0.2547,-0.3033,-0.3379,-0.3407,-0.3385,-0.3357,-0.3358,-0.3273,-0.3193,-0.3193,-0.3417,-0.3685,-0.399,-0.4443,-0.4901,-0.5393,-0.5707,-0.6007,-0.6249,-0.6346,-0.641,-0.6432,-0.6647,-0.6873,0.0,0.0,0.0,0.0,0.0,0.0,0.0,0.0,0.0,0.0,0.0,0.9844,0.9674,0.0,0.9364,0.944,0.9557,0.9886,1.0506,1.0841,1.1049,1.1229,1.1638,1.196,1.2107,1.2218,1.2305,1.2305,1.2305,1.2305,1.2305,1.2305,1.2268,1.215,1.1855,1.1409,1.0812,1.04,0.9803,0.9013,0.8899,0.8708,0.8403,0.8289,0.825,0.8241,0.8055,0.7944,0.7944,0.7638,0.733,0.7022,0.6714,0.649,0.63,0.63,0.6248,0.6146,0.6146,0.6095,0.602,0.5939,0.5915,0.5901,0.5823,0.5731,0.561,0.5322,0.4935,0.4487,0.3981,0.3288,0.2619,0.2251,0.1714,0.1244,0.1077,0.101,0.0905,0.0695,0.0594,0.0521,0.0405,0.0154,-0.0181,-0.0595,-0.1177,-0.1709,-0.2184,-0.2659,-0.3051,-0.3357,-0.3389,-0.3412,-0.3406,-0.3205,-0.3136,-0.3204,-0.3268,-0.3461,-0.3788,-0.4158,-0.4618,-0.5193,-0.5491,-0.5836,-0.6206,-0.6276,-0.6346,-0.6395,-0.6511,-0.6626,0.0,0.0,0.0,0.0,0.0,0.0,0.0,1.115,1.0701,1.0616,1.0208,0.9857,0.9897,0.9805,0.9757,0.9836,0.9997,1.0261,1.07,1.1129,1.1522,1.1946,1.1986,1.2044,1.2278,1.2305,1.2305,1.2305,1.2305,1.2305,1.2305,1.2305,1.2305,1.2305,1.2114,1.1744,1.1223,1.0962,1.0438,0.9582,0.9511,0.9279,0.8927,0.8742,0.8703,0.8856,0.8632,0.8594,0.867,0.828,0.7978,0.7638,0.7246,0.6791,0.6412,0.6338,0.63,0.63,0.63,0.63,0.6279,0.6115,0.6074,0.6051,0.5928,0.5891,0.5848,0.5643,0.5367,0.5058,0.4542,0.3831,0.3113,0.2673,0.2022,0.1479,0.1344,0.121,0.1076,0.0909,0.0843,0.0735,0.0584,0.0452,0.0188,-0.0258,-0.0708,-0.1214,-0.1765,-0.2184,-0.2633,-0.3163,-0.333,-0.3394,-0.3411,-0.3201,-0.3104,-0.3196,-0.3095,-0.3229,-0.3631,-0.3891,-0.4312,-0.4927,-0.5253,-0.562,-0.6072,-0.6099,-0.6206,-0.6367,-0.6422,-0.6453,1.2798,1.2735,1.248,1.22,1.1927,1.1653,0.0,1.1023,1.0616,1.0393,1.02,1.0033,0.9906,0.9897,0.9981,1.026,1.0184,1.037,1.1216,1.1349,1.1595,1.2191,1.2258,1.2265,1.2298,1.2305,1.2305,1.2305,1.2305,1.2305,1.2305,1.2305,1.2305,1.2305,1.2114,1.1892,1.1632,1.126,1.0925,1.0625,1.0255,0.9992,0.9771,0.9544,0.9468,0.9506,0.9841,0.9879,0.9728,0.9506,0.897,0.825,0.7863,0.7361,0.6791,0.6412,0.63,0.63,0.63,0.63,0.6296,0.6279,0.6272,0.6272,0.6252,0.6248,0.6218,0.6006,0.5841,0.5611,0.5273,0.4607,0.3894,0.3275,0.2667,0.2082,0.1445,0.1277,0.1244,0.1109,0.0909,0.0802,0.0779,0.0614,0.0348,0.0,-0.0439,-0.0841,-0.1154,-0.1793,-0.2324,-0.2577,-0.3079,-0.3394,-0.3411,-0.3376,-0.3316,-0.3205,-0.3181,-0.3254,-0.3421,-0.3639,-0.3939,-0.4381,-0.4836,-0.5226,-0.5577,-0.575,-0.5964,-0.6233,-0.6458,-0.6518,1.2652,1.2397,1.2076,1.1728,1.1368,1.1049,1.0769,1.0595,1.0428,1.0322,1.0362,1.0412,1.043,1.0427,1.0469,1.0599,1.0554,1.071,1.1323,1.1389,1.1608,1.2231,1.2305,1.2305,1.2305,1.2305,1.2305,1.2305,1.2305,1.2378,1.2589,1.2596,1.2645,1.2826,1.2755,1.2595,1.2402,1.2247,1.1889,1.1455,1.127,1.0921,1.0406,1.0218,1.0105,1.0143,1.0438,1.0556,1.0556,1.0255,0.9841,0.9387,0.8623,0.8012,0.751,0.6753,0.6412,0.63,0.63,0.63,0.63,0.63,0.63,0.63,0.63,0.63,0.6286,0.6183,0.606,0.5864,0.5654,0.5132,0.4482,0.3827,0.3157,0.2501,0.1789,0.148,0.1244,0.1109,0.1043,0.0972,0.0961,0.0794,0.0621,0.0501,0.003,-0.044,-0.0809,-0.1333,-0.1961,-0.2657,-0.3132,-0.3423,-0.3512,-0.3441,-0.3379,-0.3327,-0.3235,-0.3267,-0.3392,-0.3477,-0.3743,-0.4172,-0.4454,-0.4895,-0.551,-0.5694,-0.6034,-0.6487,-0.6696,-0.6812,1.2455,1.2076,1.1653,1.1251,1.0871,1.0545,1.0381,1.0333,1.032,1.0429,1.0592,1.0763,1.0847,1.0902,1.0946,1.0954,1.0971,1.1141,1.1526,1.16,1.1807,1.2318,1.2342,1.2305,1.2305,1.2305,1.2338,1.2418,1.2425,1.2596,1.2898,1.2911,1.3018,1.32,1.3213,1.3127,1.2969,1.2969,1.2739,1.2253,1.2208,1.1832,1.1182,1.0885,1.0775,1.085,1.1037,1.1223,1.1335,1.0962,1.0663,1.0363,0.9458,0.8846,0.8309,0.7361,0.6756,0.6377,0.6338,0.63,0.63,0.63,0.63,0.63,0.63,0.63,0.63,0.63,0.6179,0.6054,0.5978,0.5569,0.5071,0.441,0.3712,0.2993,0.2254,0.1758,0.1412,0.121,0.1109,0.1109,0.1109,0.0976,0.087,0.082,0.0469,0.003,-0.0443,-0.0973,-0.1682,-0.2685,-0.3077,-0.333,-0.3527,-0.3501,-0.3452,-0.3452,-0.3335,-0.3295,-0.34,-0.3401,-0.357,-0.3945,-0.4141,-0.4575,-0.5288,-0.5584,-0.6047,-0.6605,-0.686,-0.7096,1.2175,1.1728,1.1226,1.082,1.0522,1.0332,1.047,1.0391,1.0407,1.0733,1.0945,1.1092,1.11,1.1204,1.1288,1.1272,1.14,1.1612,1.1934,1.2096,1.2293,1.2565,1.2415,1.2305,1.2305,1.2305,1.2418,1.275,1.277,1.2904,1.318,1.32,1.32,1.3213,1.3213,1.3213,1.3206,1.3206,1.3167,1.3154,1.2956,1.2602,1.2145,1.1602,1.1484,1.1669,1.1892,1.1966,1.1966,1.1744,1.1446,1.0999,1.04,0.9798,0.9183,0.8347,0.7437,0.6563,0.6377,0.63,0.63,0.63,0.63,0.63,0.63,0.63,0.63,0.63,0.6296,0.6293,0.6293,0.6021,0.5641,0.5001,0.4424,0.3707,0.2795,0.2226,0.1749,0.1379,0.1176,0.1109,0.1109,0.1109,0.1009,0.0841,0.0788,0.0568,0.0059,-0.0773,-0.1598,-0.2437,-0.274,-0.3047,-0.3385,-0.3524,-0.3605,-0.3605,-0.3463,-0.3395,-0.3395,-0.3408,-0.3468,-0.3618,-0.3938,-0.4302,-0.4718,-0.532,-0.5839,-0.632,-0.6923,-0.7341,1.1902,1.1377,1.0877,1.073,1.0493,1.0351,1.0528,1.0716,1.0872,1.0975,1.1233,1.143,1.143,1.1456,1.1466,1.1334,1.1333,1.1517,1.194,1.2033,1.2256,1.2727,1.2636,1.2563,1.276,1.2667,0.0,1.2777,1.2978,1.318,1.344,1.346,1.3587,1.3788,1.3794,1.3794,1.3794,1.3794,1.3694,1.3453,1.322,1.2857,1.2376,1.2228,1.2035,1.1892,1.1966,1.2077,1.2187,1.1966,1.1818,1.1632,1.0887,1.04,0.9981,0.9036,0.8318,0.7676,0.6795,0.6486,0.649,0.6338,0.63,0.63,0.63,0.63,0.63,0.63,0.63,0.63,0.63,0.622,0.6003,0.5413,0.4854,0.4179,0.3198,0.2604,0.2049,0.1412,0.1277,0.121,0.1109,0.1109,0.1043,0.0843,0.0625,0.0316,-0.0089,-0.0671,-0.1322,-0.2077,-0.2436,-0.2854,-0.3357,-0.3441,-0.3499,-0.3585,-0.3545,-0.3523,-0.3523,-0.3459,-0.347,-0.3603,-0.372,-0.407,-0.4709,-0.5166,-0.5791,-0.6582,-0.6955,-0.7284,1.1553,1.1149,1.0787,1.0743,1.0619,1.0535,1.0805,1.0983,1.1136,1.1254,1.1445,1.1591,1.1591,1.1591,1.1597,1.1548,1.1664,1.1891,1.2314,1.2416,1.2565,1.296,1.282,1.2827,1.3099,1.3108,1.3062,1.3099,1.3253,1.3453,1.3746,1.376,1.3895,1.4082,1.4088,1.4088,1.4088,1.4088,1.3988,1.3801,1.3467,1.3187,1.2883,1.2692,1.2487,1.2265,1.216,1.2187,1.2298,1.2157,1.2114,1.204,1.1446,1.1111,1.0812,0.9943,0.9382,0.8856,0.7403,0.6868,0.6795,0.6563,0.6525,0.6486,0.6412,0.6412,0.6374,0.6338,0.63,0.63,0.63,0.63,0.6195,0.5752,0.5287,0.472,0.3819,0.3126,0.2481,0.1818,0.1479,0.1277,0.1176,0.1143,0.1042,0.0943,0.0663,0.0322,-0.0061,-0.0448,-0.0905,-0.16,-0.2059,-0.2519,-0.3023,-0.3274,-0.3441,-0.3527,-0.3583,-0.3613,-0.3613,-0.3509,-0.352,-0.3603,-0.3653,-0.3941,-0.4515,-0.4987,-0.5628,-0.6376,-0.6783,-0.7112,1.1167,1.1047,1.0949,1.088,1.0844,1.0927,1.1256,1.1219,1.1217,1.1525,1.1591,1.1591,1.1591,1.1591,1.1694,1.1952,1.2251,1.2592,1.2936,1.3064,1.3157,1.3208,1.3053,1.3084,1.3393,1.35,1.3573,1.3641,0.0,1.3746,1.4075,1.4088,1.4088,1.4088,1.4088,1.4088,1.4088,1.4088,1.4088,1.4082,1.376,1.362,1.3586,1.3053,1.2811,1.277,1.2445,1.2318,1.2305,1.2305,1.2305,1.2268,1.2077,1.1892,1.1632,1.1037,1.0588,0.9992,0.8246,0.7484,0.7219,0.698,0.6903,0.6865,0.6676,0.6598,0.6563,0.6377,0.63,0.63,0.63,0.63,0.6219,0.598,0.5721,0.5324,0.4611,0.3814,0.3092,0.2536,0.1849,0.1311,0.1311,0.121,0.1109,0.1109,0.0942,0.0634,0.0097,-0.0092,-0.0414,-0.1002,-0.1603,-0.2104,-0.2437,-0.3023,-0.3357,-0.3385,-0.3499,-0.3583,-0.3583,-0.3585,-0.3613,-0.3613,-0.3716,-0.391,-0.4193,-0.477,-0.5285,-0.5773,-0.6376,-0.6788,1.1262,1.1022,1.0825,1.1402,1.148,1.1449,1.1631,1.1652,1.1612,1.1608,1.1591,1.1591,1.1591,1.1591,1.1694,1.1952,1.1904,1.2031,1.257,1.2647,1.2751,1.3033,1.3301,1.3596,1.391,1.4024,1.4171,0.0,1.4135,1.4008,1.4082,1.4088,1.4088,1.4088,1.4088,1.4088,1.4088,1.4088,1.4088,1.4088,1.4008,1.3854,1.36,1.3447,1.3173,1.2784,1.2703,1.2543,1.2305,1.2305,1.2305,1.2268,1.2077,1.1966,1.1855,1.1409,1.1074,1.0738,0.9836,0.8889,0.7983,0.733,0.7142,0.7099,0.6865,0.6826,0.6788,0.6563,0.6528,0.649,0.6338,0.63,0.63,0.6219,0.5949,0.5604,0.5087,0.4436,0.3765,0.312,0.2319,0.1648,0.1344,0.1277,0.121,0.1109,0.1042,0.0933,0.0648,0.0223,-0.0186,-0.0533,-0.1024,-0.1555,-0.2076,-0.2491,-0.2826,-0.3019,-0.3299,-0.3444,-0.3444,-0.3555,-0.3613,-0.3613,-0.3638,-0.3774,-0.4052,-0.4294,-0.4732,-0.5289,-0.57,-0.6077,1.1166,1.1179,1.1281,1.1863,1.2027,1.2071,1.2143,1.2027,1.1903,1.184,1.1809,1.1809,1.1809,1.1747,1.184,1.2273,1.2167,1.216,1.2665,1.2855,1.2965,1.3001,1.3506,1.3954,1.4233,1.4384,1.4575,1.4845,1.4496,1.4243,1.4243,1.4166,1.4088,1.4088,1.4088,1.4088,1.4088,1.4088,1.4088,1.4088,1.4088,1.4001,1.3793,1.366,1.3387,1.2985,0.0,1.2616,1.2305,1.2305,1.2305,1.2298,1.2187,1.212,1.2114,1.1892,1.1669,1.1409,1.0925,1.0175,0.9268,0.8208,0.7791,0.7638,0.7288,0.7173,0.7096,0.683,0.6714,0.6676,0.649,0.6412,0.6412,0.6338,0.6155,0.5919,0.5551,0.4968,0.427,0.3316,0.2581,0.2017,0.1614,0.1412,0.1277,0.121,0.1143,0.107,0.0955,0.0586,0.0191,-0.0185,-0.0569,-0.1024,-0.1549,-0.2033,-0.2406,-0.2713,-0.3077,-0.3302,-0.3385,-0.3527,-0.3613,-0.3613,-0.3613,-0.3694,-0.391,-0.4045,-0.4322,-0.4715,-0.5097,-0.5477,1.0982,1.1446,1.191,1.2289,1.257,1.2713,1.2652,1.2467,1.2243,1.2212,1.2182,1.2182,1.2151,1.1965,1.2058,1.2691,1.2554,1.2526,1.2892,1.3184,1.3258,1.298,1.3594,1.4196,1.4482,1.4634,1.4837,1.511,1.4741,1.4482,1.444,1.4243,1.4124,1.4088,1.4088,1.4088,1.4088,1.4088,1.4088,1.4088,1.4088,1.4088,1.4082,1.378,1.348,1.32,0.0,0.0,1.2305,1.2305,1.2305,1.2305,1.2305,1.2305,1.2305,1.2305,1.2194,1.2003,1.1595,1.1223,1.07,0.9268,0.8665,0.8365,0.7787,0.7599,0.7446,0.7096,0.698,0.6903,0.6676,0.6641,0.6602,0.6374,0.6338,0.6259,0.5934,0.5442,0.4687,0.3445,0.2861,0.245,0.2085,0.1681,0.1412,0.1311,0.121,0.1109,0.1109,0.0923,0.0616,0.0161,-0.0154,-0.0476,-0.0943,-0.1519,-0.1998,-0.2354,-0.277,-0.3105,-0.333,-0.3499,-0.3583,-0.3613,-0.3613,-0.3663,-0.3769,-0.3882,-0.4024,-0.4166,-0.457,-0.4924,1.1205,1.1587,1.1967,1.2696,1.3114,1.3277,1.2981,1.3003,1.2995,1.2744,1.2683,1.2621,1.2451,1.2212,1.2216,1.2725,1.221,1.1965,1.2526,1.2658,1.2631,1.258,1.366,1.4445,1.4504,1.4958,1.5289,0.0,1.5131,1.4873,1.465,1.444,1.4286,1.413,1.4088,1.4088,1.4088,1.4088,1.4088,1.4088,1.4088,1.4088,1.4088,1.4035,1.3721,1.3206,1.3153,0.0,1.2305,1.2305,1.2305,1.2305,1.2305,1.2305,1.2305,1.2305,1.2268,1.2224,1.1966,1.1744,1.1298,0.9916,0.9198,0.8813,0.836,0.8025,0.7684,0.7446,0.7292,0.7103,0.6903,0.6865,0.6788,0.6602,0.6563,0.6479,0.6265,0.5703,0.5036,0.4362,0.3883,0.3355,0.2686,0.2351,0.2014,0.1378,0.1277,0.121,0.1109,0.0939,0.0763,0.068,0.0384,0.0031,-0.0326,-0.082,-0.1271,-0.1714,-0.2298,-0.2715,-0.2989,-0.3272,-0.3499,-0.3613,-0.3613,-0.361,-0.3638,-0.3666,-0.3747,-0.3882,-0.4076,-0.438,1.128,1.1617,1.2011,1.2894,1.3338,1.3558,1.3597,1.3649,1.361,1.3467,1.3376,1.3255,1.3064,1.2736,1.2633,1.3132,1.2732,1.2497,1.288,1.306,1.307,1.2797,1.3777,1.4511,1.4511,1.505,1.5389,1.5389,1.5305,1.5131,1.4908,1.4608,1.4356,1.4237,1.4166,1.4088,1.4088,1.4088,1.4088,1.4088,1.4088,1.4088,1.4088,1.4088,1.3848,1.3387,1.3273,0.0,1.2556,1.2365,1.2305,1.2305,1.2305,1.2305,1.2305,1.2305,1.2305,1.2298,1.2194,1.2003,1.1744,1.0962,1.0288,0.9679,0.9041,0.8665,0.8327,0.7795,0.7607,0.7454,0.7138,0.7061,0.7022,0.6791,0.6676,0.65,0.6194,0.5741,0.5298,0.4877,0.4405,0.3889,0.3355,0.2887,0.2417,0.1947,0.1546,0.1277,0.121,0.1043,0.0905,0.0827,0.0652,0.0415,0.0093,-0.03,-0.0732,-0.121,-0.1867,-0.238,-0.2685,-0.3163,-0.3441,-0.3499,-0.3555,-0.3613,-0.3613,-0.3613,-0.3638,-0.3691,-0.3827,-0.4049,1.1272,1.1602,1.2039,1.3013,1.3493,1.3802,1.4218,1.4249,1.4189,1.416,1.407,1.3911,1.3692,1.3307,1.3132,1.3525,1.3298,1.3148,1.3286,1.3512,1.3552,1.3108,1.391,1.4511,1.4511,1.505,1.5389,1.5389,1.5389,0.0,1.509,1.4741,1.4482,1.4398,1.4243,1.4124,1.4088,1.4088,1.4088,1.4088,1.4088,1.4088,1.4088,1.4088,1.3928,1.3586,1.334,0.0,0.0,1.2425,1.2305,1.2305,1.2305,1.2305,1.2305,1.2305,1.2305,1.2305,1.2305,1.2187,1.204,1.1892,1.1298,1.0475,0.9717,0.9301,0.8889,0.814,0.788,0.7727,0.7373,0.7257,0.7219,0.7022,0.683,0.6566,0.6215,0.5885,0.5594,0.5304,0.4853,0.4386,0.4028,0.3422,0.2854,0.2517,0.1947,0.1479,0.1311,0.121,0.1076,0.0876,0.0858,0.0748,0.042,0.0155,-0.024,-0.0715,-0.1384,-0.1952,-0.232,-0.2895,-0.3246,-0.3299,-0.3471,-0.3555,-0.3555,-0.3583,-0.3613,-0.3613,-0.3719,-0.3827,1.1317,1.1647,1.2138,1.3118,1.3722,1.4155,1.4563,1.4784,1.4852,1.4686,1.4627,1.4538,1.4189,1.389,1.3656,1.3514,1.3292,1.3137,1.3274,1.334,1.3334,1.3269,1.3984,1.4511,1.4511,1.505,1.5389,1.5389,1.5389,0.0,1.509,1.5048,1.4824,1.4398,1.4398,1.4279,1.4088,1.4088,1.4088,1.4088,1.4088,1.4088,1.4088,1.4088,1.3928,1.3586,1.334,0.0,0.0,1.2425,1.2305,1.2305,1.2305,1.2305,1.2305,1.2305,1.2305,1.2305,1.2305,1.2298,1.2268,1.2268,1.1706,1.0925,1.0331,0.9722,0.915,0.8513,0.8068,0.7761,0.7526,0.7484,0.7407,0.7219,0.7022,0.6822,0.658,0.6376,0.6143,0.581,0.545,0.5071,0.4612,0.4159,0.3591,0.2787,0.245,0.2048,0.1378,0.1277,0.1244,0.1076,0.1074,0.0995,0.0777,0.061,0.0285,-0.0216,-0.0716,-0.126,-0.1843,-0.2333,-0.2687,-0.2933,-0.3244,-0.3413,-0.3413,-0.3527,-0.3613,-0.3613,-0.361,-0.3691,1.143,1.1678,1.2084,1.2815,1.3541,1.4227,1.4658,1.5003,1.5216,1.5147,1.5069,1.4941,1.4734,1.4428,1.4246,1.4289,1.4232,1.4188,1.4219,1.4231,1.4179,1.3981,1.4471,1.4808,1.4621,1.5205,1.5541,1.5431,1.5389,0.0,1.5257,1.5173,1.4999,1.4831,1.465,1.4531,1.4454,1.4321,1.4279,1.4279,1.4166,1.4088,1.4088,1.4088,1.4021,1.3881,1.3414,0.0,0.0,1.2505,1.2305,1.2305,1.2305,1.2305,1.2305,1.2305,1.2305,1.2305,1.2305,1.2305,1.2305,1.2305,1.2077,1.1706,1.0962,1.04,0.983,0.9003,0.8551,0.825,0.7795,0.7603,0.7446,0.7257,0.7142,0.7022,0.6826,0.6507,0.6238,0.6017,0.5723,0.5364,0.4982,0.4592,0.4159,0.3558,0.2954,0.2417,0.2014,0.1579,0.1277,0.121,0.1143,0.1071,0.0994,0.0815,0.061,0.0286,-0.0277,-0.0757,-0.1059,-0.1732,-0.2163,-0.2362,-0.2772,-0.3051,-0.3216,-0.3385,-0.3527,-0.3613,-0.3613,-0.3638,1.1604,1.1728,1.207,1.2796,1.351,1.4233,1.4844,1.5205,1.541,1.541,1.5313,1.5205,1.5088,1.4872,1.4719,1.4763,1.4961,1.5055,1.4916,1.4995,1.4947,1.4597,1.4923,1.508,1.4738,1.5238,1.5541,1.5431,1.5389,0.0,1.5389,1.5257,1.5173,1.509,1.4915,1.4783,1.4692,1.4566,1.4482,1.4398,1.4243,1.4166,1.4088,1.4088,1.4088,1.4055,0.0,0.0,0.0,1.2552,1.2305,1.2305,1.2305,1.2305,1.2305,1.2305,1.2305,1.2305,1.2305,1.2305,1.2305,1.2305,1.2305,1.2187,1.1558,1.1037,1.0475,0.9533,0.8965,0.8475,0.7953,0.7684,0.7526,0.7334,0.7296,0.7219,0.7022,0.6775,0.6496,0.6306,0.604,0.5741,0.5484,0.5119,0.4755,0.4292,0.3623,0.3019,0.2618,0.2014,0.1579,0.148,0.1277,0.1143,0.1109,0.0958,0.0817,0.0654,0.0191,-0.0188,-0.0376,-0.1062,-0.155,-0.1729,-0.2246,-0.2668,-0.2923,-0.3149,-0.3363,-0.353,-0.3562,-0.3625,1.1851,1.1803,1.2168,1.3316,1.3792,1.4239,1.5186,1.541,1.541,1.541,1.541,1.5362,1.5215,1.5215,1.5088,1.4745,1.521,1.5477,1.5139,1.5343,1.5346,1.4939,1.5186,1.5196,1.4738,1.5131,1.5389,1.5389,0.0,0.0,1.5389,1.5389,1.5305,1.509,1.509,1.4957,1.4692,1.4692,1.4608,1.4398,1.4398,1.4279,1.4088,1.4088,1.4088,0.0,0.0,0.0,0.0,1.2552,1.2305,1.2305,1.2305,1.2305,1.2305,1.2305,1.2305,1.2305,1.2305,1.2305,1.2305,1.2305,1.2305,1.2261,1.204,1.1558,1.0925,1.0105,0.916,0.8327,0.7919,0.7804,0.7761,0.7561,0.7484,0.7446,0.7257,0.718,0.7091,0.6656,0.6488,0.636,0.6202,0.5862,0.5415,0.4882,0.4517,0.3954,0.309,0.2653,0.2251,0.1918,0.1547,0.1244,0.1109,0.1109,0.1009,0.0809,0.0656,0.0452,0.0097,-0.0376,-0.0771,-0.1107,-0.1755,-0.2244,-0.2501,-0.2849,-0.3146,-0.3416,-0.3472,-0.3644,1.2593,1.2607,1.28,1.3167,1.3909,1.463,1.4922,1.5205,1.541,1.541,1.541,1.5381,1.5332,1.5332,1.5303,1.5206,1.5704,1.6032,1.5689,1.5879,1.585,1.539,1.5215,1.5255,1.5607,0.0,1.5389,1.5389,0.0,0.0,1.5389,1.5389,1.5389,1.5305,1.5305,1.5257,1.5166,1.5041,1.4957,1.4873,1.4699,1.4566,1.4489,1.4489,0.0,0.0,0.0,0.0,0.0,1.262,1.2305,1.2305,1.2305,1.2305,1.2305,1.2305,1.2305,1.2305,1.2305,1.2305,1.2305,1.2305,1.2305,1.2298,1.2231,1.1892,1.1335,1.0556,0.9685,0.8965,0.8699,0.8217,0.7804,0.7723,0.7603,0.7484,0.7407,0.7296,0.713,0.6917,0.6696,0.6462,0.6225,0.6097,0.585,0.5399,0.4948,0.445,0.3954,0.3255,0.2653,0.2284,0.1915,0.158,0.1277,0.1143,0.1076,0.1009,0.0835,0.0698,0.0599,0.0226,-0.0127,-0.0477,-0.0873,-0.135,-0.1882,-0.2215,-0.2749,-0.3411,-0.3568,-0.3766,1.3334,1.3349,1.3466,1.3618,1.4249,1.4852,1.498,1.5225,1.541,1.541,1.541,1.541,1.541,1.541,1.5469,1.5635,1.6127,1.645,1.6257,1.6419,1.6351,1.5856,1.5419,1.541,0.0,1.588,1.5631,0.0,0.0,0.0,1.5389,1.5465,1.5499,1.5499,1.5423,1.5389,1.5389,1.5257,1.5173,1.509,1.4915,1.4783,1.4692,1.4692,0.0,0.0,0.0,0.0,0.0,1.2648,1.2378,1.2305,1.2305,1.2305,1.2305,1.2305,1.2305,1.2305,1.2305,1.2305,1.2305,1.2305,1.2305,1.2305,1.2305,1.2003,1.1558,1.0925,1.0244,0.9642,0.9226,0.8699,0.8178,0.788,0.7723,0.7603,0.7522,0.7407,0.7298,0.7191,0.7004,0.6784,0.6615,0.6468,0.6272,0.5959,0.5519,0.5087,0.4755,0.4056,0.3456,0.3054,0.2586,0.2151,0.1746,0.1378,0.1143,0.1109,0.0976,0.0909,0.0909,0.0629,0.0361,0.0066,-0.0225,-0.0666,-0.1252,-0.1828,-0.2478,-0.3194,-0.3506,-0.3819,0.0,1.3976,1.4162,1.4511,1.4721,1.4932,1.5322,1.541,0.0,1.541,1.541,1.541,1.541,1.5439,1.5586,1.6026,1.6465,1.6754,1.6812,1.6856,1.6741,1.6417,1.5851,1.5732,1.6413,1.6286,1.6038,0.0,0.0,0.0,1.5472,1.5658,1.5733,1.5733,1.5582,1.5472,1.5431,1.5431,1.5298,1.5131,1.5131,1.4999,1.4776,1.4776,0.0,0.0,0.0,0.0,0.0,1.2759,1.2489,1.2335,1.2335,1.2335,1.2335,1.2342,1.2342,1.2335,1.2335,1.2305,1.2305,1.2305,1.2305,1.2305,1.2305,1.204,1.1669,1.126,1.085,1.04,0.9604,0.9226,0.8851,0.8068,0.788,0.7799,0.7561,0.7522,0.7522,0.7522,0.7354,0.7203,0.7191,0.6932,0.6658,0.6444,0.6127,0.5793,0.5495,0.4994,0.4495,0.4095,0.3458,0.2887,0.2484,0.1746,0.1277,0.1109,0.1109,0.1109,0.1109,0.0909,0.0741,0.0538,0.0202,-0.0199,-0.0678,-0.1572,-0.2265,-0.2775,-0.332,-0.3696,1.5061,0.0,1.463,1.4728,1.5001,1.5293,0.0,1.541,1.541,1.541,1.541,1.541,1.541,1.5684,1.5977,1.6075,1.675,1.72,1.7048,1.6804,1.6768,1.6966,1.6598,1.6544,1.7115,1.6927,0.0,0.0,0.0,1.6154,1.5963,1.6113,1.6229,1.6229,1.6319,1.6154,1.5616,1.5616,1.5541,1.534,1.534,1.5374,1.5443,1.5443,0.0,0.0,0.0,0.0,1.3726,1.31,1.2709,1.2526,1.2526,1.2526,1.2562,1.2709,1.2673,1.2526,1.2526,1.2415,1.2305,1.2305,1.2305,1.2305,1.2305,1.2224,1.2114,1.1855,1.1484,1.1074,1.0588,0.9949,0.9349,0.8856,0.8475,0.8178,0.7799,0.7723,0.7684,0.7522,0.7452,0.7378,0.7211,0.7037,0.6873,0.6662,0.6358,0.605,0.5822,0.5458,0.5027,0.4528,0.4059,0.3525,0.2922,0.2049,0.1446,0.1277,0.1143,0.1109,0.1109,0.1043,0.0942,0.0741,0.0404,0.0034,-0.0399,-0.1025,-0.1687,-0.2365,-0.2895,-0.3403,1.541,1.5244,1.5068,1.5068,1.5244,1.541,1.541,1.541,1.541,1.541,1.541,1.5469,1.5674,1.5938,1.6222,1.6633,1.7103,1.7375,1.7293,1.6968,1.691,1.7406,1.7194,1.7261,0.0,0.0,0.0,0.0,0.0,1.673,1.6409,1.6697,1.6853,1.6853,1.7139,1.6894,1.6023,1.6023,1.5906,1.5714,1.5714,1.5797,1.5865,1.5789,1.566,0.0,0.0,0.0,1.3992,1.3411,1.3046,1.2863,1.2783,1.2746,1.2746,1.2856,1.282,1.2709,1.2636,1.2489,1.2335,1.2415,1.2378,1.2335,1.2415,1.2378,1.2268,1.215,1.1892,1.1595,1.1186,1.0625,0.9992,0.9425,0.8965,0.8551,0.8178,0.7915,0.7765,0.7642,0.7561,0.7452,0.7362,0.7196,0.7053,0.6865,0.6617,0.6346,0.6164,0.5921,0.562,0.5223,0.4791,0.4292,0.3792,0.2954,0.2216,0.1614,0.1344,0.1176,0.1176,0.1143,0.1043,0.0942,0.0674,0.0371,0.0067,-0.037,-0.0975,-0.1715,-0.2251,-0.2818,1.541,1.541,1.541,1.541,1.541,1.541,1.541,1.541,1.541,1.541,1.5469,1.5625,1.6026,1.6202,1.6545,1.7298,1.7432,1.7507,1.7516,1.7254,1.7237,1.7852,1.7784,0.0,1.8744,0.0,0.0,0.0,0.0,1.7473,1.7017,1.7432,1.7635,1.7635,1.7991,1.774,1.6804,1.6681,1.6484,1.6245,1.6245,1.6221,1.6201,1.6068,1.5835,0.0,0.0,0.0,1.4274,1.3855,1.3528,1.3302,1.3119,1.3046,1.3046,1.3046,1.301,1.2973,1.2716,1.2526,1.2415,1.2599,1.2526,1.2415,1.2599,1.2526,1.2342,1.2342,1.2187,1.1966,1.1595,1.1223,1.0738,0.9992,0.9533,0.9117,0.8665,0.8255,0.7953,0.7919,0.7718,0.7599,0.7599,0.7417,0.72,0.7052,0.6837,0.6627,0.644,0.6317,0.6148,0.5954,0.5521,0.509,0.4758,0.409,0.3255,0.2285,0.1715,0.1412,0.1311,0.1176,0.1109,0.1109,0.0943,0.074,0.0538,0.0235,-0.0269,-0.0941,-0.1477,-0.2115,1.541,1.541,1.541,1.541,1.541,1.541,1.541,1.541,1.541,1.541,1.5703,1.6016,1.6085,1.6711,1.7259,1.7396,1.7686,1.7862,1.7706,1.7613,1.7815,1.8478,0.0,1.8751,0.0,0.0,0.0,0.0,0.0,1.8634,1.8416,1.8634,1.8754,1.8754,1.8984,1.8944,1.8594,1.7861,1.7286,1.6878,1.6878,1.6806,1.6715,1.6824,1.6706,0.0,0.0,1.5914,1.5248,1.4677,1.4245,1.3949,1.3746,1.3645,1.3645,1.3645,1.3564,1.3346,1.2973,1.282,1.2826,1.2826,1.282,1.2826,1.2826,1.2709,1.2562,1.2562,1.2415,1.2187,1.1966,1.1744,1.1446,1.0962,1.055,1.0099,0.9544,0.9084,0.8699,0.8365,0.814,0.8025,0.8025,0.7714,0.7416,0.7263,0.6933,0.6615,0.644,0.6383,0.6317,0.6181,0.5921,0.5657,0.5296,0.4758,0.4225,0.3694,0.2656,0.1817,0.1311,0.1176,0.1109,0.1109,0.1076,0.0942,0.0741,0.0538,0.0235,-0.0168,-0.0706,-0.1276,1.541,1.541,1.541,1.541,1.541,1.541,1.541,1.541,1.5478,1.5743,1.5948,1.6232,1.6721,1.7142,1.7461,1.7686,1.7881,1.7974,1.7896,1.7862,1.8147,0.0,0.0,1.9322,0.0,0.0,0.0,0.0,0.0,0.0,1.9015,1.9192,1.932,1.932,1.9508,1.9587,1.9469,1.9103,1.8576,1.7934,1.7934,1.7729,1.7441,1.7483,1.7272,1.6873,0.0,1.636,1.5885,1.5319,1.4919,1.4669,1.4353,1.4217,1.4217,1.4145,1.3855,1.3455,1.3309,1.3083,1.2936,1.3046,1.2973,1.2936,1.3046,1.2936,1.2753,1.2753,1.2526,1.2268,1.2194,1.2003,1.1781,1.1484,1.1111,1.07,1.018,0.9765,0.9387,0.9089,0.878,0.8551,0.8441,0.8174,0.7862,0.7447,0.7189,0.6896,0.6612,0.6477,0.6383,0.6317,0.6152,0.5984,0.5851,0.5418,0.4655,0.3525,0.2721,0.2118,0.1648,0.1344,0.121,0.121,0.1143,0.1043,0.0976,0.0875,0.0638,0.0269,-0.0067,-0.0504,1.541,1.541,1.541,1.541,1.541,1.541,1.541,1.541,1.5537,1.6007,1.6173,1.6486,1.7269,1.7461,1.7637,1.7959,1.8008,1.8008,1.8008,1.8008,1.833,1.9189,1.9287,0.0,0.0,0.0,0.0,0.0,0.0,0.0,1.9618,1.9745,1.9833,1.9833,1.9981,2.0012,1.9907,1.9907,1.9517,1.8761,1.8761,1.8461,1.7939,1.7868,1.7624,1.7223,1.6983,1.6751,1.6551,1.6026,1.5709,1.548,1.5098,1.4848,1.4748,1.4641,1.4217,1.371,1.371,1.3455,1.3119,1.3309,1.32,1.3083,1.3229,1.3119,1.2973,1.2973,1.2709,1.2452,1.2452,1.2298,1.2114,1.1966,1.1595,1.1223,1.085,1.0475,1.0105,0.9916,0.9609,0.9306,0.9079,0.8856,0.8486,0.7875,0.7568,0.7271,0.6838,0.6593,0.6449,0.642,0.6317,0.6247,0.6214,0.5881,0.505,0.3658,0.2986,0.2519,0.2185,0.1748,0.148,0.1379,0.121,0.1143,0.1109,0.1109,0.0941,0.0638,0.0471,0.0168,1.541,1.541,1.541,1.541,1.541,1.541,1.541,1.541,1.5537,1.6007,1.6396,1.6794,1.7295,1.7705,1.7978,1.8008,1.8008,1.8008,1.8008,0.0,1.833,1.9189,1.9287,0.0,0.0,0.0,0.0,0.0,0.0,0.0,2.0527,2.0527,2.0527,2.0527,2.0527,2.0333,1.9885,1.9885,1.9583,1.8972,1.8972,1.8517,1.7731,1.79,1.7868,1.7651,1.7613,1.7545,1.7367,1.6978,1.6691,1.6464,1.6123,1.5665,1.5169,1.5133,1.4812,1.4325,1.4325,1.4072,1.3754,1.3761,1.3608,1.3455,1.3455,1.3346,1.32,1.32,1.301,1.2856,1.2856,1.2709,1.2562,1.2526,1.2224,1.1892,1.1669,1.1298,1.0962,1.0738,1.055,1.0325,1.0143,0.9771,0.9316,0.8724,0.8114,0.7592,0.7057,0.6793,0.6609,0.6416,0.6383,0.635,0.6214,0.6017,0.569,0.5263,0.409,0.3255,0.2922,0.2421,0.1951,0.158,0.1379,0.121,0.1109,0.1109,0.1076,0.1042,0.0842,0.064,1.541,1.541,1.541,1.541,1.541,1.541,1.541,1.5625,1.5947,1.6387,1.6826,1.7266,1.7695,1.79,1.8008,1.8008,1.8008,1.8008,1.8008,1.8008,1.8232,1.8818,0.0,0.0,0.0,0.0,0.0,0.0,0.0,0.0,0.0,2.0605,2.0478,2.0166,2.0156,1.9951,1.9531,1.9531,1.9275,1.8759,1.9064,1.8845,1.8244,1.835,1.8189,1.7896,1.7896,1.7794,1.7623,1.7358,1.7141,1.6959,1.6691,1.6368,1.6044,1.5912,1.5532,1.5034,1.4804,1.4461,1.4145,1.4036,1.3956,1.3884,1.3884,1.3746,1.3572,1.3572,1.3419,1.3229,1.2973,1.2826,1.279,1.279,1.2562,1.2335,1.2114,1.1855,1.1595,1.1409,1.1186,1.0999,1.0775,1.0438,0.9959,0.9355,0.8746,0.8167,0.7579,0.7142,0.681,0.6622,0.6482,0.6383,0.6317,0.6181,0.6017,0.5918,0.4821,0.4025,0.3627,0.3023,0.252,0.2116,0.1816,0.1513,0.121,0.1222,0.1189,0.1109,0.0992,0.0894,1.5381,1.541,1.541,1.541,1.541,1.5449,1.5586,1.588,1.6261,1.6816,1.7275,1.7666,1.7959,1.8008,1.8008,1.8008,1.8008,1.8008,1.8008,1.8008,1.8164,0.0,0.0,0.0,0.0,0.0,0.0,0.0,0.0,0.0,0.0,2.04,2.0156,1.9727,1.9717,1.9512,1.9082,1.9082,1.8867,1.8403,1.874,1.873,1.8403,1.8403,1.8247,1.8008,1.8008,1.794,1.7784,1.7701,1.7554,1.7329,1.721,1.6994,1.6786,1.6612,1.6272,1.5806,1.5444,1.5098,1.4713,1.4525,1.4346,1.4274,1.4274,1.4145,1.3971,1.3971,1.379,1.3535,1.3273,1.3083,1.2973,1.2973,1.2826,1.2636,1.2452,1.2298,1.212,1.1929,1.1781,1.1632,1.1409,1.1111,1.07,1.0143,0.9569,0.8964,0.8341,0.7739,0.7191,0.6762,0.6576,0.6482,0.642,0.6317,0.6247,0.6247,0.5521,0.4891,0.4461,0.3825,0.3288,0.2852,0.2452,0.2017,0.158,0.147,0.1302,0.116,0.1064,0.1035,1.5362,1.541,1.541,1.541,1.541,1.5527,1.5997,1.6105,1.6349,1.7239,1.7715,1.8008,1.8008,1.8008,1.8008,1.8008,1.8008,1.8008,1.8008,1.8008,0.0,0.0,0.0,0.0,0.0,0.0,0.0,0.0,0.0,0.0,0.0,1.9902,1.9717,1.9297,1.9277,1.9072,1.8598,1.8598,1.8383,1.8008,1.8008,1.8008,1.8008,1.8008,1.8008,1.8008,1.8008,1.8008,1.8008,1.8008,1.7896,1.7706,1.7706,1.7501,1.7201,1.7201,1.695,1.6577,1.6377,1.5956,1.547,1.5275,1.4955,1.4605,1.4605,1.4533,1.4397,1.4397,1.4109,1.3797,1.3797,1.3492,1.32,1.32,1.3046,1.2863,1.2636,1.2599,1.2526,1.2342,1.2305,1.2224,1.204,1.1855,1.1558,1.1186,1.0601,1.0008,0.9374,0.8589,0.7726,0.6795,0.6708,0.6609,0.6416,0.6387,0.6387,0.6387,0.628,0.5951,0.5428,0.4894,0.4359,0.3825,0.3291,0.2757,0.2221,0.1798,0.1513,0.1287,0.1095,0.1004,1.5264,1.5332,1.541,1.541,1.541,1.5605,1.6367,1.6533,1.6777,1.7646,1.793,1.8008,1.8008,1.8008,1.8008,1.8008,1.8008,1.8008,1.8008,1.8008,0.0,0.0,0.0,0.0,0.0,0.0,0.0,0.0,0.0,0.0,0.0,1.9473,1.9277,0.0,1.8792,1.8588,1.8159,1.8159,1.8135,1.8008,1.8008,1.8008,1.8008,1.8008,1.8008,1.8008,1.8008,1.8008,1.8008,1.8008,1.7974,1.7896,1.7896,1.7872,1.7759,1.7613,1.7417,1.7176,1.6839,1.6517,1.6219,1.6035,1.5886,1.5789,1.5665,1.5426,1.5106,1.484,1.4489,1.4145,1.3863,1.3717,1.3608,1.3455,1.3273,1.3083,1.3046,1.29,1.2746,1.2562,1.2526,1.2452,1.2268,1.204,1.1818,1.1558,1.1119,1.0425,0.925,0.8498,0.7832,0.7124,0.6839,0.6675,0.6609,0.6482,0.6387,0.6387,0.635,0.6152,0.576,0.5359,0.4927,0.4359,0.3928,0.3391,0.2757,0.2305,0.1894,0.1512,0.1256,0.1077,1.5147,1.5264,1.5332,1.5381,1.541,1.5644,1.6502,1.696,1.736,1.79,1.8008,1.8008,1.8008,1.8008,1.8008,1.8008,1.8008,1.8008,1.8008,0.0,0.0,0.0,0.0,0.0,0.0,0.0,0.0,0.0,0.0,0.0,0.0,1.9023,1.8838,0.0,1.8354,1.8237,1.8008,1.8008,1.8008,1.8008,1.8008,1.8008,1.8008,1.8008,1.8008,1.8008,1.8008,1.8008,1.8008,1.8008,1.8008,1.8008,1.8008,1.8008,1.7974,1.7862,1.7759,1.7632,1.7314,1.7097,1.6925,1.6733,1.6594,1.6533,1.6447,1.6202,1.5877,1.5551,1.5169,1.4748,1.4353,1.4145,1.3935,1.3608,1.3419,1.3309,1.3229,1.3083,1.2973,1.2753,1.2709,1.2673,1.2452,1.2335,1.215,1.1966,1.1595,1.0924,0.9698,0.9087,0.8456,0.7686,0.7297,0.7036,0.6905,0.6675,0.6515,0.6515,0.6453,0.6321,0.6123,0.5855,0.5521,0.5123,0.4761,0.4225,0.3522,0.2981,0.2453,0.1865,0.1537,0.1293,1.5059,1.5186,1.5235,1.5362,1.5439,1.5712,1.6521,1.736,1.8008,1.8008,1.8008,1.8008,1.8008,1.8008,1.8008,1.8008,1.8008,1.8008,1.8008,0.0,0.0,0.0,0.0,0.0,0.0,0.0,0.0,0.0,0.0,0.0,0.0,1.8549,0.0,1.8018,1.8008,1.8008,1.8008,1.8008,1.8008,0.0,1.8008,1.8008,1.8008,1.8008,1.8008,1.8008,1.8008,1.8008,1.8008,1.8008,1.8008,1.8008,1.8008,1.8008,1.8008,1.8008,1.8008,1.7974,1.7784,1.7657,1.7539,1.7348,1.7141,1.7012,1.6968,1.683,1.6647,1.6412,1.5991,1.5497,1.5046,1.4705,1.4281,1.371,1.3564,1.3455,1.3273,1.3236,1.3156,1.2973,1.2936,1.2856,1.2673,1.2636,1.2562,1.2378,1.1966,1.1436,1.0545,1.0118,0.9462,0.8381,0.7949,0.7629,0.7302,0.6937,0.6741,0.6741,0.6548,0.6416,0.6416,0.628,0.6115,0.5921,0.5627,0.509,0.4386,0.3808,0.3139,0.2412,0.2001,0.159,1.4804,1.5,1.5215,1.5235,1.5827,1.6463,1.6658,1.736,1.8008,1.8008,1.8008,1.8008,1.8008,1.8008,1.8008,1.8008,1.8008,1.8008,1.8008,0.0,0.0,0.0,0.0,0.0,0.0,0.0,0.0,0.0,0.0,0.0,1.812,0.0,0.0,1.8018,1.8008,1.8008,1.8008,1.8008,1.8008,0.0,1.8008,1.8008,1.8008,1.8008,1.8008,1.8008,1.8008,1.8008,1.8008,1.8008,1.8008,1.8008,1.8008,1.8008,1.8008,1.8008,1.8008,1.7974,1.794,1.7906,1.7881,1.7837,1.7803,1.7735,1.7579,1.7417,1.722,1.6874,1.6447,1.6026,1.5497,1.5089,1.4697,1.4317,1.3971,1.3681,1.3499,1.3455,1.3382,1.3156,1.3119,1.3083,1.2863,1.2826,1.2783,1.2562,1.2194,1.1655,1.0887,1.0506,0.9889,0.8939,0.8398,0.8014,0.7857,0.7363,0.7101,0.7101,0.6806,0.6642,0.6642,0.6449,0.6284,0.6148,0.5921,0.5591,0.516,0.4558,0.3969,0.3371,0.2771,0.2261,1.4686,1.4834,1.5,1.5156,1.5941,1.6697,1.6697,1.736,1.8008,1.8008,1.8008,1.8008,1.8008,1.8008,1.8008,1.8008,1.8008,1.8042,0.0,0.0,0.0,0.0,0.0,0.0,0.0,0.0,0.0,0.0,0.0,1.8008,1.8008,1.8008,1.8008,1.8008,1.8008,1.8008,1.8008,1.8008,1.8008,1.8008,1.8008,1.8008,1.8008,1.8008,1.8008,1.8008,1.8008,1.8008,1.8008,1.8008,1.8008,1.8008,1.8008,1.8008,1.8008,1.8008,1.8008,1.8008,1.8008,1.8008,1.8008,1.8008,1.8008,1.7974,1.7896,1.7794,1.7666,1.7382,1.7107,1.6769,1.6307,1.5877,1.5444,1.5034,1.4361,1.3754,1.3681,1.3572,1.3455,1.3346,1.3346,1.3273,1.3083,1.2973,1.282,1.2636,1.2415,1.2072,1.1451,1.1101,1.0619,0.9896,0.9306,0.8877,0.863,0.8042,0.7624,0.7433,0.7138,0.6872,0.6708,0.6609,0.6482,0.6317,0.6185,0.5917,0.551,0.5108,0.4587,0.3933,0.3362,0.2817,1.4636,1.4686,1.4775,1.5117,1.5941,1.6665,1.6697,1.736,1.8008,1.8008,1.8008,1.8008,1.8008,1.8008,1.8008,1.8008,1.8008,1.8076,0.0,0.0,0.0,0.0,0.0,0.0,0.0,0.0,0.0,0.0,0.0,1.8076,1.8042,1.8042,1.8042,1.8008,1.8008,1.8008,1.8008,1.8008,1.8008,1.8008,1.8008,1.8008,1.8008,1.8008,1.8008,1.8008,1.8008,1.8008,1.8008,1.8008,1.8008,1.8008,1.8008,1.8008,1.8008,1.8008,1.8008,1.8008,1.8008,1.8008,1.8008,1.8008,1.8008,1.8008,1.8008,1.8008,1.7974,1.7784,1.7657,1.7461,1.7116,1.67,1.6272,1.5744,1.4864,1.4044,1.3935,1.3717,1.3564,1.3564,1.3528,1.3455,1.3273,1.3083,1.29,1.2716,1.2673,1.249,1.2053,1.1714,1.1316,1.0857,1.027,0.9779,0.9466,0.8818,0.8269,0.7954,0.7563,0.7204,0.6872,0.6743,0.6563,0.6404,0.6371,0.6133,0.5698,0.5518,0.5092,0.4396,0.3934,0.3436,1.4506,1.4606,1.4775,1.5117,1.588,1.657,1.6665,1.736,1.8008,1.8008,1.8008,1.8008,1.8008,1.8008,1.8008,1.8008,1.8008,1.8076,0.0,0.0,0.0,0.0,0.0,0.0,0.0,0.0,0.0,0.0,1.8448,1.8381,1.8269,1.8269,1.8178,1.8008,1.8008,1.8008,1.8008,1.8008,1.8008,1.8008,1.8008,1.8008,1.8008,1.8008,1.8008,1.8008,1.8008,1.8008,1.8008,1.8008,1.8008,1.8008,1.8008,1.8008,1.8008,1.8008,1.8008,1.8008,1.8008,1.8008,1.8008,1.8008,1.8008,1.8008,1.8008,1.8008,1.7974,1.7974,1.7828,1.7647,1.7461,1.7116,1.6691,1.6307,1.5709,1.5114,1.4469,1.4,1.3754,1.3754,1.3608,1.3492,1.3455,1.3309,1.3163,1.3119,1.2973,1.2751,1.2451,1.2137,1.1722,1.126,1.0728,1.0263,0.9919,0.9556,0.9166,0.8856,0.8247,0.7792,0.7563,0.6848,0.6442,0.6411,0.628,0.62,0.6112,0.5743,0.5468,0.5212,0.4748,0.4271,1.4675,1.4656,1.4745,1.5029,1.5607,1.6208,1.6617,1.7217,1.7725,1.7959,1.8008,1.8008,1.8008,1.8008,1.8008,1.8008,1.8008,1.8076,0.0,0.0,0.0,0.0,0.0,0.0,0.0,0.0,0.0,0.0,1.8549,1.8482,1.8414,1.8337,1.8269,1.8178,1.8076,1.8008,1.8008,1.8008,1.8008,1.8008,1.8008,1.8008,1.8008,1.8008,1.8008,1.8008,1.8008,1.8008,1.8008,1.8008,1.8008,1.8008,1.8008,1.8008,1.8008,1.8008,1.8008,1.8008,1.8008,1.8008,1.8008,1.8008,1.8008,1.8008,1.8008,1.8008,1.8008,1.8008,1.794,1.7862,1.7803,1.7564,1.727,1.7038,1.6621,1.6132,1.5568,1.4748,1.408,1.3826,1.3645,1.3492,1.3492,1.3419,1.3346,1.3229,1.3119,1.2933,1.2515,1.2234,1.1992,1.1622,1.1209,1.0863,1.0649,1.0263,0.9875,0.9492,0.8848,0.8307,0.7832,0.7123,0.6643,0.6459,0.6186,0.598,0.5878,0.5677,0.5506,0.5325,0.4989,0.4674,1.4951,1.4863,1.4872,1.5049,1.5463,1.5946,1.6568,1.707,1.75,1.793,1.8008,1.8008,1.8008,1.8008,1.8008,1.8008,1.8008,0.0,0.0,0.0,0.0,0.0,0.0,0.0,0.0,0.0,0.0,0.0,1.8741,1.864,1.8583,1.8438,1.8337,1.8303,1.811,1.8008,1.8008,1.8008,1.8008,1.8008,1.8008,1.8008,1.8008,1.8008,1.8008,1.8008,1.8008,1.8008,1.8008,1.8008,1.8008,1.8008,1.8008,1.8008,1.8008,1.8008,1.8008,1.8008,1.8008,1.8008,1.8008,1.8008,1.8008,1.8008,1.8008,1.8008,1.8008,1.8008,1.8008,1.8008,1.8008,1.7896,1.775,1.7598,1.7289,1.6874,1.6237,1.5275,1.4425,1.4036,1.3783,1.3637,1.3608,1.3572,1.3499,1.3309,1.3273,1.3114,1.2615,1.2407,1.216,1.1876,1.1488,1.1188,1.1033,1.0678,1.0259,0.9818,0.926,0.8695,0.809,0.741,0.688,0.655,0.6155,0.5822,0.5641,0.5567,0.5454,0.5297,0.5097,0.4932,1.541,1.5284,1.5205,1.5332,1.5593,1.5946,1.6568,1.707,1.75,1.793,1.8008,1.8008,1.8008,1.8008,1.8008,1.8008,1.8008,0.0,0.0,0.0,0.0,0.0,0.0,0.0,0.0,0.0,0.0,0.0,1.9075,1.8975,1.8808,1.8617,1.8438,1.8303,1.811,1.8008,1.8008,1.8008,1.8008,1.8008,1.8008,1.8008,1.8008,1.8008,1.8008,1.8008,1.8008,1.8008,1.8008,1.8008,1.8008,1.8008,1.8008,1.8008,1.8008,1.8008,1.8008,1.8008,1.8008,1.8008,1.8008,1.8008,1.8008,1.8008,1.8008,1.8008,1.8008,1.8008,1.8008,1.8008,1.8008,1.7974,1.793,1.775,1.7588,1.7116,1.5815,1.5196,1.4768,1.4425,1.4209,1.3992,1.3826,1.3797,1.3717,1.3499,1.3499,1.3346,1.301,1.2689,1.2361,1.204,1.1472,1.1039,1.0822,1.0514,1.017,0.9822,0.9366,0.8915,0.8575,0.7666,0.7025,0.6706,0.6239,0.5928,0.5793,0.5478,0.5309,0.5297,0.5297,0.5211,1.6189,1.597,1.5797,1.595,1.5926,1.5999,1.6455,1.6652,1.6786,1.71,1.7155,1.7275,1.7559,1.7832,1.8008,1.8008,1.8008,0.0,0.0,0.0,0.0,0.0,0.0,0.0,0.0,0.0,0.0,0.0,0.0,0.0,1.9008,1.8674,1.8482,1.8414,1.8144,1.8008,1.8008,1.8008,1.8008,1.8008,1.8008,1.8008,1.8008,1.8008,1.8008,1.8008,1.8008,1.8008,1.8008,1.8008,1.8008,1.8008,1.8008,1.8008,1.8008,1.8008,1.8008,1.8008,1.8008,1.8008,1.8008,1.8008,1.8008,1.8008,1.8008,1.8008,1.8008,1.8008,1.8008,1.8008,1.8008,1.8008,1.7974,1.7896,1.7759,1.7476,1.6908,1.6088,1.5374,1.4991,1.4641,1.4283,1.3881,1.3603,1.3366,1.308,1.2939,1.2753,1.239,1.2251,1.1974,1.1472,1.1239,1.0989,1.069,1.0567,1.0379,1.0157,0.9713,0.9329,0.8991,0.8254,0.7673,0.734,0.671,0.6142,0.5665,0.5546,0.5434,0.5297,0.5297,0.527,1.6983,1.6729,1.6503,1.6578,1.6379,1.6226,1.6656,1.6618,1.6527,1.6798,1.6823,1.688,1.7109,1.7393,1.7676,1.7959,1.8008,0.0,0.0,0.0,0.0,0.0,0.0,0.0,0.0,0.0,0.0,0.0,0.0,0.0,1.9108,1.8774,1.8549,1.8448,1.8144,1.8008,1.8008,1.8076,1.811,1.811,1.811,1.811,1.811,1.8042,1.8008,1.8008,1.8008,1.8008,1.8008,1.8008,1.8008,1.8008,1.8008,1.8008,1.8008,1.8008,1.8042,1.811,1.811,1.8144,1.8178,1.8178,1.8178,1.8178,1.811,1.811,1.8076,1.8008,1.8008,1.8008,1.8008,1.8008,1.8008,1.8008,1.7896,1.7759,1.7588,1.6821,1.6088,1.5727,1.5346,1.4912,1.426,1.3909,1.3523,1.3051,1.2762,1.2476,1.2145,1.2036,1.1755,1.1173,1.1004,1.0806,1.0455,1.0324,1.0202,1.0064,0.9761,0.9492,0.92,0.8684,0.8235,0.7889,0.7262,0.6674,0.6032,0.5732,0.554,0.5407,0.5325,0.5297,0.0,0.0,0.0,1.7245,1.6937,1.6714,1.7097,1.6995,1.6869,1.7101,1.7066,1.691,1.6709,1.6677,1.696,1.7832,1.7978,0.0,0.0,0.0,0.0,0.0,0.0,0.0,0.0,0.0,0.0,0.0,0.0,1.9108,1.9108,1.8908,1.864,1.8303,1.811,1.8008,1.8008,1.8202,1.8303,1.8303,1.8303,1.8303,1.8303,1.811,1.8008,1.8008,1.8008,1.8008,1.8008,1.8008,1.8008,1.8008,1.8008,1.8008,1.8008,1.8008,1.8144,1.8303,1.8303,1.8371,1.8516,1.8516,1.8516,1.8482,1.8347,1.8303,1.8269,1.8076,1.8008,1.8008,1.8008,1.8008,1.8008,1.8008,1.8008,1.794,1.774,1.7304,1.6855,1.6673,1.6333,1.587,1.5061,1.4633,1.4177,1.3413,1.3024,1.2661,1.2333,1.2126,1.178,1.1173,1.0806,1.0484,1.0133,0.9804,0.9614,0.9588,0.9484,0.9335,0.9211,0.8961,0.8626,0.8248,0.7889,0.7461,0.6933,0.6055,0.5622,0.5595,0.5407,0.5301,1.836,0.0,0.0,0.0,0.0,0.0,1.7212,1.6931,1.657,1.6314,1.6148,1.6098,1.6253,1.6281,1.6436,1.696,1.7353,1.7666,0.0,0.0,0.0,0.0,0.0,0.0,0.0,0.0,0.0,0.0,1.9108,1.9108,1.9108,1.8908,1.8674,1.8448,1.8381,1.8347,1.8347,1.8414,1.8448,1.8448,1.8448,1.8448,1.8448,1.8279,1.8279,1.8347,1.8269,1.8279,1.8347,1.8245,1.8279,1.8347,1.8347,1.8347,1.8347,1.8347,1.8414,1.8448,1.8448,1.8482,1.8516,1.8516,1.8516,1.8482,1.8448,1.8448,1.8414,1.8269,1.8279,1.8347,1.8347,1.8279,1.8212,1.8212,1.811,1.7974,1.793,1.7562,1.7202,1.7076,1.683,1.6426,1.5683,1.5146,1.4521,1.3664,1.3162,1.2721,1.2335,1.2164,1.1903,1.151,1.1162,1.0793,1.0352,0.997,0.9706,0.9614,0.9562,0.9536,0.9484,0.9328,0.9126,0.8923,0.8448,0.8082,0.7848,0.6734,0.6082,0.5891,0.5622,0.543,1.8774,1.8679,1.8583,1.8583,0.0,0.0,1.7606,1.7228,1.6779,0.0,1.6153,1.6013,1.6078,1.6039,1.6158,1.6541,1.6868,1.7111,0.0,0.0,0.0,0.0,0.0,0.0,0.0,1.8707,1.8875,1.9065,1.9142,1.9175,1.9175,1.8942,1.8751,1.864,1.8549,1.8516,1.8516,1.8573,1.8684,1.8741,1.8741,1.8774,1.8818,1.8607,1.8539,1.8617,1.8448,1.8472,1.8617,1.8539,1.8506,1.8516,1.8516,1.8516,1.8516,1.8516,1.8549,1.8617,1.8617,1.8674,1.8741,1.8741,1.8741,1.8741,1.865,1.8617,1.8583,1.8438,1.8448,1.8516,1.8516,1.8448,1.8331,1.8185,1.8045,1.7895,1.7708,1.7481,1.735,1.7508,1.7241,1.684,1.6331,1.5882,1.5277,1.4401,1.3805,1.3322,1.3017,1.267,1.2317,1.1941,1.1508,1.1073,1.0624,1.011,0.9766,0.9681,0.9647,0.9588,0.9588,0.951,0.9413,0.929,0.8923,0.856,0.8195,0.7192,0.649,0.6077,0.5864,0.5677,1.9011,1.8919,1.8825,1.8825,1.8503,0.0,1.8139,1.7711,1.7267,0.0,1.6722,1.6402,1.62,1.6066,1.6132,1.6486,1.6517,1.6567,0.0,0.0,0.0,0.0,0.0,0.0,1.8164,1.8506,1.8836,1.9036,1.921,1.9318,1.9318,1.9042,1.8875,1.8875,1.8717,1.8617,1.8617,1.8808,1.8975,1.9175,1.9175,1.9241,1.9351,1.9042,1.8908,1.8908,1.8707,1.8707,1.8875,1.8875,1.8741,1.8583,1.8583,1.8583,1.8583,1.8583,1.8674,1.8841,1.8841,1.8942,1.9108,1.9108,1.9108,1.9075,1.8875,1.8841,1.8808,1.8617,1.8549,1.8539,1.8489,1.8469,1.8368,1.7958,1.7835,1.7725,1.7291,1.716,1.7296,1.7874,1.756,1.7123,1.6949,1.6698,1.6254,1.5474,1.476,1.4253,1.4038,1.3465,1.2953,1.2529,1.1955,1.1451,1.0996,1.0309,0.9877,0.9851,0.9706,0.9614,0.9614,0.9614,0.9536,0.9413,0.9283,0.8923,0.8275,0.7542,0.6864,0.629,0.6164,0.6032,1.9107,1.8999,1.8972,1.8972,1.8721,0.0,1.8367,1.7959,1.7545,0.0,1.7011,1.6853,1.6694,1.6637,1.6641,1.6735,1.666,1.665,0.0,0.0,0.0,0.0,0.0,0.0,1.7388,1.7966,1.845,1.8741,1.9239,1.9539,1.9539,1.9473,1.944,1.944,1.9407,1.9384,1.9384,1.9407,1.9473,1.9506,1.9506,1.9605,1.9769,1.9539,1.9539,1.9671,1.9473,1.9407,1.944,1.9274,1.9119,1.8975,1.8975,1.8975,1.8975,1.8975,1.9008,1.9042,1.9042,1.9075,1.9108,1.9108,1.9108,1.9098,1.9031,1.9042,1.9031,1.9008,1.8875,1.8693,1.8479,1.8289,1.809,1.7684,1.7457,1.7311,1.722,1.6919,1.6898,1.7758,1.7684,1.7409,1.7123,1.7178,1.706,1.6405,1.5655,1.506,1.4733,1.4188,1.3765,1.3695,1.2914,1.2272,1.1956,1.1058,1.0437,1.0213,0.9921,0.9766,0.9766,0.9647,0.9588,0.9562,0.9439,0.9185,0.885,0.799,0.7348,0.6918,0.6793,0.663,1.9528,1.9411,1.9324,1.9086,1.8839,0.0,0.0,1.8313,1.8014,1.7838,1.7606,1.7429,1.7357,1.7301,1.7234,1.7234,1.7134,1.707,1.7082,0.0,0.0,0.0,0.0,0.0,1.7274,1.7832,1.8375,1.8873,1.9432,1.98,1.9864,2.003,2.0096,2.0096,2.0096,2.0064,1.9987,1.9987,1.9998,2.0009,2.0064,2.0183,2.0388,2.028,2.028,2.0388,2.0118,1.9987,1.9987,1.9704,1.9594,1.9584,1.9297,1.9274,1.9341,1.9341,1.9274,1.9208,1.9308,1.9274,1.9208,1.9308,1.9341,1.9341,1.9241,1.9208,1.9208,1.9208,1.9041,1.8812,1.8583,1.829,1.7864,1.7369,1.7165,1.7053,1.6829,1.6605,1.6616,1.7225,1.7466,1.7588,1.7764,1.7861,1.776,1.7345,1.6713,1.6095,1.5599,1.5121,1.4677,1.4387,1.3519,1.2831,1.2564,1.1555,1.0794,1.0522,1.0213,0.9981,0.9799,0.974,0.9673,0.9614,0.9536,0.9413,0.9211,0.8705,0.8203,0.7756,0.7509,0.7343,2.0093,1.9892,1.97,0.0,0.0,1.8798,0.0,0.0,0.0,1.8449,1.8209,1.8034,1.8034,0.0,0.0,0.0,0.0,0.0,0.0,1.7184,0.0,0.0,0.0,0.0,0.0,1.7817,1.8457,1.9175,1.9648,1.998,2.0235,2.0497,2.0694,2.0784,2.0796,2.0752,2.0613,2.0613,2.0592,2.0593,2.0679,2.0828,2.1051,2.1051,2.1051,2.1083,2.0816,2.0645,2.0549,2.0248,2.0215,2.0237,1.9671,1.9539,1.9704,1.9704,1.9572,1.944,1.9638,1.9572,1.944,1.9638,1.9671,1.9638,1.9473,1.9384,1.933,1.9269,1.9104,1.886,1.8564,1.8206,1.7704,1.7104,1.6971,1.6867,1.6503,1.6431,1.6529,1.6918,1.7287,1.7736,1.8278,1.8355,1.8269,1.811,1.757,1.7002,1.644,1.5957,1.5476,1.4901,1.4063,1.3433,1.3104,1.2061,1.1268,1.0896,1.059,1.029,0.9981,0.9877,0.974,0.9614,0.9588,0.9536,0.9439,0.9342,0.9028,0.8501,0.8203,0.8064,2.0658,0.0,0.0,0.0,1.9239,0.0,0.0,0.0,1.8587,1.8587,0.0,1.8533,1.8533,0.0,0.0,0.0,0.0,0.0,1.8259,1.7982,1.7517,0.0,0.0,0.0,0.0,1.7838,1.8733,1.9655,1.9777,2.0085,2.0677,2.0747,2.0992,2.1479,2.1491,2.1491,2.1459,2.1345,2.1293,2.1305,2.119,2.1316,2.162,2.162,2.1671,2.1784,2.1753,2.1565,2.1262,2.104,2.1008,2.0999,2.0161,1.9922,2.0042,2.0042,1.9955,1.9835,1.9977,1.9955,1.9868,2.0009,1.9955,1.9868,1.9835,1.9704,1.9487,1.9201,1.9115,1.8868,1.8021,1.7763,1.7573,1.697,1.6807,1.6796,1.662,1.6581,1.6785,1.7451,1.7637,1.7728,1.792,1.8245,1.8482,1.8448,1.7926,1.7392,1.6957,1.639,1.5868,1.5371,1.4782,1.4247,1.3749,1.297,1.2238,1.162,1.1124,1.0769,1.059,1.0076,0.974,0.9614,0.9588,0.9588,0.9588,0.9562,0.9335,0.8929,0.8771,0.8699,0.0,0.0,0.0,0.0,0.0,0.0,1.8919,0.0,1.8827,0.0,0.0,0.0,0.0,0.0,0.0,0.0,1.8706,0.0,0.0,0.0,1.81,0.0,0.0,0.0,0.0,0.0,0.0,0.0,0.0,2.0072,2.0418,2.1036,2.147,2.1699,2.2054,2.218,2.2056,2.1994,2.1944,2.1851,2.1894,2.1975,2.2099,2.2235,2.2316,2.2347,2.2242,2.2118,2.1975,2.1671,2.1651,2.1737,2.1242,2.0976,2.0837,2.0837,2.0741,2.0592,2.07,2.07,2.0624,2.0816,2.0688,2.0453,2.0356,2.0259,2.0084,1.9634,1.9448,1.9212,1.8433,1.8005,1.7711,1.73,1.7117,1.6994,1.6842,1.6712,1.677,1.7352,1.7356,1.741,1.7738,1.8273,1.8674,1.8674,1.8355,1.7842,1.7092,1.6781,1.6304,1.5488,1.4982,1.4499,1.3974,1.3297,1.2651,1.197,1.1352,1.0922,1.0701,1.0316,0.9999,0.9836,0.9836,0.9836,0.9836,0.9836,0.9706,0.9453,0.9237,0.9185,2.1777,0.0,0.0,0.0,0.0,0.0,0.0,0.0,0.0,0.0,0.0,0.0,0.0,0.0,1.8987,1.8987,0.0,1.8851,0.0,1.8759,0.0,0.0,0.0,0.0,0.0,0.0,0.0,0.0,0.0,0.0,2.0328,2.1082,2.1621,2.1918,2.2355,2.2578,2.2592,2.2574,2.2482,2.2402,2.2451,2.2482,2.2543,2.2678,2.2769,2.28,2.2665,2.2574,2.2512,2.2273,2.2254,2.234,2.2211,2.2013,2.1808,2.1683,2.1482,2.1313,2.1443,2.1443,2.1431,2.1557,2.1431,2.1146,2.1019,2.0912,2.0778,2.0279,1.998,1.9651,1.9028,1.8506,1.81,1.7854,1.7661,1.7457,1.729,1.7039,1.6963,1.7355,1.7244,1.7281,1.7677,1.8172,1.8547,1.867,1.8423,1.7956,1.7239,1.6996,1.6505,1.5586,1.5232,1.4823,1.4284,1.3715,1.3029,1.2212,1.1628,1.1175,1.0871,1.065,1.0419,1.0205,1.018,1.018,1.0128,1.0128,1.0076,0.9929,0.9629,0.9543,0.0,0.0,0.0,2.0718,0.0,0.0,0.0,0.0,1.8987,0.0,0.0,0.0,0.0,1.8987,1.8987,1.8987,1.8987,0.0,0.0,0.0,0.0,0.0,0.0,0.0,0.0,0.0,0.0,0.0,0.0,0.0,2.0639,2.0729,2.1204,2.2243,2.2293,2.2569,2.3065,2.2939,2.2878,2.2878,2.2739,2.2769,2.2878,2.2878,2.2969,2.3078,2.3078,2.2987,2.2878,2.2878,2.28,2.272,2.2818,2.2848,2.2787,2.234,2.2037,2.1889,2.2111,2.2154,2.2154,2.2154,2.2037,2.1889,2.1846,2.1721,2.151,2.1156,2.0695,2.0172,1.9694,1.9166,1.8744,1.8587,1.8425,1.8197,1.7925,1.7661,1.75,1.7665,1.7568,1.758,1.7841,1.7812,1.7884,1.834,1.7914,1.7502,1.7481,1.691,1.6287,1.5751,1.5691,1.5417,1.4833,1.4338,1.3551,1.2379,1.2026,1.1703,1.1301,1.115,1.0947,1.0667,1.0667,1.0616,1.047,1.047,1.0419,1.0265,0.9955,0.9706,0.0,0.0,2.1408,2.0887,0.0,0.0,0.0,0.0,0.0,0.0,0.0,0.0,0.0,1.8987,1.8987,1.8987,1.8987,1.8987,0.0,0.0,0.0,0.0,0.0,0.0,0.0,0.0,0.0,0.0,1.9682,0.0,0.0,2.0478,2.0867,2.1232,2.1933,2.2397,2.2556,2.286,2.3017,2.3017,2.2987,2.2987,2.3017,2.3017,2.3047,2.3108,2.3108,2.3078,2.3017,2.3017,2.3017,2.2969,2.3017,2.3017,2.2987,2.2757,2.2635,2.2561,2.2635,2.2665,2.2665,2.2665,2.2543,2.242,2.2285,2.218,2.2041,2.1572,2.11,2.0641,2.0134,1.9599,1.9158,1.9028,1.8869,1.8694,1.8425,1.8116,1.786,1.7717,1.7581,1.7455,1.7319,1.7265,1.7394,1.7864,1.776,1.7492,1.7093,1.6829,1.6486,1.5896,1.5827,1.547,1.4597,1.385,1.3258,1.2783,1.2544,1.2283,1.1977,1.1753,1.1553,1.1377,1.1352,1.1301,1.115,1.115,1.0998,1.0693,1.059,1.0231,2.2769,2.2389,0.0,2.134,2.088,0.0,1.9876,0.0,0.0,0.0,0.0,0.0,0.0,1.9146,1.9131,1.9078,1.9078,1.9052,0.0,1.8987,0.0,0.0,0.0,1.9052,0.0,0.0,0.0,1.9591,1.9734,1.9798,0.0,0.0,2.0478,2.0679,2.1355,2.192,2.2309,2.2631,2.2907,2.3108,2.3108,2.3108,2.3108,2.3108,2.3108,2.3108,2.3108,2.3108,2.3108,2.3108,2.3108,2.3108,2.3108,2.3108,2.3078,2.2987,2.2969,2.2969,2.2969,2.2969,2.2969,2.2969,2.2909,2.2818,2.2696,2.2665,2.2592,2.2235,2.1802,2.1345,2.0788,2.0244,1.9836,1.9744,1.9464,1.9206,1.9174,1.8785,1.8348,1.8139,1.792,1.7689,1.7374,1.7234,1.7252,1.7519,1.7407,1.7191,1.6908,1.6754,1.648,1.6021,1.5961,1.557,1.455,1.3796,1.3283,1.3079,1.291,1.2725,1.2529,1.2298,1.2101,1.1927,1.1902,1.1852,1.1694,1.1694,1.1553,1.1242,1.12,1.0837]}]]